﻿<?xml version="1.0" encoding="utf-8"?><gpx creator="Garmin Desktop App" version="1.1" xsi:schemaLocation="http://www.topografix.com/GPX/1/1 http://www.topografix.com/GPX/1/1/gpx.xsd http://www.garmin.com/xmlschemas/WaypointExtension/v1 http://www8.garmin.com/xmlschemas/WaypointExtensionv1.xsd http://www.garmin.com/xmlschemas/TrackPointExtension/v1 http://www.garmin.com/xmlschemas/TrackPointExtensionv1.xsd http://www.garmin.com/xmlschemas/GpxExtensions/v3 http://www8.garmin.com/xmlschemas/GpxExtensionsv3.xsd http://www.garmin.com/xmlschemas/ActivityExtension/v1 http://www8.garmin.com/xmlschemas/ActivityExtensionv1.xsd http://www.garmin.com/xmlschemas/AdventuresExtensions/v1 http://www8.garmin.com/xmlschemas/AdventuresExtensionv1.xsd http://www.garmin.com/xmlschemas/PressureExtension/v1 http://www.garmin.com/xmlschemas/PressureExtensionv1.xsd http://www.garmin.com/xmlschemas/TripExtensions/v1 http://www.garmin.com/xmlschemas/TripExtensionsv1.xsd http://www.garmin.com/xmlschemas/TripMetaDataExtensions/v1 http://www.garmin.com/xmlschemas/TripMetaDataExtensionsv1.xsd http://www.garmin.com/xmlschemas/ViaPointTransportationModeExtensions/v1 http://www.garmin.com/xmlschemas/ViaPointTransportationModeExtensionsv1.xsd http://www.garmin.com/xmlschemas/CreationTimeExtension/v1 http://www.garmin.com/xmlschemas/CreationTimeExtensionsv1.xsd http://www.garmin.com/xmlschemas/AccelerationExtension/v1 http://www.garmin.com/xmlschemas/AccelerationExtensionv1.xsd http://www.garmin.com/xmlschemas/PowerExtension/v1 http://www.garmin.com/xmlschemas/PowerExtensionv1.xsd http://www.garmin.com/xmlschemas/VideoExtension/v1 http://www.garmin.com/xmlschemas/VideoExtensionv1.xsd" xmlns="http://www.topografix.com/GPX/1/1" xmlns:xsi="http://www.w3.org/2001/XMLSchema-instance" xmlns:wptx1="http://www.garmin.com/xmlschemas/WaypointExtension/v1" xmlns:gpxtrx="http://www.garmin.com/xmlschemas/GpxExtensions/v3" xmlns:gpxtpx="http://www.garmin.com/xmlschemas/TrackPointExtension/v1" xmlns:gpxx="http://www.garmin.com/xmlschemas/GpxExtensions/v3" xmlns:trp="http://www.garmin.com/xmlschemas/TripExtensions/v1" xmlns:adv="http://www.garmin.com/xmlschemas/AdventuresExtensions/v1" xmlns:prs="http://www.garmin.com/xmlschemas/PressureExtension/v1" xmlns:tmd="http://www.garmin.com/xmlschemas/TripMetaDataExtensions/v1" xmlns:vptm="http://www.garmin.com/xmlschemas/ViaPointTransportationModeExtensions/v1" xmlns:ctx="http://www.garmin.com/xmlschemas/CreationTimeExtension/v1" xmlns:gpxacc="http://www.garmin.com/xmlschemas/AccelerationExtension/v1" xmlns:gpxpx="http://www.garmin.com/xmlschemas/PowerExtension/v1" xmlns:vidx1="http://www.garmin.com/xmlschemas/VideoExtension/v1">

  <metadata>
    <link href="http://www.garmin.com">
      <text>Garmin International</text>
    </link>
    <time>2019-06-23T18:48:25Z</time>
    <bounds maxlat="59.728596014901996" maxlon="8.460175981745124" minlat="59.660129025578499" minlon="8.372368002310395" />
  </metadata>

  <trk>
    <name>Brattefjell 2019</name>
    <extensions>
      <gpxx:TrackExtension>
        <gpxx:DisplayColor>DarkGray</gpxx:DisplayColor>
      </gpxx:TrackExtension>
    </extensions>
    <trkseg>
      <trkpt lat="59.660218963399529" lon="8.459938019514084">
        <ele>798.2265625</ele>
        <time>2019-06-22T11:13:00Z</time>
      </trkpt>
      <trkpt lat="59.660233967006207" lon="8.45986601896584">
        <ele>798.08203125</ele>
        <time>2019-06-22T11:13:16Z</time>
      </trkpt>
      <trkpt lat="59.660204965621233" lon="8.45988797955215">
        <ele>798.1484375</ele>
        <time>2019-06-22T11:13:32Z</time>
      </trkpt>
      <trkpt lat="59.660211000591516" lon="8.459893008694053">
        <ele>798.15234375</ele>
        <time>2019-06-22T11:13:37Z</time>
      </trkpt>
      <trkpt lat="59.660350978374481" lon="8.460070034489036">
        <ele>798.4921875</ele>
        <time>2019-06-22T11:13:56Z</time>
      </trkpt>
      <trkpt lat="59.660416021943092" lon="8.460128037258983">
        <ele>798.67578125</ele>
        <time>2019-06-22T11:14:08Z</time>
      </trkpt>
      <trkpt lat="59.660420967265964" lon="8.460133988410235">
        <ele>798.68359375</ele>
        <time>2019-06-22T11:14:09Z</time>
      </trkpt>
      <trkpt lat="59.660509983077645" lon="8.460175981745124">
        <ele>798.79296875</ele>
        <time>2019-06-22T11:14:18Z</time>
      </trkpt>
      <trkpt lat="59.660557005554438" lon="8.460172964259982">
        <ele>798.8359375</ele>
        <time>2019-06-22T11:14:22Z</time>
      </trkpt>
      <trkpt lat="59.660756997764111" lon="8.460115967318416">
        <ele>799.21875</ele>
        <time>2019-06-22T11:14:31Z</time>
      </trkpt>
      <trkpt lat="59.661011975258589" lon="8.459962997585535">
        <ele>799.609375</ele>
        <time>2019-06-22T11:14:40Z</time>
      </trkpt>
      <trkpt lat="59.661328978836536" lon="8.45975898206234">
        <ele>799.8515625</ele>
        <time>2019-06-22T11:14:52Z</time>
      </trkpt>
      <trkpt lat="59.661559984087944" lon="8.459643982350826">
        <ele>800.265625</ele>
        <time>2019-06-22T11:15:00Z</time>
      </trkpt>
      <trkpt lat="59.661771040409803" lon="8.459446001797915">
        <ele>800.3984375</ele>
        <time>2019-06-22T11:15:08Z</time>
      </trkpt>
      <trkpt lat="59.661948988214135" lon="8.459252966567874">
        <ele>800.28125</ele>
        <time>2019-06-22T11:15:15Z</time>
      </trkpt>
      <trkpt lat="59.662205977365375" lon="8.459035037085414">
        <ele>800.39453125</ele>
        <time>2019-06-22T11:15:25Z</time>
      </trkpt>
      <trkpt lat="59.662545025348663" lon="8.458750974386931">
        <ele>799.8515625</ele>
        <time>2019-06-22T11:15:38Z</time>
      </trkpt>
      <trkpt lat="59.662676034495234" lon="8.458664976060391">
        <ele>799.89453125</ele>
        <time>2019-06-22T11:15:44Z</time>
      </trkpt>
      <trkpt lat="59.662810983136296" lon="8.458591969683766">
        <ele>799.9140625</ele>
        <time>2019-06-22T11:15:50Z</time>
      </trkpt>
      <trkpt lat="59.663080964237452" lon="8.458494991064072">
        <ele>800.18359375</ele>
        <time>2019-06-22T11:16:01Z</time>
      </trkpt>
      <trkpt lat="59.663165034726262" lon="8.458497002720833">
        <ele>800.38671875</ele>
        <time>2019-06-22T11:16:04Z</time>
      </trkpt>
      <trkpt lat="59.663369972258806" lon="8.458348978310823">
        <ele>800.22265625</ele>
        <time>2019-06-22T11:16:12Z</time>
      </trkpt>
      <trkpt lat="59.66367700137198" lon="8.458107998594642">
        <ele>804.4375</ele>
        <time>2019-06-22T11:16:23Z</time>
      </trkpt>
      <trkpt lat="59.66397900134325" lon="8.457718994468451">
        <ele>805.8984375</ele>
        <time>2019-06-22T11:16:36Z</time>
      </trkpt>
      <trkpt lat="59.664244959130883" lon="8.457479020580649">
        <ele>806.76171875</ele>
        <time>2019-06-22T11:16:47Z</time>
      </trkpt>
      <trkpt lat="59.664287958294153" lon="8.457420011982322">
        <ele>806.89453125</ele>
        <time>2019-06-22T11:16:50Z</time>
      </trkpt>
      <trkpt lat="59.664425002411008" lon="8.45717903226614">
        <ele>806.75390625</ele>
        <time>2019-06-22T11:16:58Z</time>
      </trkpt>
      <trkpt lat="59.664559029042721" lon="8.456989014521241">
        <ele>806.9453125</ele>
        <time>2019-06-22T11:17:06Z</time>
      </trkpt>
      <trkpt lat="59.664789028465748" lon="8.456821963191032">
        <ele>809.8203125</ele>
        <time>2019-06-22T11:17:17Z</time>
      </trkpt>
      <trkpt lat="59.66488097794354" lon="8.456735964864492">
        <ele>810.48828125</ele>
        <time>2019-06-22T11:17:22Z</time>
      </trkpt>
      <trkpt lat="59.66522203758359" lon="8.456509988754988">
        <ele>813.51953125</ele>
        <time>2019-06-22T11:17:38Z</time>
      </trkpt>
      <trkpt lat="59.665510039776564" lon="8.456290969625115">
        <ele>817.515625</ele>
        <time>2019-06-22T11:17:52Z</time>
      </trkpt>
      <trkpt lat="59.665752025321126" lon="8.456009002402425">
        <ele>819.3359375</ele>
        <time>2019-06-22T11:18:03Z</time>
      </trkpt>
      <trkpt lat="59.665945982560515" lon="8.45574002712965">
        <ele>820.3359375</ele>
        <time>2019-06-22T11:18:12Z</time>
      </trkpt>
      <trkpt lat="59.666219986975193" lon="8.455369966104627">
        <ele>821.2734375</ele>
        <time>2019-06-22T11:18:22Z</time>
      </trkpt>
      <trkpt lat="59.666487034410238" lon="8.455179026350379">
        <ele>821.5390625</ele>
        <time>2019-06-22T11:18:34Z</time>
      </trkpt>
      <trkpt lat="59.666557023301721" lon="8.455141978338361">
        <ele>821.42578125</ele>
        <time>2019-06-22T11:18:38Z</time>
      </trkpt>
      <trkpt lat="59.666633969172835" lon="8.455072995275259">
        <ele>821.18359375</ele>
        <time>2019-06-22T11:18:42Z</time>
      </trkpt>
      <trkpt lat="59.666721979156137" lon="8.455048017203808">
        <ele>821.2109375</ele>
        <time>2019-06-22T11:18:46Z</time>
      </trkpt>
      <trkpt lat="59.666914008557796" lon="8.454992026090622">
        <ele>820.84375</ele>
        <time>2019-06-22T11:18:56Z</time>
      </trkpt>
      <trkpt lat="59.66722397133708" lon="8.45509696751833">
        <ele>821.08203125</ele>
        <time>2019-06-22T11:19:09Z</time>
      </trkpt>
      <trkpt lat="59.667403008788824" lon="8.455272987484932">
        <ele>822.55078125</ele>
        <time>2019-06-22T11:19:17Z</time>
      </trkpt>
      <trkpt lat="59.667423041537404" lon="8.455296959728003">
        <ele>822.72265625</ele>
        <time>2019-06-22T11:19:18Z</time>
      </trkpt>
      <trkpt lat="59.66765102930367" lon="8.455442972481251">
        <ele>824.09375</ele>
        <time>2019-06-22T11:19:28Z</time>
      </trkpt>
      <trkpt lat="59.66784599237144" lon="8.455446995794773">
        <ele>824.1796875</ele>
        <time>2019-06-22T11:19:37Z</time>
      </trkpt>
      <trkpt lat="59.668144974857569" lon="8.455394022166729">
        <ele>825.6953125</ele>
        <time>2019-06-22T11:19:48Z</time>
      </trkpt>
      <trkpt lat="59.668234996497631" lon="8.455345993861556">
        <ele>826.84765625</ele>
        <time>2019-06-22T11:19:51Z</time>
      </trkpt>
      <trkpt lat="59.668472036719322" lon="8.455240968614817">
        <ele>828.3203125</ele>
        <time>2019-06-22T11:20:00Z</time>
      </trkpt>
      <trkpt lat="59.668521992862225" lon="8.455241974443197">
        <ele>828.6328125</ele>
        <time>2019-06-22T11:20:02Z</time>
      </trkpt>
      <trkpt lat="59.668574966490269" lon="8.455241974443197">
        <ele>828.953125</ele>
        <time>2019-06-22T11:20:04Z</time>
      </trkpt>
      <trkpt lat="59.668629029765725" lon="8.455215990543366">
        <ele>829.125</ele>
        <time>2019-06-22T11:20:06Z</time>
      </trkpt>
      <trkpt lat="59.668893981724977" lon="8.455215990543366">
        <ele>831.52734375</ele>
        <time>2019-06-22T11:20:13Z</time>
      </trkpt>
      <trkpt lat="59.669211991131306" lon="8.455042988061905">
        <ele>835.0859375</ele>
        <time>2019-06-22T11:20:22Z</time>
      </trkpt>
      <trkpt lat="59.669471997767687" lon="8.454799996688962">
        <ele>837.44921875</ele>
        <time>2019-06-22T11:20:31Z</time>
      </trkpt>
      <trkpt lat="59.669627984985709" lon="8.454531021416187">
        <ele>838.984375</ele>
        <time>2019-06-22T11:20:38Z</time>
      </trkpt>
      <trkpt lat="59.669750025495887" lon="8.454278977587819">
        <ele>839.38671875</ele>
        <time>2019-06-22T11:20:43Z</time>
      </trkpt>
      <trkpt lat="59.66990701854229" lon="8.454180993139744">
        <ele>839.73828125</ele>
        <time>2019-06-22T11:20:50Z</time>
      </trkpt>
      <trkpt lat="59.670117991045117" lon="8.453905982896686">
        <ele>840.01171875</ele>
        <time>2019-06-22T11:20:58Z</time>
      </trkpt>
      <trkpt lat="59.670213963836432" lon="8.453869018703699">
        <ele>840.01171875</ele>
        <time>2019-06-22T11:21:02Z</time>
      </trkpt>
      <trkpt lat="59.670448992401361" lon="8.45387002453208">
        <ele>839.77734375</ele>
        <time>2019-06-22T11:21:11Z</time>
      </trkpt>
      <trkpt lat="59.670669017359614" lon="8.453912017866969">
        <ele>839.50390625</ele>
        <time>2019-06-22T11:21:19Z</time>
      </trkpt>
      <trkpt lat="59.670829027891159" lon="8.453781008720398">
        <ele>839.18359375</ele>
        <time>2019-06-22T11:21:26Z</time>
      </trkpt>
      <trkpt lat="59.670906979590654" lon="8.453708002343774">
        <ele>839.09765625</ele>
        <time>2019-06-22T11:21:41Z</time>
      </trkpt>
      <trkpt lat="59.67106900177896" lon="8.45361303538084">
        <ele>839.09765625</ele>
        <time>2019-06-22T11:21:53Z</time>
      </trkpt>
      <trkpt lat="59.671179978176951" lon="8.453597025945783">
        <ele>839.09765625</ele>
        <time>2019-06-22T11:21:57Z</time>
      </trkpt>
      <trkpt lat="59.671465968713164" lon="8.453471967950463">
        <ele>839.09765625</ele>
        <time>2019-06-22T11:22:08Z</time>
      </trkpt>
      <trkpt lat="59.67166998423636" lon="8.45370096154511">
        <ele>839.09765625</ele>
        <time>2019-06-22T11:22:17Z</time>
      </trkpt>
      <trkpt lat="59.671881962567568" lon="8.454105975106359">
        <ele>839.09765625</ele>
        <time>2019-06-22T11:22:26Z</time>
      </trkpt>
      <trkpt lat="59.672111039981246" lon="8.454331029206514">
        <ele>839.1796875</ele>
        <time>2019-06-22T11:22:35Z</time>
      </trkpt>
      <trkpt lat="59.672294016927481" lon="8.454513000324369">
        <ele>839.8203125</ele>
        <time>2019-06-22T11:22:42Z</time>
      </trkpt>
      <trkpt lat="59.672500966116786" lon="8.454486010596156">
        <ele>839.73046875</ele>
        <time>2019-06-22T11:22:50Z</time>
      </trkpt>
      <trkpt lat="59.672686960548162" lon="8.45442901365459">
        <ele>839.71875</ele>
        <time>2019-06-22T11:22:57Z</time>
      </trkpt>
      <trkpt lat="59.672908997163177" lon="8.453958034515381">
        <ele>839.62109375</ele>
        <time>2019-06-22T11:23:08Z</time>
      </trkpt>
      <trkpt lat="59.673101026564837" lon="8.453556038439274">
        <ele>840.04296875</ele>
        <time>2019-06-22T11:23:19Z</time>
      </trkpt>
      <trkpt lat="59.673294983804226" lon="8.453150019049645">
        <ele>840.69921875</ele>
        <time>2019-06-22T11:23:30Z</time>
      </trkpt>
      <trkpt lat="59.673486007377505" lon="8.452792027965188">
        <ele>840.92578125</ele>
        <time>2019-06-22T11:23:42Z</time>
      </trkpt>
      <trkpt lat="59.673650041222572" lon="8.452586000785232">
        <ele>840.92578125</ele>
        <time>2019-06-22T11:23:50Z</time>
      </trkpt>
      <trkpt lat="59.673679964616895" lon="8.452580971643329">
        <ele>840.92578125</ele>
        <time>2019-06-22T11:23:51Z</time>
      </trkpt>
      <trkpt lat="59.673963021486998" lon="8.452650038525462">
        <ele>840.92578125</ele>
        <time>2019-06-22T11:24:01Z</time>
      </trkpt>
      <trkpt lat="59.674194026738405" lon="8.452315013855696">
        <ele>841.00390625</ele>
        <time>2019-06-22T11:24:13Z</time>
      </trkpt>
      <trkpt lat="59.674414973706007" lon="8.451865995302796">
        <ele>841.5234375</ele>
        <time>2019-06-22T11:24:26Z</time>
      </trkpt>
      <trkpt lat="59.674554029479623" lon="8.451541028916836">
        <ele>841.80859375</ele>
        <time>2019-06-22T11:24:35Z</time>
      </trkpt>
      <trkpt lat="59.67478503473103" lon="8.451253026723862">
        <ele>841.87890625</ele>
        <time>2019-06-22T11:24:47Z</time>
      </trkpt>
      <trkpt lat="59.674919983372092" lon="8.451098967343569">
        <ele>842.18359375</ele>
        <time>2019-06-22T11:25:01Z</time>
      </trkpt>
      <trkpt lat="59.675017967820168" lon="8.450950020924211">
        <ele>842.4921875</ele>
        <time>2019-06-22T11:25:14Z</time>
      </trkpt>
      <trkpt lat="59.675034983083606" lon="8.45092898234725">
        <ele>842.62109375</ele>
        <time>2019-06-22T11:25:17Z</time>
      </trkpt>
      <trkpt lat="59.675188958644867" lon="8.450693031772971">
        <ele>844.3359375</ele>
        <time>2019-06-22T11:25:35Z</time>
      </trkpt>
      <trkpt lat="59.675205973908305" lon="8.450675010681152">
        <ele>844.50390625</ele>
        <time>2019-06-22T11:25:43Z</time>
      </trkpt>
      <trkpt lat="59.675259031355381" lon="8.450755979865789">
        <ele>844.3671875</ele>
        <time>2019-06-22T11:25:55Z</time>
      </trkpt>
      <trkpt lat="59.675222989171743" lon="8.450675010681152">
        <ele>844.578125</ele>
        <time>2019-06-22T11:26:28Z</time>
      </trkpt>
      <trkpt lat="59.675230029970407" lon="8.450650032609701">
        <ele>844.75</ele>
        <time>2019-06-22T11:27:11Z</time>
      </trkpt>
      <trkpt lat="59.675502022728324" lon="8.450327999889851">
        <ele>846.00390625</ele>
        <time>2019-06-22T11:27:21Z</time>
      </trkpt>
      <trkpt lat="59.675790024921298" lon="8.449955005198717">
        <ele>846.90234375</ele>
        <time>2019-06-22T11:27:31Z</time>
      </trkpt>
      <trkpt lat="59.676022036001086" lon="8.449702039361">
        <ele>848.1484375</ele>
        <time>2019-06-22T11:27:40Z</time>
      </trkpt>
      <trkpt lat="59.676271984353662" lon="8.449487965553999">
        <ele>848.98828125</ele>
        <time>2019-06-22T11:27:49Z</time>
      </trkpt>
      <trkpt lat="59.67646200209856" lon="8.449329966679215">
        <ele>849.3515625</ele>
        <time>2019-06-22T11:27:56Z</time>
      </trkpt>
      <trkpt lat="59.676764002069831" lon="8.44916601665318">
        <ele>850.26171875</ele>
        <time>2019-06-22T11:28:07Z</time>
      </trkpt>
      <trkpt lat="59.676815969869494" lon="8.449127962812781">
        <ele>850.37109375</ele>
        <time>2019-06-22T11:28:09Z</time>
      </trkpt>
      <trkpt lat="59.676966005936265" lon="8.449056968092918">
        <ele>850.51953125</ele>
        <time>2019-06-22T11:28:14Z</time>
      </trkpt>
      <trkpt lat="59.677401026710868" lon="8.44903701916337">
        <ele>848.66015625</ele>
        <time>2019-06-22T11:28:28Z</time>
      </trkpt>
      <trkpt lat="59.677674025297165" lon="8.448898969218135">
        <ele>847.59765625</ele>
        <time>2019-06-22T11:28:37Z</time>
      </trkpt>
      <trkpt lat="59.677876029163599" lon="8.448878014460206">
        <ele>845.80078125</ele>
        <time>2019-06-22T11:28:45Z</time>
      </trkpt>
      <trkpt lat="59.678036039695144" lon="8.449006006121635">
        <ele>843.57421875</ele>
        <time>2019-06-22T11:28:51Z</time>
      </trkpt>
      <trkpt lat="59.678269978612661" lon="8.449319992214441">
        <ele>841.61328125</ele>
        <time>2019-06-22T11:29:01Z</time>
      </trkpt>
      <trkpt lat="59.678412973880768" lon="8.44948897138238">
        <ele>841.171875</ele>
        <time>2019-06-22T11:29:09Z</time>
      </trkpt>
      <trkpt lat="59.678414985537529" lon="8.449490983039141">
        <ele>841.171875</ele>
        <time>2019-06-22T11:29:16Z</time>
      </trkpt>
      <trkpt lat="59.678534008562565" lon="8.449592990800738">
        <ele>841.03125</ele>
        <time>2019-06-22T11:29:21Z</time>
      </trkpt>
      <trkpt lat="59.678635010495782" lon="8.44961796887219">
        <ele>840.9296875</ele>
        <time>2019-06-22T11:29:25Z</time>
      </trkpt>
      <trkpt lat="59.678884958848357" lon="8.449654011055827">
        <ele>840.92578125</ele>
        <time>2019-06-22T11:29:34Z</time>
      </trkpt>
      <trkpt lat="59.678914966061711" lon="8.449671026319265">
        <ele>840.92578125</ele>
        <time>2019-06-22T11:29:35Z</time>
      </trkpt>
      <trkpt lat="59.679204979911447" lon="8.449507998302579">
        <ele>841.0703125</ele>
        <time>2019-06-22T11:29:46Z</time>
      </trkpt>
      <trkpt lat="59.679332971572876" lon="8.449361985549331">
        <ele>841.390625</ele>
        <time>2019-06-22T11:29:54Z</time>
      </trkpt>
      <trkpt lat="59.679508991539478" lon="8.444491010159254">
        <ele>861.18359375</ele>
        <time>2019-06-22T11:37:19Z</time>
      </trkpt>
      <trkpt lat="59.679509997367859" lon="8.444473994895816">
        <ele>861.203125</ele>
        <time>2019-06-22T11:37:28Z</time>
      </trkpt>
      <trkpt lat="59.679609993472695" lon="8.444012990221381">
        <ele>863.828125</ele>
        <time>2019-06-22T11:37:39Z</time>
      </trkpt>
      <trkpt lat="59.679629020392895" lon="8.443700009956956">
        <ele>865.30859375</ele>
        <time>2019-06-22T11:37:46Z</time>
      </trkpt>
      <trkpt lat="59.679638994857669" lon="8.443399015814066">
        <ele>864.69140625</ele>
        <time>2019-06-22T11:37:54Z</time>
      </trkpt>
      <trkpt lat="59.679704960435629" lon="8.443078994750977">
        <ele>863.6953125</ele>
        <time>2019-06-22T11:38:02Z</time>
      </trkpt>
      <trkpt lat="59.679748965427279" lon="8.44293499365449">
        <ele>863.3359375</ele>
        <time>2019-06-22T11:38:18Z</time>
      </trkpt>
      <trkpt lat="59.67996496707201" lon="8.442580020055175">
        <ele>867.9765625</ele>
        <time>2019-06-22T11:38:28Z</time>
      </trkpt>
      <trkpt lat="59.680086001753807" lon="8.442304003983736">
        <ele>868.640625</ele>
        <time>2019-06-22T11:38:37Z</time>
      </trkpt>
      <trkpt lat="59.680122965946794" lon="8.442176012322307">
        <ele>868.0078125</ele>
        <time>2019-06-22T11:38:41Z</time>
      </trkpt>
      <trkpt lat="59.680178035050631" lon="8.441907959058881">
        <ele>866.1875</ele>
        <time>2019-06-22T11:38:50Z</time>
      </trkpt>
      <trkpt lat="59.680213993415236" lon="8.441859008744359">
        <ele>866.27734375</ele>
        <time>2019-06-22T11:39:10Z</time>
      </trkpt>
      <trkpt lat="59.680338967591524" lon="8.441600007936359">
        <ele>870.00390625</ele>
        <time>2019-06-22T11:39:50Z</time>
      </trkpt>
      <trkpt lat="59.680483974516392" lon="8.441365985199809">
        <ele>872.79296875</ele>
        <time>2019-06-22T11:39:58Z</time>
      </trkpt>
      <trkpt lat="59.680638033896685" lon="8.441075971350074">
        <ele>873.2265625</ele>
        <time>2019-06-22T11:40:07Z</time>
      </trkpt>
      <trkpt lat="59.680739035829902" lon="8.440816970542073">
        <ele>873.4140625</ele>
        <time>2019-06-22T11:40:15Z</time>
      </trkpt>
      <trkpt lat="59.680927963927388" lon="8.440029993653297">
        <ele>878.10546875</ele>
        <time>2019-06-22T11:47:10Z</time>
      </trkpt>
      <trkpt lat="59.680918995290995" lon="8.439850034192205">
        <ele>877.98828125</ele>
        <time>2019-06-22T11:47:19Z</time>
      </trkpt>
      <trkpt lat="59.680903991684318" lon="8.439621040597558">
        <ele>877.7890625</ele>
        <time>2019-06-22T11:48:03Z</time>
      </trkpt>
      <trkpt lat="59.680878007784486" lon="8.439264977350831">
        <ele>877.09765625</ele>
        <time>2019-06-22T11:48:12Z</time>
      </trkpt>
      <trkpt lat="59.680832996964455" lon="8.438886031508446">
        <ele>876.94921875</ele>
        <time>2019-06-22T11:48:22Z</time>
      </trkpt>
      <trkpt lat="59.680840037763119" lon="8.438702970743179">
        <ele>877.50390625</ele>
        <time>2019-06-22T11:48:28Z</time>
      </trkpt>
      <trkpt lat="59.680835008621216" lon="8.43859501183033">
        <ele>877.453125</ele>
        <time>2019-06-22T11:48:31Z</time>
      </trkpt>
      <trkpt lat="59.680728977546096" lon="8.438455034047365">
        <ele>876.1484375</ele>
        <time>2019-06-22T11:48:39Z</time>
      </trkpt>
      <trkpt lat="59.680636022239923" lon="8.438308015465736">
        <ele>875.65234375</ele>
        <time>2019-06-22T11:48:45Z</time>
      </trkpt>
      <trkpt lat="59.680623030290008" lon="8.438225034624338">
        <ele>875.921875</ele>
        <time>2019-06-22T11:48:47Z</time>
      </trkpt>
      <trkpt lat="59.680606015026569" lon="8.438130989670754">
        <ele>876.4296875</ele>
        <time>2019-06-22T11:48:50Z</time>
      </trkpt>
      <trkpt lat="59.680587993934751" lon="8.438051026314497">
        <ele>876.96484375</ele>
        <time>2019-06-22T11:48:53Z</time>
      </trkpt>
      <trkpt lat="59.680555975064635" lon="8.437854973599315">
        <ele>878.6875</ele>
        <time>2019-06-22T11:49:01Z</time>
      </trkpt>
      <trkpt lat="59.680405016988516" lon="8.437572000548244">
        <ele>882.28515625</ele>
        <time>2019-06-22T11:49:13Z</time>
      </trkpt>
      <trkpt lat="59.680297980085015" lon="8.4373480360955">
        <ele>886.234375</ele>
        <time>2019-06-22T11:49:21Z</time>
      </trkpt>
      <trkpt lat="59.680223967880011" lon="8.437155000865459">
        <ele>889.61328125</ele>
        <time>2019-06-22T11:49:30Z</time>
      </trkpt>
      <trkpt lat="59.680129000917077" lon="8.436946962028742">
        <ele>892.86328125</ele>
        <time>2019-06-22T11:49:38Z</time>
      </trkpt>
      <trkpt lat="59.680108968168497" lon="8.436826011165977">
        <ele>894.8671875</ele>
        <time>2019-06-22T11:49:42Z</time>
      </trkpt>
      <trkpt lat="59.679996985942125" lon="8.436690978705883">
        <ele>895.66796875</ele>
        <time>2019-06-22T11:49:52Z</time>
      </trkpt>
      <trkpt lat="59.679969996213913" lon="8.436649991199374">
        <ele>895.98046875</ele>
        <time>2019-06-22T11:49:57Z</time>
      </trkpt>
      <trkpt lat="59.679931020364165" lon="8.436528034508228">
        <ele>897.359375</ele>
        <time>2019-06-22T11:50:02Z</time>
      </trkpt>
      <trkpt lat="59.679848039522767" lon="8.436325024813414">
        <ele>899.71484375</ele>
        <time>2019-06-22T11:50:10Z</time>
      </trkpt>
      <trkpt lat="59.679815014824271" lon="8.43620901927352">
        <ele>901.15234375</ele>
        <time>2019-06-22T11:50:14Z</time>
      </trkpt>
      <trkpt lat="59.679773021489382" lon="8.43612696044147">
        <ele>901.86328125</ele>
        <time>2019-06-22T11:50:18Z</time>
      </trkpt>
      <trkpt lat="59.679714012891054" lon="8.435761006549001">
        <ele>907.62109375</ele>
        <time>2019-06-22T11:50:29Z</time>
      </trkpt>
      <trkpt lat="59.679696997627616" lon="8.435712978243828">
        <ele>908.28125</ele>
        <time>2019-06-22T11:50:31Z</time>
      </trkpt>
      <trkpt lat="59.679675037041306" lon="8.435592027381063">
        <ele>909.75</ele>
        <time>2019-06-22T11:50:35Z</time>
      </trkpt>
      <trkpt lat="59.679667996242642" lon="8.435496976599097">
        <ele>911.01953125</ele>
        <time>2019-06-22T11:50:38Z</time>
      </trkpt>
      <trkpt lat="59.679631032049656" lon="8.43537300825119">
        <ele>912.33984375</ele>
        <time>2019-06-22T11:50:46Z</time>
      </trkpt>
      <trkpt lat="59.679637989029288" lon="8.435331014916301">
        <ele>913</ele>
        <time>2019-06-22T11:50:48Z</time>
      </trkpt>
      <trkpt lat="59.679616028442979" lon="8.43520101159811">
        <ele>914.609375</ele>
        <time>2019-06-22T11:50:52Z</time>
      </trkpt>
      <trkpt lat="59.679644023999572" lon="8.434871016070247">
        <ele>919.6015625</ele>
        <time>2019-06-22T11:51:02Z</time>
      </trkpt>
      <trkpt lat="59.679722981527448" lon="8.434660965576768">
        <ele>922.0234375</ele>
        <time>2019-06-22T11:51:10Z</time>
      </trkpt>
      <trkpt lat="59.679805040359497" lon="8.434352008625865">
        <ele>925.328125</ele>
        <time>2019-06-22T11:51:19Z</time>
      </trkpt>
      <trkpt lat="59.679803028702736" lon="8.434305991977453">
        <ele>925.5703125</ele>
        <time>2019-06-22T11:51:21Z</time>
      </trkpt>
      <trkpt lat="59.679815014824271" lon="8.434216976165772">
        <ele>926.4296875</ele>
        <time>2019-06-22T11:51:25Z</time>
      </trkpt>
      <trkpt lat="59.67987603507936" lon="8.43388999812305">
        <ele>931.06640625</ele>
        <time>2019-06-22T11:51:35Z</time>
      </trkpt>
      <trkpt lat="59.679954992607236" lon="8.43369796872139">
        <ele>935.5078125</ele>
        <time>2019-06-22T11:51:44Z</time>
      </trkpt>
      <trkpt lat="59.680055994540453" lon="8.433378031477332">
        <ele>937.9296875</ele>
        <time>2019-06-22T11:51:54Z</time>
      </trkpt>
      <trkpt lat="59.680102011188865" lon="8.433155994862318">
        <ele>938.55078125</ele>
        <time>2019-06-22T11:52:04Z</time>
      </trkpt>
      <trkpt lat="59.680037973448634" lon="8.432882996276021">
        <ele>939.51171875</ele>
        <time>2019-06-22T11:52:12Z</time>
      </trkpt>
      <trkpt lat="59.680063035339117" lon="8.43255702406168">
        <ele>940.11328125</ele>
        <time>2019-06-22T11:52:21Z</time>
      </trkpt>
      <trkpt lat="59.680117014795542" lon="8.432323001325131">
        <ele>940.5703125</ele>
        <time>2019-06-22T11:52:29Z</time>
      </trkpt>
      <trkpt lat="59.680197983980179" lon="8.432183023542166">
        <ele>940.97265625</ele>
        <time>2019-06-22T11:52:36Z</time>
      </trkpt>
      <trkpt lat="59.680150961503386" lon="8.43174003995955">
        <ele>940.4765625</ele>
        <time>2019-06-22T11:52:48Z</time>
      </trkpt>
      <trkpt lat="59.680201001465321" lon="8.431538958102465">
        <ele>940.77734375</ele>
        <time>2019-06-22T11:52:54Z</time>
      </trkpt>
      <trkpt lat="59.680313989520073" lon="8.431308958679438">
        <ele>941.26953125</ele>
        <time>2019-06-22T11:53:03Z</time>
      </trkpt>
      <trkpt lat="59.680351037532091" lon="8.431115001440048">
        <ele>942.7109375</ele>
        <time>2019-06-22T11:53:12Z</time>
      </trkpt>
      <trkpt lat="59.680377021431923" lon="8.430988015606999">
        <ele>944.26171875</ele>
        <time>2019-06-22T11:53:24Z</time>
      </trkpt>
      <trkpt lat="59.680394036695361" lon="8.430895982310176">
        <ele>945.3515625</ele>
        <time>2019-06-22T11:53:42Z</time>
      </trkpt>
      <trkpt lat="59.680388001725078" lon="8.430816018953919">
        <ele>945.65625</ele>
        <time>2019-06-22T11:53:56Z</time>
      </trkpt>
      <trkpt lat="59.680454973131418" lon="8.430396001785994">
        <ele>949.9609375</ele>
        <time>2019-06-22T11:54:07Z</time>
      </trkpt>
      <trkpt lat="59.68052102252841" lon="8.429976990446448">
        <ele>953.03515625</ele>
        <time>2019-06-22T11:54:18Z</time>
      </trkpt>
      <trkpt lat="59.680581036955118" lon="8.429380031302571">
        <ele>956.20703125</ele>
        <time>2019-06-22T11:54:34Z</time>
      </trkpt>
      <trkpt lat="59.680580031126738" lon="8.429032014682889">
        <ele>957.65625</ele>
        <time>2019-06-22T11:54:46Z</time>
      </trkpt>
      <trkpt lat="59.680627975612879" lon="8.428777037188411">
        <ele>957.90625</ele>
        <time>2019-06-22T11:54:54Z</time>
      </trkpt>
      <trkpt lat="59.680717997252941" lon="8.428531028330326">
        <ele>958.984375</ele>
        <time>2019-06-22T11:55:03Z</time>
      </trkpt>
      <trkpt lat="59.680781029164791" lon="8.428187035024166">
        <ele>959.9140625</ele>
        <time>2019-06-22T11:55:13Z</time>
      </trkpt>
      <trkpt lat="59.680816987529397" lon="8.428005985915661">
        <ele>960.51953125</ele>
        <time>2019-06-22T11:55:18Z</time>
      </trkpt>
      <trkpt lat="59.680813970044255" lon="8.427756959572434">
        <ele>961.02734375</ele>
        <time>2019-06-22T11:55:25Z</time>
      </trkpt>
      <trkpt lat="59.680808018893003" lon="8.427687976509333">
        <ele>961.1328125</ele>
        <time>2019-06-22T11:55:27Z</time>
      </trkpt>
      <trkpt lat="59.680739035829902" lon="8.427352029830217">
        <ele>961.9375</ele>
        <time>2019-06-22T11:55:40Z</time>
      </trkpt>
      <trkpt lat="59.680688995867968" lon="8.427156982943416">
        <ele>963.37890625</ele>
        <time>2019-06-22T11:55:48Z</time>
      </trkpt>
      <trkpt lat="59.680658988654613" lon="8.427028991281986">
        <ele>964.73046875</ele>
        <time>2019-06-22T11:55:58Z</time>
      </trkpt>
      <trkpt lat="59.68060702085495" lon="8.426819024607539">
        <ele>967.1484375</ele>
        <time>2019-06-22T11:56:11Z</time>
      </trkpt>
      <trkpt lat="59.680673992261291" lon="8.426544014364481">
        <ele>973.0703125</ele>
        <time>2019-06-22T11:56:19Z</time>
      </trkpt>
      <trkpt lat="59.680719003081322" lon="8.426346033811569">
        <ele>976.93359375</ele>
        <time>2019-06-22T11:56:25Z</time>
      </trkpt>
      <trkpt lat="59.680751021951437" lon="8.426051996648312">
        <ele>979.86328125</ele>
        <time>2019-06-22T11:56:33Z</time>
      </trkpt>
      <trkpt lat="59.680744986981153" lon="8.425751002505422">
        <ele>982.37890625</ele>
        <time>2019-06-22T11:56:41Z</time>
      </trkpt>
      <trkpt lat="59.680774994194508" lon="8.425647988915443">
        <ele>983.5546875</ele>
        <time>2019-06-22T11:56:44Z</time>
      </trkpt>
      <trkpt lat="59.6808220166713" lon="8.425278011709452">
        <ele>985.78125</ele>
        <time>2019-06-22T11:56:57Z</time>
      </trkpt>
      <trkpt lat="59.68088798224926" lon="8.424171013757587">
        <ele>983.30859375</ele>
        <time>2019-06-22T12:04:01Z</time>
      </trkpt>
      <trkpt lat="59.680698970332742" lon="8.423925004899502">
        <ele>980.8671875</ele>
        <time>2019-06-22T12:04:15Z</time>
      </trkpt>
      <trkpt lat="59.680653037503362" lon="8.423560978844762">
        <ele>980.23828125</ele>
        <time>2019-06-22T12:04:26Z</time>
      </trkpt>
      <trkpt lat="59.680442987009883" lon="8.423116989433765">
        <ele>980.203125</ele>
        <time>2019-06-22T12:08:31Z</time>
      </trkpt>
      <trkpt lat="59.680694025009871" lon="8.422840973362327">
        <ele>980.328125</ele>
        <time>2019-06-22T12:08:44Z</time>
      </trkpt>
      <trkpt lat="59.680811036378145" lon="8.422685991972685">
        <ele>980.30859375</ele>
        <time>2019-06-22T12:08:53Z</time>
      </trkpt>
      <trkpt lat="59.680846994742751" lon="8.422624971717596">
        <ele>980.22265625</ele>
        <time>2019-06-22T12:08:58Z</time>
      </trkpt>
      <trkpt lat="59.680985966697335" lon="8.42228701338172">
        <ele>978.88671875</ele>
        <time>2019-06-22T12:09:19Z</time>
      </trkpt>
      <trkpt lat="59.680984960868955" lon="8.422259017825127">
        <ele>978.82421875</ele>
        <time>2019-06-22T12:09:28Z</time>
      </trkpt>
      <trkpt lat="59.68099401332438" lon="8.422231022268534">
        <ele>978.71484375</ele>
        <time>2019-06-22T12:09:46Z</time>
      </trkpt>
      <trkpt lat="59.681007005274296" lon="8.422220963984728">
        <ele>978.63671875</ele>
        <time>2019-06-22T12:10:29Z</time>
      </trkpt>
      <trkpt lat="59.681000970304012" lon="8.422216018661857">
        <ele>978.65234375</ele>
        <time>2019-06-22T12:10:58Z</time>
      </trkpt>
      <trkpt lat="59.680988984182477" lon="8.422208977863193">
        <ele>978.6875</ele>
        <time>2019-06-22T12:11:36Z</time>
      </trkpt>
      <trkpt lat="59.681064002215862" lon="8.422044022008777">
        <ele>978.24609375</ele>
        <time>2019-06-22T12:12:34Z</time>
      </trkpt>
      <trkpt lat="59.681142037734389" lon="8.421774040907621">
        <ele>978.07421875</ele>
        <time>2019-06-22T12:12:41Z</time>
      </trkpt>
      <trkpt lat="59.681203979998827" lon="8.42153599485755">
        <ele>977.99609375</ele>
        <time>2019-06-22T12:12:47Z</time>
      </trkpt>
      <trkpt lat="59.68133800663054" lon="8.421354023739696">
        <ele>977.9921875</ele>
        <time>2019-06-22T12:12:55Z</time>
      </trkpt>
      <trkpt lat="59.681407995522022" lon="8.42134497128427">
        <ele>978.3203125</ele>
        <time>2019-06-22T12:13:00Z</time>
      </trkpt>
      <trkpt lat="59.68161603435874" lon="8.421211028471589">
        <ele>984.28515625</ele>
        <time>2019-06-22T12:13:11Z</time>
      </trkpt>
      <trkpt lat="59.681663978844881" lon="8.420426985248923">
        <ele>983.3203125</ele>
        <time>2019-06-22T12:18:10Z</time>
      </trkpt>
      <trkpt lat="59.681635983288288" lon="8.420318020507693">
        <ele>981.984375</ele>
        <time>2019-06-22T12:18:12Z</time>
      </trkpt>
      <trkpt lat="59.681626008823514" lon="8.420273009687662">
        <ele>981.484375</ele>
        <time>2019-06-22T12:18:14Z</time>
      </trkpt>
      <trkpt lat="59.681568006053567" lon="8.4200119972229">
        <ele>981.06640625</ele>
        <time>2019-06-22T12:18:23Z</time>
      </trkpt>
      <trkpt lat="59.681612011045218" lon="8.419783003628254">
        <ele>986.26953125</ele>
        <time>2019-06-22T12:18:31Z</time>
      </trkpt>
      <trkpt lat="59.681630032137036" lon="8.419544035568833">
        <ele>988.703125</ele>
        <time>2019-06-22T12:18:39Z</time>
      </trkpt>
      <trkpt lat="59.681559037417173" lon="8.419353011995554">
        <ele>985.09765625</ele>
        <time>2019-06-22T12:18:48Z</time>
      </trkpt>
      <trkpt lat="59.681519977748394" lon="8.419072972610593">
        <ele>983.06640625</ele>
        <time>2019-06-22T12:18:57Z</time>
      </trkpt>
      <trkpt lat="59.681535987183452" lon="8.418827969580889">
        <ele>987.66015625</ele>
        <time>2019-06-22T12:19:04Z</time>
      </trkpt>
      <trkpt lat="59.681513020768762" lon="8.418540973216295">
        <ele>989.33984375</ele>
        <time>2019-06-22T12:19:14Z</time>
      </trkpt>
      <trkpt lat="59.681535987183452" lon="8.418274009600282">
        <ele>992.109375</ele>
        <time>2019-06-22T12:19:22Z</time>
      </trkpt>
      <trkpt lat="59.681559959426522" lon="8.417845023795962">
        <ele>990.1640625</ele>
        <time>2019-06-22T12:19:32Z</time>
      </trkpt>
      <trkpt lat="59.681531963869929" lon="8.417587028816342">
        <ele>984.75390625</ele>
        <time>2019-06-22T12:19:39Z</time>
      </trkpt>
      <trkpt lat="59.681572029367089" lon="8.417197018861771">
        <ele>981.15234375</ele>
        <time>2019-06-22T12:19:48Z</time>
      </trkpt>
      <trkpt lat="59.681621985509992" lon="8.416948998346925">
        <ele>981.83203125</ele>
        <time>2019-06-22T12:19:55Z</time>
      </trkpt>
      <trkpt lat="59.681713012978435" lon="8.416715981438756">
        <ele>984.74609375</ele>
        <time>2019-06-22T12:20:04Z</time>
      </trkpt>
      <trkpt lat="59.681688034906983" lon="8.4164650272578">
        <ele>979.04296875</ele>
        <time>2019-06-22T12:20:11Z</time>
      </trkpt>
      <trkpt lat="59.681758023798466" lon="8.41618599370122">
        <ele>976.70703125</ele>
        <time>2019-06-22T12:20:20Z</time>
      </trkpt>
      <trkpt lat="59.681915016844869" lon="8.415980972349644">
        <ele>979.48046875</ele>
        <time>2019-06-22T12:20:32Z</time>
      </trkpt>
      <trkpt lat="59.68204602599144" lon="8.415816016495228">
        <ele>982.12109375</ele>
        <time>2019-06-22T12:20:47Z</time>
      </trkpt>
      <trkpt lat="59.6821119915694" lon="8.415772011503577">
        <ele>984.19140625</ele>
        <time>2019-06-22T12:20:52Z</time>
      </trkpt>
      <trkpt lat="59.682153984904289" lon="8.415794977918267">
        <ele>986.859375</ele>
        <time>2019-06-22T12:20:55Z</time>
      </trkpt>
      <trkpt lat="59.682268984615803" lon="8.41554201208055">
        <ele>983.01171875</ele>
        <time>2019-06-22T12:21:08Z</time>
      </trkpt>
      <trkpt lat="59.68235095962882" lon="8.415336990728974">
        <ele>980.16015625</ele>
        <time>2019-06-22T12:21:17Z</time>
      </trkpt>
      <trkpt lat="59.682381972670555" lon="8.415164994075894">
        <ele>978.15234375</ele>
        <time>2019-06-22T12:21:25Z</time>
      </trkpt>
      <trkpt lat="59.682432012632489" lon="8.415121994912624">
        <ele>980.09375</ele>
        <time>2019-06-22T12:21:30Z</time>
      </trkpt>
      <trkpt lat="59.682464031502604" lon="8.41509098187089">
        <ele>981.22265625</ele>
        <time>2019-06-22T12:21:34Z</time>
      </trkpt>
      <trkpt lat="59.682532008737326" lon="8.415113026276231">
        <ele>984.94921875</ele>
        <time>2019-06-22T12:21:40Z</time>
      </trkpt>
      <trkpt lat="59.68262798152864" lon="8.415164994075894">
        <ele>989.85546875</ele>
        <time>2019-06-22T12:21:45Z</time>
      </trkpt>
      <trkpt lat="59.682822022587061" lon="8.415298014879227">
        <ele>998.52734375</ele>
        <time>2019-06-22T12:21:54Z</time>
      </trkpt>
      <trkpt lat="59.682967029511929" lon="8.415261972695589">
        <ele>1000.84375</ele>
        <time>2019-06-22T12:22:05Z</time>
      </trkpt>
      <trkpt lat="59.68305797316134" lon="8.415227020159364">
        <ele>1001.56640625</ele>
        <time>2019-06-22T12:22:12Z</time>
      </trkpt>
      <trkpt lat="59.683139026165009" lon="8.415167005732656">
        <ele>1001.1015625</ele>
        <time>2019-06-22T12:22:17Z</time>
      </trkpt>
      <trkpt lat="59.683262994512916" lon="8.415173962712288">
        <ele>1003.19140625</ele>
        <time>2019-06-22T12:22:25Z</time>
      </trkpt>
      <trkpt lat="59.683209015056491" lon="8.415077989920974">
        <ele>1000.12109375</ele>
        <time>2019-06-22T12:22:41Z</time>
      </trkpt>
      <trkpt lat="59.683203985914588" lon="8.415077989920974">
        <ele>1000.046875</ele>
        <time>2019-06-22T12:22:51Z</time>
      </trkpt>
      <trkpt lat="59.683285038918257" lon="8.415238000452519">
        <ele>1005.3046875</ele>
        <time>2019-06-22T12:22:59Z</time>
      </trkpt>
      <trkpt lat="59.683291995897889" lon="8.415235988795757">
        <ele>1005.3515625</ele>
        <time>2019-06-22T12:23:00Z</time>
      </trkpt>
      <trkpt lat="59.683299958705902" lon="8.415225008502603">
        <ele>1005.16796875</ele>
        <time>2019-06-22T12:23:01Z</time>
      </trkpt>
      <trkpt lat="59.683318985626101" lon="8.415211010724306">
        <ele>1005.0703125</ele>
        <time>2019-06-22T12:23:03Z</time>
      </trkpt>
      <trkpt lat="59.68335896730423" lon="8.415320981293917">
        <ele>1008.6953125</ele>
        <time>2019-06-22T12:23:14Z</time>
      </trkpt>
      <trkpt lat="59.683435996994376" lon="8.41541301459074">
        <ele>1012.33984375</ele>
        <time>2019-06-22T12:23:25Z</time>
      </trkpt>
      <trkpt lat="59.683496011421084" lon="8.415440004318953">
        <ele>1013.796875</ele>
        <time>2019-06-22T12:23:29Z</time>
      </trkpt>
      <trkpt lat="59.683521995320916" lon="8.415601020678878">
        <ele>1016.99609375</ele>
        <time>2019-06-22T12:23:38Z</time>
      </trkpt>
      <trkpt lat="59.683561976999044" lon="8.415679978206754">
        <ele>1018.953125</ele>
        <time>2019-06-22T12:23:46Z</time>
      </trkpt>
      <trkpt lat="59.683586033061147" lon="8.415720965713263">
        <ele>1020.03515625</ele>
        <time>2019-06-22T12:23:52Z</time>
      </trkpt>
      <trkpt lat="59.683659039437771" lon="8.415388958528638">
        <ele>1015</ele>
        <time>2019-06-22T12:24:06Z</time>
      </trkpt>
      <trkpt lat="59.683806980028749" lon="8.415231965482235">
        <ele>1013.953125</ele>
        <time>2019-06-22T12:24:20Z</time>
      </trkpt>
      <trkpt lat="59.683846961706877" lon="8.415159964933991">
        <ele>1013.359375</ele>
        <time>2019-06-22T12:24:27Z</time>
      </trkpt>
      <trkpt lat="59.6839389950037" lon="8.415017975494266">
        <ele>1011.296875</ele>
        <time>2019-06-22T12:24:34Z</time>
      </trkpt>
      <trkpt lat="59.683977970853448" lon="8.414812032133341">
        <ele>1007.00390625</ele>
        <time>2019-06-22T12:24:41Z</time>
      </trkpt>
      <trkpt lat="59.684003032743931" lon="8.414735002443194">
        <ele>1005.765625</ele>
        <time>2019-06-22T12:24:46Z</time>
      </trkpt>
      <trkpt lat="59.684055000543594" lon="8.414493016898632">
        <ele>1002.7734375</ele>
        <time>2019-06-22T12:24:54Z</time>
      </trkpt>
      <trkpt lat="59.684100011363626" lon="8.414217000827193">
        <ele>1000.0390625</ele>
        <time>2019-06-22T12:25:04Z</time>
      </trkpt>
      <trkpt lat="59.684096993878484" lon="8.414108036085963">
        <ele>997.78515625</ele>
        <time>2019-06-22T12:25:08Z</time>
      </trkpt>
      <trkpt lat="59.684138987213373" lon="8.414010973647237">
        <ele>997.5078125</ele>
        <time>2019-06-22T12:25:12Z</time>
      </trkpt>
      <trkpt lat="59.684147033840418" lon="8.413976021111012">
        <ele>997.28125</ele>
        <time>2019-06-22T12:25:15Z</time>
      </trkpt>
      <trkpt lat="59.684203024953604" lon="8.41378097422421">
        <ele>995.9453125</ele>
        <time>2019-06-22T12:25:23Z</time>
      </trkpt>
      <trkpt lat="59.684310983866453" lon="8.413545023649931">
        <ele>994.75390625</ele>
        <time>2019-06-22T12:25:33Z</time>
      </trkpt>
      <trkpt lat="59.684317018836737" lon="8.413508981466293">
        <ele>994.43359375</ele>
        <time>2019-06-22T12:25:34Z</time>
      </trkpt>
      <trkpt lat="59.684332022443414" lon="8.413381995633245">
        <ele>993.1015625</ele>
        <time>2019-06-22T12:25:42Z</time>
      </trkpt>
      <trkpt lat="59.684374015778303" lon="8.413334973156452">
        <ele>993.5078125</ele>
        <time>2019-06-22T12:25:45Z</time>
      </trkpt>
      <trkpt lat="59.684442998841405" lon="8.413272025063634">
        <ele>994.53515625</ele>
        <time>2019-06-22T12:25:49Z</time>
      </trkpt>
      <trkpt lat="59.684541989117861" lon="8.413021992892027">
        <ele>995.21875</ele>
        <time>2019-06-22T12:25:57Z</time>
      </trkpt>
      <trkpt lat="59.684595968574286" lon="8.412819989025593">
        <ele>995.30859375</ele>
        <time>2019-06-22T12:26:03Z</time>
      </trkpt>
      <trkpt lat="59.684565039351583" lon="8.412590995430946">
        <ele>992.82421875</ele>
        <time>2019-06-22T12:26:11Z</time>
      </trkpt>
      <trkpt lat="59.684578031301498" lon="8.412248007953167">
        <ele>988.94921875</ele>
        <time>2019-06-22T12:26:25Z</time>
      </trkpt>
      <trkpt lat="59.68458398245275" lon="8.41199797578156">
        <ele>985.37890625</ele>
        <time>2019-06-22T12:26:35Z</time>
      </trkpt>
      <trkpt lat="59.684620024636388" lon="8.411845006048679">
        <ele>985.140625</ele>
        <time>2019-06-22T12:26:43Z</time>
      </trkpt>
      <trkpt lat="59.684525979682803" lon="8.411639984697104">
        <ele>977.43359375</ele>
        <time>2019-06-22T12:26:53Z</time>
      </trkpt>
      <trkpt lat="59.684569984674454" lon="8.411528002470732">
        <ele>978.296875</ele>
        <time>2019-06-22T12:26:58Z</time>
      </trkpt>
      <trkpt lat="59.684780035167933" lon="8.411210998892784">
        <ele>982.46484375</ele>
        <time>2019-06-22T12:27:12Z</time>
      </trkpt>
      <trkpt lat="59.684895034879446" lon="8.410968007519841">
        <ele>980.859375</ele>
        <time>2019-06-22T12:27:20Z</time>
      </trkpt>
      <trkpt lat="59.684949014335871" lon="8.410689979791641">
        <ele>976.12109375</ele>
        <time>2019-06-22T12:27:28Z</time>
      </trkpt>
      <trkpt lat="59.685092009603977" lon="8.410455035045743">
        <ele>975.32421875</ele>
        <time>2019-06-22T12:27:38Z</time>
      </trkpt>
      <trkpt lat="59.685220001265407" lon="8.410263005644083">
        <ele>974.49609375</ele>
        <time>2019-06-22T12:27:47Z</time>
      </trkpt>
      <trkpt lat="59.685337012633681" lon="8.41002001427114">
        <ele>974.3359375</ele>
        <time>2019-06-22T12:27:56Z</time>
      </trkpt>
      <trkpt lat="59.685380011796951" lon="8.409958994016051">
        <ele>975.23046875</ele>
        <time>2019-06-22T12:28:00Z</time>
      </trkpt>
      <trkpt lat="59.685456035658717" lon="8.409875007346273">
        <ele>977.125</ele>
        <time>2019-06-22T12:28:06Z</time>
      </trkpt>
      <trkpt lat="59.68552996404469" lon="8.409735029563308">
        <ele>978.3125</ele>
        <time>2019-06-22T12:28:14Z</time>
      </trkpt>
      <trkpt lat="59.685545973479748" lon="8.409688007086515">
        <ele>978.4140625</ele>
        <time>2019-06-22T12:28:16Z</time>
      </trkpt>
      <trkpt lat="59.68556902371347" lon="8.409414002671838">
        <ele>975.3359375</ele>
        <time>2019-06-22T12:28:26Z</time>
      </trkpt>
      <trkpt lat="59.68567899428308" lon="8.409189032390714">
        <ele>974.59765625</ele>
        <time>2019-06-22T12:28:35Z</time>
      </trkpt>
      <trkpt lat="59.685703972354531" lon="8.409047964960337">
        <ele>973.0703125</ele>
        <time>2019-06-22T12:28:41Z</time>
      </trkpt>
      <trkpt lat="59.685820983722806" lon="8.408781001344323">
        <ele>972.06640625</ele>
        <time>2019-06-22T12:28:54Z</time>
      </trkpt>
      <trkpt lat="59.685859037563205" lon="8.408531975001097">
        <ele>969.16015625</ele>
        <time>2019-06-22T12:29:04Z</time>
      </trkpt>
      <trkpt lat="59.685843028128147" lon="8.408486964181066">
        <ele>967.90234375</ele>
        <time>2019-06-22T12:29:13Z</time>
      </trkpt>
      <trkpt lat="59.685909999534488" lon="8.408243972808123">
        <ele>966.4140625</ele>
        <time>2019-06-22T12:29:25Z</time>
      </trkpt>
      <trkpt lat="59.685928020626307" lon="8.408254031091929">
        <ele>967.18359375</ele>
        <time>2019-06-22T12:29:27Z</time>
      </trkpt>
      <trkpt lat="59.68597998842597" lon="8.408121010288596">
        <ele>967.30078125</ele>
        <time>2019-06-22T12:29:32Z</time>
      </trkpt>
      <trkpt lat="59.686181992292404" lon="8.407781962305307">
        <ele>972.53515625</ele>
        <time>2019-06-22T12:29:46Z</time>
      </trkpt>
      <trkpt lat="59.686273019760847" lon="8.407582975924015">
        <ele>973.56640625</ele>
        <time>2019-06-22T12:29:56Z</time>
      </trkpt>
      <trkpt lat="59.686315013095737" lon="8.407539976760745">
        <ele>974.25</ele>
        <time>2019-06-22T12:30:03Z</time>
      </trkpt>
      <trkpt lat="59.686356000602245" lon="8.40748499147594">
        <ele>974.69921875</ele>
        <time>2019-06-22T12:30:11Z</time>
      </trkpt>
      <trkpt lat="59.686348959803581" lon="8.40735699981451">
        <ele>972.6171875</ele>
        <time>2019-06-22T12:30:15Z</time>
      </trkpt>
      <trkpt lat="59.686334962025285" lon="8.40726999565959">
        <ele>971.0859375</ele>
        <time>2019-06-22T12:30:19Z</time>
      </trkpt>
      <trkpt lat="59.686333034187555" lon="8.407325986772776">
        <ele>971.75</ele>
        <time>2019-06-22T12:30:34Z</time>
      </trkpt>
      <trkpt lat="59.686334040015936" lon="8.407323975116015">
        <ele>971.75390625</ele>
        <time>2019-06-22T12:30:35Z</time>
      </trkpt>
      <trkpt lat="59.686386007815599" lon="8.407325986772776">
        <ele>973.30859375</ele>
        <time>2019-06-22T12:30:38Z</time>
      </trkpt>
      <trkpt lat="59.686517016962171" lon="8.407321963459253">
        <ele>976.2265625</ele>
        <time>2019-06-22T12:30:45Z</time>
      </trkpt>
      <trkpt lat="59.686604021117091" lon="8.407182991504669">
        <ele>976.33984375</ele>
        <time>2019-06-22T12:30:53Z</time>
      </trkpt>
      <trkpt lat="59.686762019991875" lon="8.407080983743072">
        <ele>978.28515625</ele>
        <time>2019-06-22T12:31:10Z</time>
      </trkpt>
      <trkpt lat="59.686762019991875" lon="8.407019963487983">
        <ele>977.98828125</ele>
        <time>2019-06-22T12:31:12Z</time>
      </trkpt>
      <trkpt lat="59.686815999448299" lon="8.406640011817217">
        <ele>978.3125</ele>
        <time>2019-06-22T12:31:24Z</time>
      </trkpt>
      <trkpt lat="59.686784986406565" lon="8.406203985214233">
        <ele>974.45703125</ele>
        <time>2019-06-22T12:31:40Z</time>
      </trkpt>
      <trkpt lat="59.686768976971507" lon="8.406179007142782">
        <ele>973.875</ele>
        <time>2019-06-22T12:31:42Z</time>
      </trkpt>
      <trkpt lat="59.686638973653316" lon="8.406021008267999">
        <ele>969.18359375</ele>
        <time>2019-06-22T12:31:50Z</time>
      </trkpt>
      <trkpt lat="59.686620030552149" lon="8.405940961092711">
        <ele>968.15625</ele>
        <time>2019-06-22T12:31:52Z</time>
      </trkpt>
      <trkpt lat="59.68647301197052" lon="8.405709033831954">
        <ele>962.5390625</ele>
        <time>2019-06-22T12:32:00Z</time>
      </trkpt>
      <trkpt lat="59.686448033899069" lon="8.405695036053658">
        <ele>961.7890625</ele>
        <time>2019-06-22T12:32:02Z</time>
      </trkpt>
      <trkpt lat="59.686343008652329" lon="8.405650025233626">
        <ele>959.0625</ele>
        <time>2019-06-22T12:32:09Z</time>
      </trkpt>
      <trkpt lat="59.686305038630962" lon="8.405594034120441">
        <ele>958.14453125</ele>
        <time>2019-06-22T12:32:13Z</time>
      </trkpt>
      <trkpt lat="59.686276037245989" lon="8.405539970844984">
        <ele>957.4453125</ele>
        <time>2019-06-22T12:32:16Z</time>
      </trkpt>
      <trkpt lat="59.686264973133802" lon="8.405517004430294">
        <ele>957.17578125</ele>
        <time>2019-06-22T12:32:17Z</time>
      </trkpt>
      <trkpt lat="59.686264973133802" lon="8.405465036630631">
        <ele>957.17578125</ele>
        <time>2019-06-22T12:32:19Z</time>
      </trkpt>
      <trkpt lat="59.686260027810931" lon="8.40538096614182">
        <ele>956.9921875</ele>
        <time>2019-06-22T12:32:24Z</time>
      </trkpt>
      <trkpt lat="59.686242006719112" lon="8.405115008354187">
        <ele>956.8359375</ele>
        <time>2019-06-22T12:32:37Z</time>
      </trkpt>
      <trkpt lat="59.686244018375874" lon="8.405120959505439">
        <ele>956.80859375</ele>
        <time>2019-06-22T12:32:50Z</time>
      </trkpt>
      <trkpt lat="59.686143016442657" lon="8.404824994504452">
        <ele>959.3046875</ele>
        <time>2019-06-22T12:33:01Z</time>
      </trkpt>
      <trkpt lat="59.686091970652342" lon="8.404629025608301">
        <ele>962.9296875</ele>
        <time>2019-06-22T12:33:07Z</time>
      </trkpt>
      <trkpt lat="59.686093982309103" lon="8.404596000909805">
        <ele>963.23828125</ele>
        <time>2019-06-22T12:33:08Z</time>
      </trkpt>
      <trkpt lat="59.686094988137484" lon="8.404536992311478">
        <ele>963.2109375</ele>
        <time>2019-06-22T12:33:10Z</time>
      </trkpt>
      <trkpt lat="59.686027010902762" lon="8.404349992051721">
        <ele>964.9296875</ele>
        <time>2019-06-22T12:33:18Z</time>
      </trkpt>
      <trkpt lat="59.686021981760859" lon="8.404331970959902">
        <ele>965.0546875</ele>
        <time>2019-06-22T12:33:21Z</time>
      </trkpt>
      <trkpt lat="59.686012007296085" lon="8.404282014816999">
        <ele>965.515625</ele>
        <time>2019-06-22T12:33:40Z</time>
      </trkpt>
      <trkpt lat="59.686014018952847" lon="8.4042629878968">
        <ele>965.5546875</ele>
        <time>2019-06-22T12:33:50Z</time>
      </trkpt>
      <trkpt lat="59.686019970104098" lon="8.404144970700145">
        <ele>965.9453125</ele>
        <time>2019-06-22T12:33:58Z</time>
      </trkpt>
      <trkpt lat="59.686159025877714" lon="8.4038520231843">
        <ele>962.51953125</ele>
        <time>2019-06-22T12:34:09Z</time>
      </trkpt>
      <trkpt lat="59.686209987848997" lon="8.403609031811357">
        <ele>962.04296875</ele>
        <time>2019-06-22T12:34:15Z</time>
      </trkpt>
      <trkpt lat="59.686340996995568" lon="8.403392024338245">
        <ele>960.40625</ele>
        <time>2019-06-22T12:34:23Z</time>
      </trkpt>
      <trkpt lat="59.686363963410258" lon="8.403284987434745">
        <ele>959.94140625</ele>
        <time>2019-06-22T12:34:26Z</time>
      </trkpt>
      <trkpt lat="59.686402017250657" lon="8.403078960254788">
        <ele>959.47265625</ele>
        <time>2019-06-22T12:34:33Z</time>
      </trkpt>
      <trkpt lat="59.686437975615263" lon="8.402888020500541">
        <ele>959.54296875</ele>
        <time>2019-06-22T12:34:39Z</time>
      </trkpt>
      <trkpt lat="59.686412997543812" lon="8.402782995253801">
        <ele>959.984375</ele>
        <time>2019-06-22T12:34:42Z</time>
      </trkpt>
      <trkpt lat="59.686406962573528" lon="8.402485018596053">
        <ele>961.6640625</ele>
        <time>2019-06-22T12:34:50Z</time>
      </trkpt>
      <trkpt lat="59.686443004757166" lon="8.402147982269526">
        <ele>962.2578125</ele>
        <time>2019-06-22T12:35:01Z</time>
      </trkpt>
      <trkpt lat="59.686530008912086" lon="8.40181102976203">
        <ele>962.6015625</ele>
        <time>2019-06-22T12:35:09Z</time>
      </trkpt>
      <trkpt lat="59.686604021117091" lon="8.401648001745343">
        <ele>962.390625</ele>
        <time>2019-06-22T12:35:17Z</time>
      </trkpt>
      <trkpt lat="59.686741987243295" lon="8.401565020903945">
        <ele>960.35546875</ele>
        <time>2019-06-22T12:35:24Z</time>
      </trkpt>
      <trkpt lat="59.686943991109729" lon="8.401456978172064">
        <ele>959.75</ele>
        <time>2019-06-22T12:35:33Z</time>
      </trkpt>
      <trkpt lat="59.687066031619906" lon="8.401214992627502">
        <ele>960.5703125</ele>
        <time>2019-06-22T12:35:42Z</time>
      </trkpt>
      <trkpt lat="59.687139037996531" lon="8.400968983769417">
        <ele>961.1171875</ele>
        <time>2019-06-22T12:35:53Z</time>
      </trkpt>
      <trkpt lat="59.68714096583426" lon="8.400970995426178">
        <ele>961.09375</ele>
        <time>2019-06-22T12:36:30Z</time>
      </trkpt>
      <trkpt lat="59.687141971662641" lon="8.400965966284275">
        <ele>961.1015625</ele>
        <time>2019-06-22T12:37:51Z</time>
      </trkpt>
      <trkpt lat="59.687193017452955" lon="8.400843003764749">
        <ele>960.92578125</ele>
        <time>2019-06-22T12:38:23Z</time>
      </trkpt>
      <trkpt lat="59.687266023829579" lon="8.400654997676611">
        <ele>960.46875</ele>
        <time>2019-06-22T12:39:04Z</time>
      </trkpt>
      <trkpt lat="59.687315979972482" lon="8.400473026558757">
        <ele>960.6015625</ele>
        <time>2019-06-22T12:39:18Z</time>
      </trkpt>
      <trkpt lat="59.687315979972482" lon="8.400456011295319">
        <ele>960.64453125</ele>
        <time>2019-06-22T12:39:19Z</time>
      </trkpt>
      <trkpt lat="59.687374988570809" lon="8.400293989107013">
        <ele>960.55859375</ele>
        <time>2019-06-22T12:39:35Z</time>
      </trkpt>
      <trkpt lat="59.687389992177486" lon="8.400197010487318">
        <ele>960.70703125</ele>
        <time>2019-06-22T12:39:48Z</time>
      </trkpt>
      <trkpt lat="59.687414970248938" lon="8.400156022980809">
        <ele>960.6328125</ele>
        <time>2019-06-22T12:40:12Z</time>
      </trkpt>
      <trkpt lat="59.687406001612544" lon="8.400213019922376">
        <ele>960.53515625</ele>
        <time>2019-06-22T12:41:24Z</time>
      </trkpt>
      <trkpt lat="59.687402984127402" lon="8.400193993002176">
        <ele>960.61328125</ele>
        <time>2019-06-22T12:41:45Z</time>
      </trkpt>
      <trkpt lat="59.687412036582828" lon="8.400172032415867">
        <ele>960.60546875</ele>
        <time>2019-06-22T12:41:47Z</time>
      </trkpt>
      <trkpt lat="59.687470039352775" lon="8.399895010516048">
        <ele>961.171875</ele>
        <time>2019-06-22T12:41:59Z</time>
      </trkpt>
      <trkpt lat="59.687501974403858" lon="8.399840025231242">
        <ele>961.1484375</ele>
        <time>2019-06-22T12:42:03Z</time>
      </trkpt>
      <trkpt lat="59.687573974952102" lon="8.399631986394525">
        <ele>961.80078125</ele>
        <time>2019-06-22T12:42:13Z</time>
      </trkpt>
      <trkpt lat="59.687632983550429" lon="8.399368040263653">
        <ele>962.40234375</ele>
        <time>2019-06-22T12:42:23Z</time>
      </trkpt>
      <trkpt lat="59.687651004642248" lon="8.399238036945462">
        <ele>962.6015625</ele>
        <time>2019-06-22T12:42:34Z</time>
      </trkpt>
      <trkpt lat="59.687645975500345" lon="8.399227978661656">
        <ele>962.6953125</ele>
        <time>2019-06-22T12:42:37Z</time>
      </trkpt>
      <trkpt lat="59.687688974663615" lon="8.399047013372183">
        <ele>962.53515625</ele>
        <time>2019-06-22T12:42:49Z</time>
      </trkpt>
      <trkpt lat="59.687749994918704" lon="8.398988004773855">
        <ele>961.5703125</ele>
        <time>2019-06-22T12:42:54Z</time>
      </trkpt>
      <trkpt lat="59.687859965488315" lon="8.398711988702416">
        <ele>960.4765625</ele>
        <time>2019-06-22T12:43:02Z</time>
      </trkpt>
      <trkpt lat="59.687875974923372" lon="8.398377969861031">
        <ele>959.296875</ele>
        <time>2019-06-22T12:43:10Z</time>
      </trkpt>
      <trkpt lat="59.687868012115359" lon="8.398133972659707">
        <ele>957.6953125</ele>
        <time>2019-06-22T12:43:16Z</time>
      </trkpt>
      <trkpt lat="59.687920985743403" lon="8.397719990462065">
        <ele>953.50390625</ele>
        <time>2019-06-22T12:43:27Z</time>
      </trkpt>
      <trkpt lat="59.687916962429881" lon="8.397459983825684">
        <ele>951.64453125</ele>
        <time>2019-06-22T12:43:34Z</time>
      </trkpt>
      <trkpt lat="59.687903970479965" lon="8.397082965821028">
        <ele>948.76171875</ele>
        <time>2019-06-22T12:43:44Z</time>
      </trkpt>
      <trkpt lat="59.687884021550417" lon="8.396797981113195">
        <ele>946.8359375</ele>
        <time>2019-06-22T12:43:53Z</time>
      </trkpt>
      <trkpt lat="59.687896007671952" lon="8.396416017785668">
        <ele>943.05859375</ele>
        <time>2019-06-22T12:44:01Z</time>
      </trkpt>
      <trkpt lat="59.687877986580133" lon="8.396345023065805">
        <ele>942.61328125</ele>
        <time>2019-06-22T12:44:04Z</time>
      </trkpt>
      <trkpt lat="59.687792994081974" lon="8.396302023902535">
        <ele>943.2890625</ele>
        <time>2019-06-22T12:44:17Z</time>
      </trkpt>
      <trkpt lat="59.687789976596832" lon="8.395924000069499">
        <ele>940.484375</ele>
        <time>2019-06-22T12:44:27Z</time>
      </trkpt>
      <trkpt lat="59.68776298686862" lon="8.395642032846808">
        <ele>939.76171875</ele>
        <time>2019-06-22T12:44:33Z</time>
      </trkpt>
      <trkpt lat="59.68765502795577" lon="8.39543198235333">
        <ele>939.6796875</ele>
        <time>2019-06-22T12:44:40Z</time>
      </trkpt>
      <trkpt lat="59.687675982713699" lon="8.395258979871869">
        <ele>939.125</ele>
        <time>2019-06-22T12:44:46Z</time>
      </trkpt>
      <trkpt lat="59.687686963006854" lon="8.395005008205771">
        <ele>938.5546875</ele>
        <time>2019-06-22T12:44:54Z</time>
      </trkpt>
      <trkpt lat="59.687689980491996" lon="8.394769979640842">
        <ele>938.33203125</ele>
        <time>2019-06-22T12:45:02Z</time>
      </trkpt>
      <trkpt lat="59.687733985483646" lon="8.394484994933009">
        <ele>938.10546875</ele>
        <time>2019-06-22T12:45:13Z</time>
      </trkpt>
      <trkpt lat="59.687684029340744" lon="8.394118035212159">
        <ele>938.17578125</ele>
        <time>2019-06-22T12:45:23Z</time>
      </trkpt>
      <trkpt lat="59.687684029340744" lon="8.393937991932035">
        <ele>938.10546875</ele>
        <time>2019-06-22T12:45:29Z</time>
      </trkpt>
      <trkpt lat="59.687684029340744" lon="8.393938997760415">
        <ele>938.10546875</ele>
        <time>2019-06-22T12:45:30Z</time>
      </trkpt>
      <trkpt lat="59.687675982713699" lon="8.393797008320689">
        <ele>938.03125</ele>
        <time>2019-06-22T12:45:55Z</time>
      </trkpt>
      <trkpt lat="59.687675982713699" lon="8.393802959471941">
        <ele>938.03515625</ele>
        <time>2019-06-22T12:46:24Z</time>
      </trkpt>
      <trkpt lat="59.687793999910355" lon="8.39379901997745">
        <ele>938.15234375</ele>
        <time>2019-06-22T12:46:31Z</time>
      </trkpt>
      <trkpt lat="59.687895001843572" lon="8.393866997212172">
        <ele>938.33203125</ele>
        <time>2019-06-22T12:46:36Z</time>
      </trkpt>
      <trkpt lat="59.68797798268497" lon="8.393767001107335">
        <ele>938.54296875</ele>
        <time>2019-06-22T12:46:44Z</time>
      </trkpt>
      <trkpt lat="59.688007989898324" lon="8.393672034144402">
        <ele>938.55859375</ele>
        <time>2019-06-22T12:46:49Z</time>
      </trkpt>
      <trkpt lat="59.688076972961426" lon="8.393439017236233">
        <ele>938.63671875</ele>
        <time>2019-06-22T12:46:58Z</time>
      </trkpt>
      <trkpt lat="59.688111003488302" lon="8.393341032788158">
        <ele>938.5546875</ele>
        <time>2019-06-22T12:47:08Z</time>
      </trkpt>
      <trkpt lat="59.68810798600316" lon="8.393308008089662">
        <ele>938.4765625</ele>
        <time>2019-06-22T12:47:14Z</time>
      </trkpt>
      <trkpt lat="59.688151990994811" lon="8.393049007281661">
        <ele>938.34765625</ele>
        <time>2019-06-22T12:47:23Z</time>
      </trkpt>
      <trkpt lat="59.688277970999479" lon="8.392711970955133">
        <ele>939.3203125</ele>
        <time>2019-06-22T12:47:31Z</time>
      </trkpt>
      <trkpt lat="59.68834301456809" lon="8.392168991267681">
        <ele>938.84375</ele>
        <time>2019-06-22T12:47:44Z</time>
      </trkpt>
      <trkpt lat="59.688370004296303" lon="8.391899010166526">
        <ele>938.359375</ele>
        <time>2019-06-22T12:47:51Z</time>
      </trkpt>
      <trkpt lat="59.688329016789794" lon="8.391603967174888">
        <ele>937.58984375</ele>
        <time>2019-06-22T12:47:59Z</time>
      </trkpt>
      <trkpt lat="59.688275037333369" lon="8.391281012445688">
        <ele>936.7734375</ele>
        <time>2019-06-22T12:48:07Z</time>
      </trkpt>
      <trkpt lat="59.688191972672939" lon="8.39102603495121">
        <ele>936.19140625</ele>
        <time>2019-06-22T12:48:16Z</time>
      </trkpt>
      <trkpt lat="59.688181998208165" lon="8.390977000817657">
        <ele>936.12890625</ele>
        <time>2019-06-22T12:48:20Z</time>
      </trkpt>
      <trkpt lat="59.688142016530037" lon="8.390889996662736">
        <ele>936.06640625</ele>
        <time>2019-06-22T12:48:23Z</time>
      </trkpt>
      <trkpt lat="59.688095999881625" lon="8.390629990026355">
        <ele>936.0234375</ele>
        <time>2019-06-22T12:48:32Z</time>
      </trkpt>
      <trkpt lat="59.688006984069943" lon="8.390376018360257">
        <ele>936.04296875</ele>
        <time>2019-06-22T12:48:44Z</time>
      </trkpt>
      <trkpt lat="59.687987035140395" lon="8.390319021418691">
        <ele>936.06640625</ele>
        <time>2019-06-22T12:48:48Z</time>
      </trkpt>
      <trkpt lat="59.68799801543355" lon="8.390285996720195">
        <ele>936.07421875</ele>
        <time>2019-06-22T12:48:50Z</time>
      </trkpt>
      <trkpt lat="59.688054006546736" lon="8.390110982581973">
        <ele>936.11328125</ele>
        <time>2019-06-22T12:48:57Z</time>
      </trkpt>
      <trkpt lat="59.688080996274948" lon="8.390055997297168">
        <ele>936.1484375</ele>
        <time>2019-06-22T12:48:59Z</time>
      </trkpt>
      <trkpt lat="59.688099017366767" lon="8.389784004539251">
        <ele>936.5703125</ele>
        <time>2019-06-22T12:49:08Z</time>
      </trkpt>
      <trkpt lat="59.688164982944727" lon="8.38963002897799">
        <ele>936.90234375</ele>
        <time>2019-06-22T12:49:14Z</time>
      </trkpt>
      <trkpt lat="59.688216028735042" lon="8.389573032036424">
        <ele>937.01953125</ele>
        <time>2019-06-22T12:49:17Z</time>
      </trkpt>
      <trkpt lat="59.688337985426188" lon="8.38937102816999">
        <ele>937.46484375</ele>
        <time>2019-06-22T12:49:25Z</time>
      </trkpt>
      <trkpt lat="59.688435969874263" lon="8.389254016801715">
        <ele>937.89453125</ele>
        <time>2019-06-22T12:49:34Z</time>
      </trkpt>
      <trkpt lat="59.688566979020834" lon="8.389100041240454">
        <ele>938.546875</ele>
        <time>2019-06-22T12:49:42Z</time>
      </trkpt>
      <trkpt lat="59.688652977347374" lon="8.388999961316586">
        <ele>939.0703125</ele>
        <time>2019-06-22T12:49:54Z</time>
      </trkpt>
      <trkpt lat="59.688797984272242" lon="8.388871969655156">
        <ele>939.7734375</ele>
        <time>2019-06-22T12:50:03Z</time>
      </trkpt>
      <trkpt lat="59.688942991197109" lon="8.38876903988421">
        <ele>940.2578125</ele>
        <time>2019-06-22T12:50:10Z</time>
      </trkpt>
      <trkpt lat="59.688982972875237" lon="8.388763004913926">
        <ele>940.1640625</ele>
        <time>2019-06-22T12:50:12Z</time>
      </trkpt>
      <trkpt lat="59.689178019762039" lon="8.388734003528953">
        <ele>939.51171875</ele>
        <time>2019-06-22T12:50:19Z</time>
      </trkpt>
      <trkpt lat="59.689279021695256" lon="8.38868597522378">
        <ele>939.41015625</ele>
        <time>2019-06-22T12:50:23Z</time>
      </trkpt>
      <trkpt lat="59.689384968951344" lon="8.388596959412098">
        <ele>939.2734375</ele>
        <time>2019-06-22T12:50:28Z</time>
      </trkpt>
      <trkpt lat="59.689432997256517" lon="8.388530993834138">
        <ele>939.16796875</ele>
        <time>2019-06-22T12:50:33Z</time>
      </trkpt>
      <trkpt lat="59.689528970047832" lon="8.388424040749669">
        <ele>939.21875</ele>
        <time>2019-06-22T12:50:38Z</time>
      </trkpt>
      <trkpt lat="59.689688980579376" lon="8.388264030218124">
        <ele>939.37890625</ele>
        <time>2019-06-22T12:50:47Z</time>
      </trkpt>
      <trkpt lat="59.689767016097903" lon="8.388114999979734">
        <ele>939.5625</ele>
        <time>2019-06-22T12:50:55Z</time>
      </trkpt>
      <trkpt lat="59.689854020252824" lon="8.387974016368389">
        <ele>939.578125</ele>
        <time>2019-06-22T12:51:05Z</time>
      </trkpt>
      <trkpt lat="59.689939012750983" lon="8.388007041066885">
        <ele>939.296875</ele>
        <time>2019-06-22T12:51:11Z</time>
      </trkpt>
      <trkpt lat="59.69010598026216" lon="8.387891035526991">
        <ele>939.0703125</ele>
        <time>2019-06-22T12:51:19Z</time>
      </trkpt>
      <trkpt lat="59.690265990793705" lon="8.38763396255672">
        <ele>939.08203125</ele>
        <time>2019-06-22T12:51:29Z</time>
      </trkpt>
      <trkpt lat="59.690350983291864" lon="8.387455008924007">
        <ele>939.140625</ele>
        <time>2019-06-22T12:51:40Z</time>
      </trkpt>
      <trkpt lat="59.69042700715363" lon="8.387248981744051">
        <ele>939.22265625</ele>
        <time>2019-06-22T12:51:47Z</time>
      </trkpt>
      <trkpt lat="59.690461959689856" lon="8.387242024764419">
        <ele>939.22265625</ele>
        <time>2019-06-22T12:52:04Z</time>
      </trkpt>
      <trkpt lat="59.690461959689856" lon="8.387242024764419">
        <ele>939.22265625</ele>
        <time>2019-06-22T12:52:10Z</time>
      </trkpt>
      <trkpt lat="59.690527003258467" lon="8.387232972308993">
        <ele>939.2109375</ele>
        <time>2019-06-22T12:52:13Z</time>
      </trkpt>
      <trkpt lat="59.690576959401369" lon="8.387241018936038">
        <ele>939.21484375</ele>
        <time>2019-06-22T12:52:15Z</time>
      </trkpt>
      <trkpt lat="59.690669998526573" lon="8.387215035036206">
        <ele>939.46875</ele>
        <time>2019-06-22T12:52:20Z</time>
      </trkpt>
      <trkpt lat="59.690776029601693" lon="8.387364987283945">
        <ele>940.1875</ele>
        <time>2019-06-22T12:52:27Z</time>
      </trkpt>
      <trkpt lat="59.690893962979317" lon="8.387098023667932">
        <ele>939.82421875</ele>
        <time>2019-06-22T12:52:37Z</time>
      </trkpt>
      <trkpt lat="59.691089009866118" lon="8.386769033968449">
        <ele>939.46484375</ele>
        <time>2019-06-22T12:52:48Z</time>
      </trkpt>
      <trkpt lat="59.691244997084141" lon="8.38660198263824">
        <ele>939.8984375</ele>
        <time>2019-06-22T12:52:56Z</time>
      </trkpt>
      <trkpt lat="59.691334012895823" lon="8.386530987918377">
        <ele>940.125</ele>
        <time>2019-06-22T12:53:01Z</time>
      </trkpt>
      <trkpt lat="59.691401990130544" lon="8.386573987081647">
        <ele>940.6875</ele>
        <time>2019-06-22T12:53:05Z</time>
      </trkpt>
      <trkpt lat="59.691589996218681" lon="8.386217001825571">
        <ele>941.1875</ele>
        <time>2019-06-22T12:53:16Z</time>
      </trkpt>
      <trkpt lat="59.691757969558239" lon="8.385863034054637">
        <ele>942.85546875</ele>
        <time>2019-06-22T12:53:27Z</time>
      </trkpt>
      <trkpt lat="59.691899958997965" lon="8.385624988004565">
        <ele>944.33984375</ele>
        <time>2019-06-22T12:53:36Z</time>
      </trkpt>
      <trkpt lat="59.691953016445041" lon="8.385600009933114">
        <ele>944.77734375</ele>
        <time>2019-06-22T12:53:46Z</time>
      </trkpt>
      <trkpt lat="59.691942958161235" lon="8.385614007711411">
        <ele>944.828125</ele>
        <time>2019-06-22T12:54:48Z</time>
      </trkpt>
      <trkpt lat="59.691957961767912" lon="8.385577965527773">
        <ele>944.53515625</ele>
        <time>2019-06-22T12:55:30Z</time>
      </trkpt>
      <trkpt lat="59.691962990909815" lon="8.385577965527773">
        <ele>944.6015625</ele>
        <time>2019-06-22T12:56:48Z</time>
      </trkpt>
      <trkpt lat="59.691942036151886" lon="8.385576959699392">
        <ele>944.31640625</ele>
        <time>2019-06-22T13:00:01Z</time>
      </trkpt>
      <trkpt lat="59.691917980089784" lon="8.385491967201233">
        <ele>942.94921875</ele>
        <time>2019-06-22T13:00:25Z</time>
      </trkpt>
      <trkpt lat="59.691912028938532" lon="8.385450979694724">
        <ele>942.390625</ele>
        <time>2019-06-22T13:00:43Z</time>
      </trkpt>
      <trkpt lat="59.691899036988616" lon="8.385426001623273">
        <ele>942.13671875</ele>
        <time>2019-06-22T13:00:46Z</time>
      </trkpt>
      <trkpt lat="59.691858971491456" lon="8.385383002460003">
        <ele>941.69140625</ele>
        <time>2019-06-22T13:01:02Z</time>
      </trkpt>
      <trkpt lat="59.691870035603642" lon="8.385394988581538">
        <ele>941.8046875</ele>
        <time>2019-06-22T13:01:04Z</time>
      </trkpt>
      <trkpt lat="59.691894007846713" lon="8.385402029380202">
        <ele>941.98828125</ele>
        <time>2019-06-22T13:01:07Z</time>
      </trkpt>
      <trkpt lat="59.691904988139868" lon="8.385424995794892">
        <ele>942.171875</ele>
        <time>2019-06-22T13:01:09Z</time>
      </trkpt>
      <trkpt lat="59.69190800562501" lon="8.385488027706742">
        <ele>942.8046875</ele>
        <time>2019-06-22T13:01:21Z</time>
      </trkpt>
      <trkpt lat="59.691906999796629" lon="8.385469000786543">
        <ele>942.56640625</ele>
        <time>2019-06-22T13:01:55Z</time>
      </trkpt>
      <trkpt lat="59.692011019214988" lon="8.385105980560184">
        <ele>941.39453125</ele>
        <time>2019-06-22T13:02:04Z</time>
      </trkpt>
      <trkpt lat="59.692125013098121" lon="8.384691998362541">
        <ele>942.59765625</ele>
        <time>2019-06-22T13:02:12Z</time>
      </trkpt>
      <trkpt lat="59.6922089997679" lon="8.384326966479421">
        <ele>945.0234375</ele>
        <time>2019-06-22T13:02:20Z</time>
      </trkpt>
      <trkpt lat="59.692303966730833" lon="8.384037036448717">
        <ele>946.69921875</ele>
        <time>2019-06-22T13:02:28Z</time>
      </trkpt>
      <trkpt lat="59.692369010299444" lon="8.383583994582295">
        <ele>949.54296875</ele>
        <time>2019-06-22T13:02:39Z</time>
      </trkpt>
      <trkpt lat="59.692334979772568" lon="8.383189961314201">
        <ele>954.03125</ele>
        <time>2019-06-22T13:02:47Z</time>
      </trkpt>
      <trkpt lat="59.692326011136174" lon="8.382983012124896">
        <ele>956.6484375</ele>
        <time>2019-06-22T13:02:54Z</time>
      </trkpt>
      <trkpt lat="59.692346965894103" lon="8.382993992418051">
        <ele>956.42578125</ele>
        <time>2019-06-22T13:03:13Z</time>
      </trkpt>
      <trkpt lat="59.692363981157541" lon="8.382979994639754">
        <ele>956.5390625</ele>
        <time>2019-06-22T13:03:27Z</time>
      </trkpt>
      <trkpt lat="59.692377978935838" lon="8.382931966334581">
        <ele>957.09375</ele>
        <time>2019-06-22T13:03:41Z</time>
      </trkpt>
      <trkpt lat="59.692377978935838" lon="8.382845968008041">
        <ele>958.08984375</ele>
        <time>2019-06-22T13:03:51Z</time>
      </trkpt>
      <trkpt lat="59.692366998642683" lon="8.38256299495697">
        <ele>960.48828125</ele>
        <time>2019-06-22T13:04:04Z</time>
      </trkpt>
      <trkpt lat="59.692357024177909" lon="8.382120011374354">
        <ele>961.234375</ele>
        <time>2019-06-22T13:04:15Z</time>
      </trkpt>
      <trkpt lat="59.69235903583467" lon="8.381893029436469">
        <ele>961.1015625</ele>
        <time>2019-06-22T13:04:22Z</time>
      </trkpt>
      <trkpt lat="59.692374961450696" lon="8.381841983646154">
        <ele>960.80078125</ele>
        <time>2019-06-22T13:04:33Z</time>
      </trkpt>
      <trkpt lat="59.692374961450696" lon="8.381841983646154">
        <ele>960.80078125</ele>
        <time>2019-06-22T13:04:35Z</time>
      </trkpt>
      <trkpt lat="59.692515023052692" lon="8.381934016942978">
        <ele>958.44140625</ele>
        <time>2019-06-22T13:04:41Z</time>
      </trkpt>
      <trkpt lat="59.692605966702104" lon="8.381778029724956">
        <ele>957.984375</ele>
        <time>2019-06-22T13:04:47Z</time>
      </trkpt>
      <trkpt lat="59.692767988890409" lon="8.381718015298247">
        <ele>957.453125</ele>
        <time>2019-06-22T13:04:56Z</time>
      </trkpt>
      <trkpt lat="59.69281199388206" lon="8.381727989763022">
        <ele>957.46484375</ele>
        <time>2019-06-22T13:04:58Z</time>
      </trkpt>
      <trkpt lat="59.692920036613941" lon="8.381716003641486">
        <ele>958.19140625</ele>
        <time>2019-06-22T13:05:04Z</time>
      </trkpt>
      <trkpt lat="59.692998994141817" lon="8.38159698061645">
        <ele>958.53125</ele>
        <time>2019-06-22T13:05:11Z</time>
      </trkpt>
      <trkpt lat="59.693122040480375" lon="8.38144401088357">
        <ele>958.78515625</ele>
        <time>2019-06-22T13:05:19Z</time>
      </trkpt>
      <trkpt lat="59.693146012723446" lon="8.381138993427157">
        <ele>958.3125</ele>
        <time>2019-06-22T13:05:28Z</time>
      </trkpt>
      <trkpt lat="59.693165039643645" lon="8.381113009527326">
        <ele>958.328125</ele>
        <time>2019-06-22T13:05:29Z</time>
      </trkpt>
      <trkpt lat="59.693203009665012" lon="8.380878986790776">
        <ele>958.59375</ele>
        <time>2019-06-22T13:05:36Z</time>
      </trkpt>
      <trkpt lat="59.693301999941468" lon="8.380680000409484">
        <ele>959.53515625</ele>
        <time>2019-06-22T13:05:44Z</time>
      </trkpt>
      <trkpt lat="59.693362014368176" lon="8.380475984886289">
        <ele>960.6171875</ele>
        <time>2019-06-22T13:05:51Z</time>
      </trkpt>
      <trkpt lat="59.69356301240623" lon="8.380380012094975">
        <ele>962.03125</ele>
        <time>2019-06-22T13:06:00Z</time>
      </trkpt>
      <trkpt lat="59.693631995469332" lon="8.380351010710001">
        <ele>962.5</ele>
        <time>2019-06-22T13:06:03Z</time>
      </trkpt>
      <trkpt lat="59.693712964653969" lon="8.380346987396479">
        <ele>962.25390625</ele>
        <time>2019-06-22T13:06:07Z</time>
      </trkpt>
      <trkpt lat="59.693876998499036" lon="8.380126040428877">
        <ele>962.37109375</ele>
        <time>2019-06-22T13:06:17Z</time>
      </trkpt>
      <trkpt lat="59.694029968231916" lon="8.379884976893663">
        <ele>961.87890625</ele>
        <time>2019-06-22T13:06:27Z</time>
      </trkpt>
      <trkpt lat="59.694104986265302" lon="8.379681967198849">
        <ele>962.74609375</ele>
        <time>2019-06-22T13:06:34Z</time>
      </trkpt>
      <trkpt lat="59.694177992641926" lon="8.379633016884327">
        <ele>962.7734375</ele>
        <time>2019-06-22T13:06:38Z</time>
      </trkpt>
      <trkpt lat="59.69422903843224" lon="8.379647014662623">
        <ele>962.578125</ele>
        <time>2019-06-22T13:06:42Z</time>
      </trkpt>
      <trkpt lat="59.694300033152103" lon="8.379501001909375">
        <ele>965.97265625</ele>
        <time>2019-06-22T13:06:47Z</time>
      </trkpt>
      <trkpt lat="59.69442299567163" lon="8.379582976922393">
        <ele>963.171875</ele>
        <time>2019-06-22T13:06:54Z</time>
      </trkpt>
      <trkpt lat="59.694494996219873" lon="8.379594963043928">
        <ele>962.6171875</ele>
        <time>2019-06-22T13:07:04Z</time>
      </trkpt>
      <trkpt lat="59.694502037018538" lon="8.379620024934411">
        <ele>962.0859375</ele>
        <time>2019-06-22T13:07:13Z</time>
      </trkpt>
      <trkpt lat="59.694589041173458" lon="8.379485998302698">
        <ele>964.25</ele>
        <time>2019-06-22T13:07:26Z</time>
      </trkpt>
      <trkpt lat="59.694622987881303" lon="8.379436964169145">
        <ele>964.78515625</ele>
        <time>2019-06-22T13:07:32Z</time>
      </trkpt>
      <trkpt lat="59.694762965664268" lon="8.37938298471272">
        <ele>963.9140625</ele>
        <time>2019-06-22T13:07:38Z</time>
      </trkpt>
      <trkpt lat="59.69481099396944" lon="8.379393965005875">
        <ele>963.3359375</ele>
        <time>2019-06-22T13:07:40Z</time>
      </trkpt>
      <trkpt lat="59.694935968145728" lon="8.379111997783184">
        <ele>965.7109375</ele>
        <time>2019-06-22T13:07:49Z</time>
      </trkpt>
      <trkpt lat="59.695051973685622" lon="8.378812009468675">
        <ele>968.23046875</ele>
        <time>2019-06-22T13:07:58Z</time>
      </trkpt>
      <trkpt lat="59.695165967568755" lon="8.378614028915763">
        <ele>966.9609375</ele>
        <time>2019-06-22T13:08:06Z</time>
      </trkpt>
      <trkpt lat="59.695264035835862" lon="8.37830800563097">
        <ele>968.87109375</ele>
        <time>2019-06-22T13:08:16Z</time>
      </trkpt>
      <trkpt lat="59.69530401751399" lon="8.378298031166196">
        <ele>968.09375</ele>
        <time>2019-06-22T13:08:18Z</time>
      </trkpt>
      <trkpt lat="59.695338970050216" lon="8.37819904088974">
        <ele>970.17578125</ele>
        <time>2019-06-22T13:08:22Z</time>
      </trkpt>
      <trkpt lat="59.695365037769079" lon="8.378196023404598">
        <ele>970</ele>
        <time>2019-06-22T13:08:24Z</time>
      </trkpt>
      <trkpt lat="59.695509960874915" lon="8.378030983731151">
        <ele>973.453125</ele>
        <time>2019-06-22T13:08:34Z</time>
      </trkpt>
      <trkpt lat="59.695552960038185" lon="8.37800701148808">
        <ele>973.45703125</ele>
        <time>2019-06-22T13:08:37Z</time>
      </trkpt>
      <trkpt lat="59.695644993335009" lon="8.377817999571562">
        <ele>979.1015625</ele>
        <time>2019-06-22T13:08:47Z</time>
      </trkpt>
      <trkpt lat="59.695838028565049" lon="8.377700988203287">
        <ele>980.28125</ele>
        <time>2019-06-22T13:08:59Z</time>
      </trkpt>
      <trkpt lat="59.695938024669886" lon="8.377580037340522">
        <ele>983.3671875</ele>
        <time>2019-06-22T13:09:07Z</time>
      </trkpt>
      <trkpt lat="59.695967026054859" lon="8.377494039013982">
        <ele>985.68359375</ele>
        <time>2019-06-22T13:09:10Z</time>
      </trkpt>
      <trkpt lat="59.695987980812788" lon="8.377464031800628">
        <ele>986.42578125</ele>
        <time>2019-06-22T13:09:12Z</time>
      </trkpt>
      <trkpt lat="59.696123013272882" lon="8.377277031540871">
        <ele>990.18359375</ele>
        <time>2019-06-22T13:09:21Z</time>
      </trkpt>
      <trkpt lat="59.69624899327755" lon="8.377230009064078">
        <ele>989.28515625</ele>
        <time>2019-06-22T13:09:30Z</time>
      </trkpt>
      <trkpt lat="59.696281012147665" lon="8.3771460223943">
        <ele>990.2734375</ele>
        <time>2019-06-22T13:09:33Z</time>
      </trkpt>
      <trkpt lat="59.696299033239484" lon="8.377124983817339">
        <ele>990.3125</ele>
        <time>2019-06-22T13:09:34Z</time>
      </trkpt>
      <trkpt lat="59.696443034335971" lon="8.376959022134543">
        <ele>989.51953125</ele>
        <time>2019-06-22T13:09:42Z</time>
      </trkpt>
      <trkpt lat="59.696500031277537" lon="8.376922979950905">
        <ele>989.46875</ele>
        <time>2019-06-22T13:09:45Z</time>
      </trkpt>
      <trkpt lat="59.696605978533626" lon="8.376733968034387">
        <ele>992.34375</ele>
        <time>2019-06-22T13:09:53Z</time>
      </trkpt>
      <trkpt lat="59.69678501598537" lon="8.376619974151254">
        <ele>994.22265625</ele>
        <time>2019-06-22T13:10:01Z</time>
      </trkpt>
      <trkpt lat="59.696838995441794" lon="8.376548979431391">
        <ele>995.3203125</ele>
        <time>2019-06-22T13:10:04Z</time>
      </trkpt>
      <trkpt lat="59.696879982948303" lon="8.3765450399369">
        <ele>995.19140625</ele>
        <time>2019-06-22T13:10:06Z</time>
      </trkpt>
      <trkpt lat="59.697005040943623" lon="8.376645036041737">
        <ele>993.72265625</ele>
        <time>2019-06-22T13:10:14Z</time>
      </trkpt>
      <trkpt lat="59.697077963501215" lon="8.376678982749581">
        <ele>993.875</ele>
        <time>2019-06-22T13:10:19Z</time>
      </trkpt>
      <trkpt lat="59.697265969589353" lon="8.376457029953599">
        <ele>997.93359375</ele>
        <time>2019-06-22T13:10:31Z</time>
      </trkpt>
      <trkpt lat="59.697422962635756" lon="8.376348987221718">
        <ele>1000.67578125</ele>
        <time>2019-06-22T13:10:40Z</time>
      </trkpt>
      <trkpt lat="59.69747300259769" lon="8.376306993886828">
        <ele>1001.56640625</ele>
        <time>2019-06-22T13:10:43Z</time>
      </trkpt>
      <trkpt lat="59.697605017572641" lon="8.376151006668806">
        <ele>1003.79296875</ele>
        <time>2019-06-22T13:10:51Z</time>
      </trkpt>
      <trkpt lat="59.697720017284155" lon="8.37603097781539">
        <ele>1004.7890625</ele>
        <time>2019-06-22T13:10:59Z</time>
      </trkpt>
      <trkpt lat="59.697855971753597" lon="8.375852024182677">
        <ele>1009.39453125</ele>
        <time>2019-06-22T13:11:10Z</time>
      </trkpt>
      <trkpt lat="59.697856977581978" lon="8.375820005312562">
        <ele>1010.19921875</ele>
        <time>2019-06-22T13:11:11Z</time>
      </trkpt>
      <trkpt lat="59.697983963415027" lon="8.375706011429429">
        <ele>1013.34375</ele>
        <time>2019-06-22T13:11:18Z</time>
      </trkpt>
      <trkpt lat="59.698099968954921" lon="8.375489003956318">
        <ele>1017.90625</ele>
        <time>2019-06-22T13:11:27Z</time>
      </trkpt>
      <trkpt lat="59.698127964511514" lon="8.375458996742964">
        <ele>1018.49609375</ele>
        <time>2019-06-22T13:11:29Z</time>
      </trkpt>
      <trkpt lat="59.698199965059757" lon="8.375507025048137">
        <ele>1017.59765625</ele>
        <time>2019-06-22T13:11:35Z</time>
      </trkpt>
      <trkpt lat="59.698283029720187" lon="8.375476012006402">
        <ele>1018.1953125</ele>
        <time>2019-06-22T13:11:39Z</time>
      </trkpt>
      <trkpt lat="59.698426024988294" lon="8.375507025048137">
        <ele>1017.796875</ele>
        <time>2019-06-22T13:11:45Z</time>
      </trkpt>
      <trkpt lat="59.698475981131196" lon="8.37551498785615">
        <ele>1017.7578125</ele>
        <time>2019-06-22T13:11:48Z</time>
      </trkpt>
      <trkpt lat="59.698541024699807" lon="8.375516999512911">
        <ele>1017.84765625</ele>
        <time>2019-06-22T13:11:52Z</time>
      </trkpt>
      <trkpt lat="59.698735987767577" lon="8.375389007851481">
        <ele>1020.42578125</ele>
        <time>2019-06-22T13:12:00Z</time>
      </trkpt>
      <trkpt lat="59.698812011629343" lon="8.375353971496224">
        <ele>1021.09765625</ele>
        <time>2019-06-22T13:12:04Z</time>
      </trkpt>
      <trkpt lat="59.69884897582233" lon="8.375350032001734">
        <ele>1021.23046875</ele>
        <time>2019-06-22T13:12:06Z</time>
      </trkpt>
      <trkpt lat="59.69887001439929" lon="8.375206030905247">
        <ele>1022.6953125</ele>
        <time>2019-06-22T13:20:46Z</time>
      </trkpt>
      <trkpt lat="59.698883006349206" lon="8.37521399371326">
        <ele>1022.58984375</ele>
        <time>2019-06-22T13:20:56Z</time>
      </trkpt>
      <trkpt lat="59.699035976082087" lon="8.37504199706018">
        <ele>1023.875</ele>
        <time>2019-06-22T13:21:07Z</time>
      </trkpt>
      <trkpt lat="59.699116023257375" lon="8.374996986240149">
        <ele>1023.46875</ele>
        <time>2019-06-22T13:21:10Z</time>
      </trkpt>
      <trkpt lat="59.69919397495687" lon="8.37497896514833">
        <ele>1022.68359375</ele>
        <time>2019-06-22T13:21:13Z</time>
      </trkpt>
      <trkpt lat="59.699282990768552" lon="8.37504199706018">
        <ele>1021.57421875</ele>
        <time>2019-06-22T13:21:17Z</time>
      </trkpt>
      <trkpt lat="59.699478037655354" lon="8.375031016767025">
        <ele>1020.421875</ele>
        <time>2019-06-22T13:21:25Z</time>
      </trkpt>
      <trkpt lat="59.699695967137814" lon="8.374894978478551">
        <ele>1019.98046875</ele>
        <time>2019-06-22T13:21:35Z</time>
      </trkpt>
      <trkpt lat="59.699839968234301" lon="8.374809985980392">
        <ele>1020.05859375</ele>
        <time>2019-06-22T13:21:41Z</time>
      </trkpt>
      <trkpt lat="59.699890008196235" lon="8.374811997637153">
        <ele>1020.01953125</ele>
        <time>2019-06-22T13:21:43Z</time>
      </trkpt>
      <trkpt lat="59.700148003175855" lon="8.374681994318962">
        <ele>1020.14453125</ele>
        <time>2019-06-22T13:21:54Z</time>
      </trkpt>
      <trkpt lat="59.700256967917085" lon="8.374700015410781">
        <ele>1020.21484375</ele>
        <time>2019-06-22T13:22:02Z</time>
      </trkpt>
      <trkpt lat="59.700380014255643" lon="8.374877041205764">
        <ele>1020.6328125</ele>
        <time>2019-06-22T13:22:10Z</time>
      </trkpt>
      <trkpt lat="59.700427036732435" lon="8.374921968206763">
        <ele>1020.75</ele>
        <time>2019-06-22T13:22:13Z</time>
      </trkpt>
      <trkpt lat="59.700476992875338" lon="8.37500000372529">
        <ele>1020.859375</ele>
        <time>2019-06-22T13:22:17Z</time>
      </trkpt>
      <trkpt lat="59.700528038665652" lon="8.375073010101914">
        <ele>1020.97265625</ele>
        <time>2019-06-22T13:22:20Z</time>
      </trkpt>
      <trkpt lat="59.700585035607219" lon="8.375115003436804">
        <ele>1021.07421875</ele>
        <time>2019-06-22T13:22:23Z</time>
      </trkpt>
      <trkpt lat="59.700668016448617" lon="8.375189015641809">
        <ele>1021.0625</ele>
        <time>2019-06-22T13:22:28Z</time>
      </trkpt>
      <trkpt lat="59.700749991461635" lon="8.375261016190052">
        <ele>1021.0625</ele>
        <time>2019-06-22T13:22:34Z</time>
      </trkpt>
      <trkpt lat="59.700925005599856" lon="8.375217011198402">
        <ele>1021.5234375</ele>
        <time>2019-06-22T13:22:44Z</time>
      </trkpt>
      <trkpt lat="59.700982002541423" lon="8.375147022306919">
        <ele>1022.1015625</ele>
        <time>2019-06-22T13:22:47Z</time>
      </trkpt>
      <trkpt lat="59.701129021123052" lon="8.375052977353334">
        <ele>1023.8203125</ele>
        <time>2019-06-22T13:22:55Z</time>
      </trkpt>
      <trkpt lat="59.701264975592494" lon="8.374943006783724">
        <ele>1024.51953125</ele>
        <time>2019-06-22T13:23:04Z</time>
      </trkpt>
      <trkpt lat="59.701346028596163" lon="8.374910987913609">
        <ele>1024.67578125</ele>
        <time>2019-06-22T13:23:13Z</time>
      </trkpt>
      <trkpt lat="59.70134200528264" lon="8.374923979863524">
        <ele>1024.578125</ele>
        <time>2019-06-22T13:24:02Z</time>
      </trkpt>
      <trkpt lat="59.701288025826216" lon="8.375001009553671">
        <ele>1024.046875</ele>
        <time>2019-06-22T13:24:21Z</time>
      </trkpt>
      <trkpt lat="59.701290037482977" lon="8.374990029260516">
        <ele>1024.12890625</ele>
        <time>2019-06-22T13:25:27Z</time>
      </trkpt>
      <trkpt lat="59.701285008341074" lon="8.374937977641821">
        <ele>1024.53515625</ele>
        <time>2019-06-22T13:25:49Z</time>
      </trkpt>
      <trkpt lat="59.701284002512693" lon="8.374925991520286">
        <ele>1024.62890625</ele>
        <time>2019-06-22T13:29:09Z</time>
      </trkpt>
      <trkpt lat="59.701282996684313" lon="8.374923979863524">
        <ele>1024.64453125</ele>
        <time>2019-06-22T13:29:29Z</time>
      </trkpt>
      <trkpt lat="59.701373018324375" lon="8.374872012063861">
        <ele>1024.90625</ele>
        <time>2019-06-22T13:29:34Z</time>
      </trkpt>
      <trkpt lat="59.701537974178791" lon="8.374672019854188">
        <ele>1025.5</ele>
        <time>2019-06-22T13:29:43Z</time>
      </trkpt>
      <trkpt lat="59.70164299942553" lon="8.374595995992422">
        <ele>1026.21484375</ele>
        <time>2019-06-22T13:29:52Z</time>
      </trkpt>
      <trkpt lat="59.701787000522017" lon="8.374522989615798">
        <ele>1027.4921875</ele>
        <time>2019-06-22T13:30:13Z</time>
      </trkpt>
      <trkpt lat="59.701809966936707" lon="8.374502034857869">
        <ele>1027.8828125</ele>
        <time>2019-06-22T13:30:25Z</time>
      </trkpt>
      <trkpt lat="59.701896971091628" lon="8.374427016824484">
        <ele>1029.24609375</ele>
        <time>2019-06-22T13:30:39Z</time>
      </trkpt>
      <trkpt lat="59.70192002132535" lon="8.374418970197439">
        <ele>1029.36328125</ele>
        <time>2019-06-22T13:30:40Z</time>
      </trkpt>
      <trkpt lat="59.701953968033195" lon="8.374405978247523">
        <ele>1029.5546875</ele>
        <time>2019-06-22T13:30:42Z</time>
      </trkpt>
      <trkpt lat="59.702193019911647" lon="8.37431201711297">
        <ele>1030.9375</ele>
        <time>2019-06-22T13:30:51Z</time>
      </trkpt>
      <trkpt lat="59.702255968004465" lon="8.37435501627624">
        <ele>1029.89453125</ele>
        <time>2019-06-22T13:30:54Z</time>
      </trkpt>
      <trkpt lat="59.702473981305957" lon="8.374304976314306">
        <ele>1030.15625</ele>
        <time>2019-06-22T13:31:03Z</time>
      </trkpt>
      <trkpt lat="59.702517986297607" lon="8.374285027384758">
        <ele>1030.38671875</ele>
        <time>2019-06-22T13:31:05Z</time>
      </trkpt>
      <trkpt lat="59.70256601460278" lon="8.374319979920983">
        <ele>1029.43359375</ele>
        <time>2019-06-22T13:31:07Z</time>
      </trkpt>
      <trkpt lat="59.702666010707617" lon="8.374301958829165">
        <ele>1029.23828125</ele>
        <time>2019-06-22T13:31:11Z</time>
      </trkpt>
      <trkpt lat="59.702713033184409" lon="8.37429097853601">
        <ele>1029.19921875</ele>
        <time>2019-06-22T13:31:13Z</time>
      </trkpt>
      <trkpt lat="59.702852005138993" lon="8.374300030991435">
        <ele>1027.4765625</ele>
        <time>2019-06-22T13:31:19Z</time>
      </trkpt>
      <trkpt lat="59.702945966273546" lon="8.374365996569395">
        <ele>1024.9140625</ele>
        <time>2019-06-22T13:31:23Z</time>
      </trkpt>
      <trkpt lat="59.703089967370033" lon="8.374306987971067">
        <ele>1023.24609375</ele>
        <time>2019-06-22T13:31:29Z</time>
      </trkpt>
      <trkpt lat="59.703242015093565" lon="8.374199029058218">
        <ele>1022.14453125</ele>
        <time>2019-06-22T13:31:36Z</time>
      </trkpt>
      <trkpt lat="59.703265987336636" lon="8.374191988259554">
        <ele>1021.8671875</ele>
        <time>2019-06-22T13:31:37Z</time>
      </trkpt>
      <trkpt lat="59.70340303145349" lon="8.374072965234518">
        <ele>1021.07421875</ele>
        <time>2019-06-22T13:31:44Z</time>
      </trkpt>
      <trkpt lat="59.703587014228106" lon="8.373884037137032">
        <ele>1021.87109375</ele>
        <time>2019-06-22T13:31:53Z</time>
      </trkpt>
      <trkpt lat="59.703756999224424" lon="8.373702988028526">
        <ele>1023.1796875</ele>
        <time>2019-06-22T13:32:01Z</time>
      </trkpt>
      <trkpt lat="59.703928995877504" lon="8.373597962781787">
        <ele>1023.3515625</ele>
        <time>2019-06-22T13:32:08Z</time>
      </trkpt>
      <trkpt lat="59.703969983384013" lon="8.373556975275278">
        <ele>1023.58203125</ele>
        <time>2019-06-22T13:32:10Z</time>
      </trkpt>
      <trkpt lat="59.704126976430416" lon="8.373422026634216">
        <ele>1024.328125</ele>
        <time>2019-06-22T13:32:18Z</time>
      </trkpt>
      <trkpt lat="59.704253040254116" lon="8.373189009726048">
        <ele>1026.01953125</ele>
        <time>2019-06-22T13:32:27Z</time>
      </trkpt>
      <trkpt lat="59.704401986673474" lon="8.373036039993167">
        <ele>1024.31640625</ele>
        <time>2019-06-22T13:32:36Z</time>
      </trkpt>
      <trkpt lat="59.704458983615041" lon="8.373030005022883">
        <ele>1023.0859375</ele>
        <time>2019-06-22T13:32:39Z</time>
      </trkpt>
      <trkpt lat="59.704617988318205" lon="8.372961021959782">
        <ele>1021.92578125</ele>
        <time>2019-06-22T13:32:48Z</time>
      </trkpt>
      <trkpt lat="59.704789984971285" lon="8.372797993943095">
        <ele>1023.8671875</ele>
        <time>2019-06-22T13:32:56Z</time>
      </trkpt>
      <trkpt lat="59.704913031309843" lon="8.372692968696356">
        <ele>1025.375</ele>
        <time>2019-06-22T13:33:04Z</time>
      </trkpt>
      <trkpt lat="59.704983020201325" lon="8.372676959261298">
        <ele>1025.41015625</ele>
        <time>2019-06-22T13:33:07Z</time>
      </trkpt>
      <trkpt lat="59.705146970227361" lon="8.372670002281666">
        <ele>1026.33203125</ele>
        <time>2019-06-22T13:33:15Z</time>
      </trkpt>
      <trkpt lat="59.705183012410998" lon="8.372665978968144">
        <ele>1026.63671875</ele>
        <time>2019-06-22T13:33:17Z</time>
      </trkpt>
      <trkpt lat="59.705199021846056" lon="8.372684000059962">
        <ele>1026.453125</ele>
        <time>2019-06-22T13:33:19Z</time>
      </trkpt>
      <trkpt lat="59.705263981595635" lon="8.372633038088679">
        <ele>1027.7109375</ele>
        <time>2019-06-22T13:33:32Z</time>
      </trkpt>
      <trkpt lat="59.705354003235698" lon="8.372567994520068">
        <ele>1029.74609375</ele>
        <time>2019-06-22T13:33:40Z</time>
      </trkpt>
      <trkpt lat="59.705440001562238" lon="8.372474033385515">
        <ele>1032.2421875</ele>
        <time>2019-06-22T13:33:53Z</time>
      </trkpt>
      <trkpt lat="59.70550898462534" lon="8.372524995356798">
        <ele>1032.2890625</ele>
        <time>2019-06-22T13:34:02Z</time>
      </trkpt>
      <trkpt lat="59.705524994060397" lon="8.37252801284194">
        <ele>1032.4375</ele>
        <time>2019-06-22T13:34:08Z</time>
      </trkpt>
      <trkpt lat="59.705537986010313" lon="8.372518038377166">
        <ele>1032.734375</ele>
        <time>2019-06-22T13:34:10Z</time>
      </trkpt>
      <trkpt lat="59.705564975738525" lon="8.372523989528418">
        <ele>1032.97265625</ele>
        <time>2019-06-22T13:34:16Z</time>
      </trkpt>
      <trkpt lat="59.705584002658725" lon="8.372463975101709">
        <ele>1033.96875</ele>
        <time>2019-06-22T13:34:22Z</time>
      </trkpt>
      <trkpt lat="59.705650974065065" lon="8.372390968725085">
        <ele>1035.45703125</ele>
        <time>2019-06-22T13:34:26Z</time>
      </trkpt>
      <trkpt lat="59.705692967399955" lon="8.372400021180511">
        <ele>1035.59375</ele>
        <time>2019-06-22T13:34:28Z</time>
      </trkpt>
      <trkpt lat="59.705752981826663" lon="8.372368002310395">
        <ele>1036.4453125</ele>
        <time>2019-06-22T13:34:32Z</time>
      </trkpt>
      <trkpt lat="59.705849960446358" lon="8.372492976486683">
        <ele>1035.3984375</ele>
        <time>2019-06-22T13:34:42Z</time>
      </trkpt>
      <trkpt lat="59.705880973488092" lon="8.372585009783506">
        <ele>1034.42578125</ele>
        <time>2019-06-22T13:35:07Z</time>
      </trkpt>
      <trkpt lat="59.705870999023318" lon="8.372600013390183">
        <ele>1034.16015625</ele>
        <time>2019-06-22T13:35:09Z</time>
      </trkpt>
      <trkpt lat="59.705722974613309" lon="8.372992035001516">
        <ele>1027.93359375</ele>
        <time>2019-06-22T13:35:18Z</time>
      </trkpt>
      <trkpt lat="59.705654997378588" lon="8.373461002483964">
        <ele>1022.6796875</ele>
        <time>2019-06-22T13:35:27Z</time>
      </trkpt>
      <trkpt lat="59.705682992935181" lon="8.373491009697318">
        <ele>1022.859375</ele>
        <time>2019-06-22T13:35:37Z</time>
      </trkpt>
      <trkpt lat="59.705694979056716" lon="8.373832991346717">
        <ele>1021.56640625</ele>
        <time>2019-06-22T13:35:47Z</time>
      </trkpt>
      <trkpt lat="59.705753987655044" lon="8.373945979401469">
        <ele>1021.33984375</ele>
        <time>2019-06-22T13:35:55Z</time>
      </trkpt>
      <trkpt lat="59.705755999311805" lon="8.373942039906979">
        <ele>1021.38671875</ele>
        <time>2019-06-22T13:36:02Z</time>
      </trkpt>
      <trkpt lat="59.705919027328491" lon="8.374081011861563">
        <ele>1021.08984375</ele>
        <time>2019-06-22T13:36:11Z</time>
      </trkpt>
      <trkpt lat="59.705942999571562" lon="8.374262982979417">
        <ele>1020.515625</ele>
        <time>2019-06-22T13:36:21Z</time>
      </trkpt>
      <trkpt lat="59.705953979864717" lon="8.374367002397776">
        <ele>1020.1875</ele>
        <time>2019-06-22T13:36:29Z</time>
      </trkpt>
      <trkpt lat="59.705997984856367" lon="8.374359961599112">
        <ele>1020.2578125</ele>
        <time>2019-06-22T13:36:33Z</time>
      </trkpt>
      <trkpt lat="59.706013994291425" lon="8.374384017661214">
        <ele>1020.1953125</ele>
        <time>2019-06-22T13:36:36Z</time>
      </trkpt>
      <trkpt lat="59.705993961542845" lon="8.374538999050856">
        <ele>1019.66015625</ele>
        <time>2019-06-22T13:36:43Z</time>
      </trkpt>
      <trkpt lat="59.705925984308124" lon="8.374471021816135">
        <ele>1019.8125</ele>
        <time>2019-06-22T13:36:48Z</time>
      </trkpt>
      <trkpt lat="59.705933025106788" lon="8.374614017084241">
        <ele>1019.34765625</ele>
        <time>2019-06-22T13:36:59Z</time>
      </trkpt>
      <trkpt lat="59.705991027876735" lon="8.374750977382064">
        <ele>1019.171875</ele>
        <time>2019-06-22T13:37:08Z</time>
      </trkpt>
      <trkpt lat="59.706026986241341" lon="8.374810991808772">
        <ele>1019.08203125</ele>
        <time>2019-06-22T13:37:13Z</time>
      </trkpt>
      <trkpt lat="59.706077026203275" lon="8.374789031222463">
        <ele>1019.14453125</ele>
        <time>2019-06-22T13:37:16Z</time>
      </trkpt>
      <trkpt lat="59.706156989559531" lon="8.374765980988741">
        <ele>1019.1953125</ele>
        <time>2019-06-22T13:37:20Z</time>
      </trkpt>
      <trkpt lat="59.706338038668036" lon="8.374681994318962">
        <ele>1019.34375</ele>
        <time>2019-06-22T13:37:29Z</time>
      </trkpt>
      <trkpt lat="59.706461001187563" lon="8.374671014025807">
        <ele>1019.17578125</ele>
        <time>2019-06-22T13:37:34Z</time>
      </trkpt>
      <trkpt lat="59.706568960100412" lon="8.37467797100544">
        <ele>1018.82421875</ele>
        <time>2019-06-22T13:37:38Z</time>
      </trkpt>
      <trkpt lat="59.706831984221935" lon="8.374593984335661">
        <ele>1019.046875</ele>
        <time>2019-06-22T13:37:47Z</time>
      </trkpt>
      <trkpt lat="59.70707799308002" lon="8.374529024586082">
        <ele>1019.484375</ele>
        <time>2019-06-22T13:37:56Z</time>
      </trkpt>
      <trkpt lat="59.707242026925087" lon="8.374541010707617">
        <ele>1019.37890625</ele>
        <time>2019-06-22T13:38:03Z</time>
      </trkpt>
      <trkpt lat="59.707425003871322" lon="8.374792970716953">
        <ele>1018.42578125</ele>
        <time>2019-06-22T13:38:12Z</time>
      </trkpt>
      <trkpt lat="59.707517959177494" lon="8.37504300288856">
        <ele>1018.01171875</ele>
        <time>2019-06-22T13:38:20Z</time>
      </trkpt>
      <trkpt lat="59.707513013854623" lon="8.375346008688211">
        <ele>1018.01171875</ele>
        <time>2019-06-22T13:38:27Z</time>
      </trkpt>
      <trkpt lat="59.707584008574486" lon="8.375614983960986">
        <ele>1017.8828125</ele>
        <time>2019-06-22T13:38:33Z</time>
      </trkpt>
      <trkpt lat="59.707634970545769" lon="8.375867027789354">
        <ele>1017.61328125</ele>
        <time>2019-06-22T13:38:40Z</time>
      </trkpt>
      <trkpt lat="59.707684004679322" lon="8.375978004187346">
        <ele>1017.5234375</ele>
        <time>2019-06-22T13:38:48Z</time>
      </trkpt>
      <trkpt lat="59.707719041034579" lon="8.376002982258797">
        <ele>1017.5625</ele>
        <time>2019-06-22T13:38:50Z</time>
      </trkpt>
      <trkpt lat="59.707919033244252" lon="8.376078000292182">
        <ele>1018.21875</ele>
        <time>2019-06-22T13:38:59Z</time>
      </trkpt>
      <trkpt lat="59.708078037947416" lon="8.376061990857124">
        <ele>1018.7109375</ele>
        <time>2019-06-22T13:39:07Z</time>
      </trkpt>
      <trkpt lat="59.708206029608846" lon="8.376039024442434">
        <ele>1018.984375</ele>
        <time>2019-06-22T13:39:13Z</time>
      </trkpt>
      <trkpt lat="59.708414990454912" lon="8.376157963648439">
        <ele>1019.6328125</ele>
        <time>2019-06-22T13:39:23Z</time>
      </trkpt>
      <trkpt lat="59.708450026810169" lon="8.376156035810709">
        <ele>1019.66796875</ele>
        <time>2019-06-22T13:39:25Z</time>
      </trkpt>
      <trkpt lat="59.708620011806488" lon="8.376343036070466">
        <ele>1019.96875</ele>
        <time>2019-06-22T13:39:37Z</time>
      </trkpt>
      <trkpt lat="59.708735011518002" lon="8.376607988029718">
        <ele>1020.65625</ele>
        <time>2019-06-22T13:39:48Z</time>
      </trkpt>
      <trkpt lat="59.708856968209147" lon="8.376682000234723">
        <ele>1020.86328125</ele>
        <time>2019-06-22T13:39:53Z</time>
      </trkpt>
      <trkpt lat="59.709068024531007" lon="8.37688903324306">
        <ele>1021.94921875</ele>
        <time>2019-06-22T13:40:03Z</time>
      </trkpt>
      <trkpt lat="59.709144970402122" lon="8.376962039619684">
        <ele>1022.53515625</ele>
        <time>2019-06-22T13:40:07Z</time>
      </trkpt>
      <trkpt lat="59.709262987598777" lon="8.377003027126193">
        <ele>1023.43359375</ele>
        <time>2019-06-22T13:40:13Z</time>
      </trkpt>
      <trkpt lat="59.709327025339007" lon="8.376961033791304">
        <ele>1023.7734375</ele>
        <time>2019-06-22T13:40:17Z</time>
      </trkpt>
      <trkpt lat="59.709432972595096" lon="8.376991963014007">
        <ele>1024.60546875</ele>
        <time>2019-06-22T13:40:27Z</time>
      </trkpt>
      <trkpt lat="59.709473038092256" lon="8.377019036561251">
        <ele>1024.90234375</ele>
        <time>2019-06-22T13:40:33Z</time>
      </trkpt>
      <trkpt lat="59.709541015326977" lon="8.377036973834038">
        <ele>1025.25</ele>
        <time>2019-06-22T13:40:37Z</time>
      </trkpt>
      <trkpt lat="59.709703037515283" lon="8.376979976892471">
        <ele>1026.08984375</ele>
        <time>2019-06-22T13:40:45Z</time>
      </trkpt>
      <trkpt lat="59.709748970344663" lon="8.376938989385963">
        <ele>1026.43359375</ele>
        <time>2019-06-22T13:40:48Z</time>
      </trkpt>
      <trkpt lat="59.709959020838141" lon="8.3769750315696">
        <ele>1027.62109375</ele>
        <time>2019-06-22T13:40:58Z</time>
      </trkpt>
      <trkpt lat="59.710036972537637" lon="8.376988023519516">
        <ele>1028.05859375</ele>
        <time>2019-06-22T13:41:01Z</time>
      </trkpt>
      <trkpt lat="59.710101010277867" lon="8.376962961629033">
        <ele>1028.28515625</ele>
        <time>2019-06-22T13:41:04Z</time>
      </trkpt>
      <trkpt lat="59.710167981684208" lon="8.376957010477781">
        <ele>1028.5390625</ele>
        <time>2019-06-22T13:41:08Z</time>
      </trkpt>
      <trkpt lat="59.710212992504239" lon="8.376904036849737">
        <ele>1028.4921875</ele>
        <time>2019-06-22T13:41:11Z</time>
      </trkpt>
      <trkpt lat="59.710279041901231" lon="8.376859026029706">
        <ele>1028.4609375</ele>
        <time>2019-06-22T13:41:15Z</time>
      </trkpt>
      <trkpt lat="59.710318017750978" lon="8.376830024644733">
        <ele>1028.4375</ele>
        <time>2019-06-22T13:41:18Z</time>
      </trkpt>
      <trkpt lat="59.710376020520926" lon="8.376852991059423">
        <ele>1028.73828125</ele>
        <time>2019-06-22T13:41:21Z</time>
      </trkpt>
      <trkpt lat="59.710438968613744" lon="8.376858020201325">
        <ele>1028.96484375</ele>
        <time>2019-06-22T13:41:24Z</time>
      </trkpt>
      <trkpt lat="59.710518009960651" lon="8.376843016594648">
        <ele>1029.15234375</ele>
        <time>2019-06-22T13:41:29Z</time>
      </trkpt>
      <trkpt lat="59.710623035207391" lon="8.376821978017688">
        <ele>1029.68359375</ele>
        <time>2019-06-22T13:41:35Z</time>
      </trkpt>
      <trkpt lat="59.710705010220408" lon="8.376924991607666">
        <ele>1030.703125</ele>
        <time>2019-06-22T13:41:42Z</time>
      </trkpt>
      <trkpt lat="59.710878012701869" lon="8.376922979950905">
        <ele>1031.859375</ele>
        <time>2019-06-22T13:41:51Z</time>
      </trkpt>
      <trkpt lat="59.710894022136927" lon="8.376914011314511">
        <ele>1031.90234375</ele>
        <time>2019-06-22T13:41:53Z</time>
      </trkpt>
      <trkpt lat="59.711033999919891" lon="8.376865983009338">
        <ele>1032.359375</ele>
        <time>2019-06-22T13:42:00Z</time>
      </trkpt>
      <trkpt lat="59.711175989359617" lon="8.376866988837719">
        <ele>1032.93359375</ele>
        <time>2019-06-22T13:42:08Z</time>
      </trkpt>
      <trkpt lat="59.711194010451436" lon="8.376874029636383">
        <ele>1033.0234375</ele>
        <time>2019-06-22T13:42:09Z</time>
      </trkpt>
      <trkpt lat="59.711316972970963" lon="8.37682600133121">
        <ele>1033.3125</ele>
        <time>2019-06-22T13:42:18Z</time>
      </trkpt>
      <trkpt lat="59.711416969075799" lon="8.376657022163272">
        <ele>1034.08984375</ele>
        <time>2019-06-22T13:42:25Z</time>
      </trkpt>
      <trkpt lat="59.711432978510857" lon="8.376612011343241">
        <ele>1034.27734375</ele>
        <time>2019-06-22T13:42:26Z</time>
      </trkpt>
      <trkpt lat="59.711458962410688" lon="8.376585021615028">
        <ele>1034.4765625</ele>
        <time>2019-06-22T13:42:28Z</time>
      </trkpt>
      <trkpt lat="59.711549989879131" lon="8.376487037166953">
        <ele>1035.05078125</ele>
        <time>2019-06-22T13:42:39Z</time>
      </trkpt>
      <trkpt lat="59.711561976000667" lon="8.376490976661444">
        <ele>1035.109375</ele>
        <time>2019-06-22T13:43:01Z</time>
      </trkpt>
      <trkpt lat="59.711624002084136" lon="8.376580998301506">
        <ele>1035.41015625</ele>
        <time>2019-06-22T13:43:08Z</time>
      </trkpt>
      <trkpt lat="59.711789963766932" lon="8.376712007448077">
        <ele>1036.52734375</ele>
        <time>2019-06-22T13:43:18Z</time>
      </trkpt>
      <trkpt lat="59.711833968758583" lon="8.376744026318193">
        <ele>1036.86328125</ele>
        <time>2019-06-22T13:43:23Z</time>
      </trkpt>
      <trkpt lat="59.712044019252062" lon="8.376649981364608">
        <ele>1037.953125</ele>
        <time>2019-06-22T13:43:44Z</time>
      </trkpt>
      <trkpt lat="59.712125994265079" lon="8.376613017171621">
        <ele>1038.18359375</ele>
        <time>2019-06-22T13:44:09Z</time>
      </trkpt>
      <trkpt lat="59.712306037545204" lon="8.376488965004683">
        <ele>1038.6015625</ele>
        <time>2019-06-22T13:44:18Z</time>
      </trkpt>
      <trkpt lat="59.712485997006297" lon="8.376337001100183">
        <ele>1038.99609375</ele>
        <time>2019-06-22T13:44:27Z</time>
      </trkpt>
      <trkpt lat="59.712666040286422" lon="8.376333983615041">
        <ele>1038.546875</ele>
        <time>2019-06-22T13:44:38Z</time>
      </trkpt>
      <trkpt lat="59.712709039449692" lon="8.376319985836744">
        <ele>1038.40234375</ele>
        <time>2019-06-22T13:44:51Z</time>
      </trkpt>
      <trkpt lat="59.712722031399608" lon="8.376316968351603">
        <ele>1038.359375</ele>
        <time>2019-06-22T13:45:17Z</time>
      </trkpt>
      <trkpt lat="59.712763018906116" lon="8.376297019422054">
        <ele>1038.2109375</ele>
        <time>2019-06-22T13:45:19Z</time>
      </trkpt>
      <trkpt lat="59.712842982262373" lon="8.376231975853443">
        <ele>1037.921875</ele>
        <time>2019-06-22T13:45:23Z</time>
      </trkpt>
      <trkpt lat="59.712901990860701" lon="8.376252008602023">
        <ele>1037.7265625</ele>
        <time>2019-06-22T13:45:41Z</time>
      </trkpt>
      <trkpt lat="59.713038029149175" lon="8.376469016075134">
        <ele>1037.6796875</ele>
        <time>2019-06-22T13:45:50Z</time>
      </trkpt>
      <trkpt lat="59.713110029697418" lon="8.376572029665113">
        <ele>1037.68359375</ele>
        <time>2019-06-22T13:45:56Z</time>
      </trkpt>
      <trkpt lat="59.71322201192379" lon="8.376699015498161">
        <ele>1037.59375</ele>
        <time>2019-06-22T13:46:07Z</time>
      </trkpt>
      <trkpt lat="59.713231986388564" lon="8.376717958599329">
        <ele>1037.60546875</ele>
        <time>2019-06-22T13:46:08Z</time>
      </trkpt>
      <trkpt lat="59.713355032727122" lon="8.377026999369264">
        <ele>1038.078125</ele>
        <time>2019-06-22T13:46:23Z</time>
      </trkpt>
      <trkpt lat="59.713374981656671" lon="8.377109980210662">
        <ele>1038.2890625</ele>
        <time>2019-06-22T13:46:39Z</time>
      </trkpt>
      <trkpt lat="59.713370036333799" lon="8.377122972160578">
        <ele>1038.34765625</ele>
        <time>2019-06-22T13:46:53Z</time>
      </trkpt>
      <trkpt lat="59.713367018848658" lon="8.377128001302481">
        <ele>1038.375</ele>
        <time>2019-06-22T13:47:10Z</time>
      </trkpt>
      <trkpt lat="59.713371964171529" lon="8.377122972160578">
        <ele>1038.34375</ele>
        <time>2019-06-22T13:47:21Z</time>
      </trkpt>
      <trkpt lat="59.713430972769856" lon="8.377058012410998">
        <ele>1037.9140625</ele>
        <time>2019-06-22T13:47:31Z</time>
      </trkpt>
      <trkpt lat="59.713433990254998" lon="8.377053989097476">
        <ele>1037.88671875</ele>
        <time>2019-06-22T13:48:28Z</time>
      </trkpt>
      <trkpt lat="59.713443964719772" lon="8.377076033502817">
        <ele>1037.93359375</ele>
        <time>2019-06-22T13:50:46Z</time>
      </trkpt>
      <trkpt lat="59.713441031053662" lon="8.377108974382281">
        <ele>1038.06640625</ele>
        <time>2019-06-22T13:51:15Z</time>
      </trkpt>
      <trkpt lat="59.713443964719772" lon="8.377110986039043">
        <ele>1038.0625</ele>
        <time>2019-06-22T13:53:19Z</time>
      </trkpt>
      <trkpt lat="59.71345997415483" lon="8.377492027357221">
        <ele>1039.20703125</ele>
        <time>2019-06-22T13:53:29Z</time>
      </trkpt>
      <trkpt lat="59.713511019945145" lon="8.377772988751531">
        <ele>1040.04296875</ele>
        <time>2019-06-22T13:53:37Z</time>
      </trkpt>
      <trkpt lat="59.713627025485039" lon="8.377944985404611">
        <ele>1040.859375</ele>
        <time>2019-06-22T13:53:46Z</time>
      </trkpt>
      <trkpt lat="59.713719980791211" lon="8.378100972622633">
        <ele>1043.03125</ele>
        <time>2019-06-22T13:53:54Z</time>
      </trkpt>
      <trkpt lat="59.713769014924765" lon="8.378129974007607">
        <ele>1043.5859375</ele>
        <time>2019-06-22T13:53:58Z</time>
      </trkpt>
      <trkpt lat="59.713923996314406" lon="8.378042969852686">
        <ele>1042.9453125</ele>
        <time>2019-06-22T13:54:10Z</time>
      </trkpt>
      <trkpt lat="59.713951991870999" lon="8.378045987337828">
        <ele>1043.1328125</ele>
        <time>2019-06-22T13:54:11Z</time>
      </trkpt>
      <trkpt lat="59.71406003460288" lon="8.378160987049341">
        <ele>1045.48046875</ele>
        <time>2019-06-22T13:54:21Z</time>
      </trkpt>
      <trkpt lat="59.714165981858969" lon="8.378361985087395">
        <ele>1049.421875</ele>
        <time>2019-06-22T13:54:32Z</time>
      </trkpt>
      <trkpt lat="59.714194983243942" lon="8.378417976200581">
        <ele>1050.68359375</ele>
        <time>2019-06-22T13:54:38Z</time>
      </trkpt>
      <trkpt lat="59.714259020984173" lon="8.378544962033629">
        <ele>1053.61328125</ele>
        <time>2019-06-22T13:54:47Z</time>
      </trkpt>
      <trkpt lat="59.714347030967474" lon="8.378664990887046">
        <ele>1056.65625</ele>
        <time>2019-06-22T13:54:57Z</time>
      </trkpt>
      <trkpt lat="59.714358011260629" lon="8.378741014748812">
        <ele>1057.98828125</ele>
        <time>2019-06-22T13:55:00Z</time>
      </trkpt>
      <trkpt lat="59.714414002373815" lon="8.378871018067002">
        <ele>1060.69140625</ele>
        <time>2019-06-22T13:55:08Z</time>
      </trkpt>
      <trkpt lat="59.714429005980492" lon="8.378923991695046">
        <ele>1061.68359375</ele>
        <time>2019-06-22T13:55:12Z</time>
      </trkpt>
      <trkpt lat="59.714567977935076" lon="8.379058018326759">
        <ele>1064.50390625</ele>
        <time>2019-06-22T13:55:21Z</time>
      </trkpt>
      <trkpt lat="59.714596979320049" lon="8.379064975306392">
        <ele>1064.7421875</ele>
        <time>2019-06-22T13:55:24Z</time>
      </trkpt>
      <trkpt lat="59.714714996516705" lon="8.379125995561481">
        <ele>1066.265625</ele>
        <time>2019-06-22T13:55:35Z</time>
      </trkpt>
      <trkpt lat="59.714733017608523" lon="8.379459008574486">
        <ele>1071.5703125</ele>
        <time>2019-06-22T13:55:47Z</time>
      </trkpt>
      <trkpt lat="59.714737040922046" lon="8.379522040486336">
        <ele>1072.4921875</ele>
        <time>2019-06-22T13:55:49Z</time>
      </trkpt>
      <trkpt lat="59.714730000123382" lon="8.379568979144096">
        <ele>1073.125</ele>
        <time>2019-06-22T13:55:52Z</time>
      </trkpt>
      <trkpt lat="59.714720025658607" lon="8.379649026319385">
        <ele>1074.1328125</ele>
        <time>2019-06-22T13:55:58Z</time>
      </trkpt>
      <trkpt lat="59.714714996516705" lon="8.379940968006849">
        <ele>1077.6640625</ele>
        <time>2019-06-22T13:56:08Z</time>
      </trkpt>
      <trkpt lat="59.714765036478639" lon="8.380034007132053">
        <ele>1079.296875</ele>
        <time>2019-06-22T13:56:16Z</time>
      </trkpt>
      <trkpt lat="59.714810969308019" lon="8.380121011286974">
        <ele>1080.84765625</ele>
        <time>2019-06-22T13:56:27Z</time>
      </trkpt>
      <trkpt lat="59.714811975136399" lon="8.38020097464323">
        <ele>1081.859375</ele>
        <time>2019-06-22T13:56:30Z</time>
      </trkpt>
      <trkpt lat="59.714794959872961" lon="8.380362996831536">
        <ele>1083.4375</ele>
        <time>2019-06-22T13:56:38Z</time>
      </trkpt>
      <trkpt lat="59.714777022600174" lon="8.380454024299979">
        <ele>1084.18359375</ele>
        <time>2019-06-22T13:56:44Z</time>
      </trkpt>
      <trkpt lat="59.714710973203182" lon="8.380560977384448">
        <ele>1084.1640625</ele>
        <time>2019-06-22T13:56:51Z</time>
      </trkpt>
      <trkpt lat="59.714674009010196" lon="8.38075996376574">
        <ele>1084.859375</ele>
        <time>2019-06-22T13:57:04Z</time>
      </trkpt>
      <trkpt lat="59.714730000123382" lon="8.380920980125666">
        <ele>1086.15234375</ele>
        <time>2019-06-22T13:57:17Z</time>
      </trkpt>
      <trkpt lat="59.71483401954174" lon="8.381098005920649">
        <ele>1089.31640625</ele>
        <time>2019-06-22T13:57:31Z</time>
      </trkpt>
      <trkpt lat="59.714874001219869" lon="8.381161959841847">
        <ele>1090.625</ele>
        <time>2019-06-22T13:57:40Z</time>
      </trkpt>
      <trkpt lat="59.714906020089984" lon="8.381227003410459">
        <ele>1091.73828125</ele>
        <time>2019-06-22T13:57:53Z</time>
      </trkpt>
      <trkpt lat="59.714938038960099" lon="8.381581977009773">
        <ele>1095.375</ele>
        <time>2019-06-22T13:58:08Z</time>
      </trkpt>
      <trkpt lat="59.714966034516692" lon="8.381821028888226">
        <ele>1097.984375</ele>
        <time>2019-06-22T13:58:18Z</time>
      </trkpt>
      <trkpt lat="59.71496301703155" lon="8.382182037457824">
        <ele>1102.86328125</ele>
        <time>2019-06-22T13:58:29Z</time>
      </trkpt>
      <trkpt lat="59.714973997324705" lon="8.382283039391041">
        <ele>1104.3125</ele>
        <time>2019-06-22T13:58:35Z</time>
      </trkpt>
      <trkpt lat="59.714991012588143" lon="8.38236995972693">
        <ele>1105.64453125</ele>
        <time>2019-06-22T13:58:39Z</time>
      </trkpt>
      <trkpt lat="59.715026970952749" lon="8.382527958601713">
        <ele>1108.0703125</ele>
        <time>2019-06-22T13:58:48Z</time>
      </trkpt>
      <trkpt lat="59.715040968731046" lon="8.382724011316896">
        <ele>1110.546875</ele>
        <time>2019-06-22T13:58:54Z</time>
      </trkpt>
      <trkpt lat="59.714943990111351" lon="8.382874969393015">
        <ele>1110.48046875</ele>
        <time>2019-06-22T13:59:02Z</time>
      </trkpt>
      <trkpt lat="59.714944995939732" lon="8.38292601518333">
        <ele>1110.91796875</ele>
        <time>2019-06-22T13:59:05Z</time>
      </trkpt>
      <trkpt lat="59.714933009818196" lon="8.382977982982993">
        <ele>1111.27734375</ele>
        <time>2019-06-22T13:59:08Z</time>
      </trkpt>
      <trkpt lat="59.71498497761786" lon="8.383063981309533">
        <ele>1113</ele>
        <time>2019-06-22T13:59:19Z</time>
      </trkpt>
      <trkpt lat="59.71500601619482" lon="8.383116032928228">
        <ele>1113.94140625</ele>
        <time>2019-06-22T13:59:24Z</time>
      </trkpt>
      <trkpt lat="59.715065024793148" lon="8.38329004123807">
        <ele>1117.28515625</ele>
        <time>2019-06-22T13:59:37Z</time>
      </trkpt>
      <trkpt lat="59.715254036709666" lon="8.383370004594326">
        <ele>1122.44140625</ele>
        <time>2019-06-22T13:59:54Z</time>
      </trkpt>
      <trkpt lat="59.715272979810834" lon="8.383449967950583">
        <ele>1123.828125</ele>
        <time>2019-06-22T14:00:00Z</time>
      </trkpt>
      <trkpt lat="59.71532897092402" lon="8.383543007075787">
        <ele>1126.51953125</ele>
        <time>2019-06-22T14:00:10Z</time>
      </trkpt>
      <trkpt lat="59.715423015877604" lon="8.383647026494145">
        <ele>1130.35546875</ele>
        <time>2019-06-22T14:00:24Z</time>
      </trkpt>
      <trkpt lat="59.715489987283945" lon="8.383741993457079">
        <ele>1133.171875</ele>
        <time>2019-06-22T14:00:38Z</time>
      </trkpt>
      <trkpt lat="59.715553019195795" lon="8.383842995390296">
        <ele>1135.51953125</ele>
        <time>2019-06-22T14:00:53Z</time>
      </trkpt>
      <trkpt lat="59.7156270314008" lon="8.383932011201978">
        <ele>1137.2109375</ele>
        <time>2019-06-22T14:01:05Z</time>
      </trkpt>
      <trkpt lat="59.715647986158729" lon="8.383945003151894">
        <ele>1137.58984375</ele>
        <time>2019-06-22T14:01:08Z</time>
      </trkpt>
      <trkpt lat="59.715711018070579" lon="8.383918013423681">
        <ele>1138.4296875</ele>
        <time>2019-06-22T14:01:15Z</time>
      </trkpt>
      <trkpt lat="59.715781006962061" lon="8.383913990110159">
        <ele>1139.4921875</ele>
        <time>2019-06-22T14:01:22Z</time>
      </trkpt>
      <trkpt lat="59.715895000845194" lon="8.383846012875438">
        <ele>1141.1015625</ele>
        <time>2019-06-22T14:01:37Z</time>
      </trkpt>
      <trkpt lat="59.715926013886929" lon="8.383818017318845">
        <ele>1141.51953125</ele>
        <time>2019-06-22T14:01:41Z</time>
      </trkpt>
      <trkpt lat="59.715959038585424" lon="8.383797984570265">
        <ele>1141.9921875</ele>
        <time>2019-06-22T14:01:45Z</time>
      </trkpt>
      <trkpt lat="59.716066997498274" lon="8.383585000410676">
        <ele>1144.05859375</ele>
        <time>2019-06-22T14:02:01Z</time>
      </trkpt>
      <trkpt lat="59.716135980561376" lon="8.383404035121203">
        <ele>1145.14453125</ele>
        <time>2019-06-22T14:02:17Z</time>
      </trkpt>
      <trkpt lat="59.716155007481575" lon="8.383352989330888">
        <ele>1145.26171875</ele>
        <time>2019-06-22T14:02:30Z</time>
      </trkpt>
      <trkpt lat="59.716222984716296" lon="8.383243018761277">
        <ele>1145.83984375</ele>
        <time>2019-06-22T14:03:01Z</time>
      </trkpt>
      <trkpt lat="59.716247962787747" lon="8.383161965757608">
        <ele>1145.95703125</ele>
        <time>2019-06-22T14:03:06Z</time>
      </trkpt>
      <trkpt lat="59.716287022456527" lon="8.383071022108197">
        <ele>1146.31640625</ele>
        <time>2019-06-22T14:03:12Z</time>
      </trkpt>
      <trkpt lat="59.716319041326642" lon="8.383006984367967">
        <ele>1146.70703125</ele>
        <time>2019-06-22T14:03:17Z</time>
      </trkpt>
      <trkpt lat="59.71633899025619" lon="8.383016958832741">
        <ele>1147.0234375</ele>
        <time>2019-06-22T14:03:20Z</time>
      </trkpt>
      <trkpt lat="59.716392969712615" lon="8.382977982982993">
        <ele>1147.85546875</ele>
        <time>2019-06-22T14:03:26Z</time>
      </trkpt>
      <trkpt lat="59.716420965269208" lon="8.382936995476484">
        <ele>1148.53125</ele>
        <time>2019-06-22T14:03:29Z</time>
      </trkpt>
      <trkpt lat="59.716469999402761" lon="8.382686963304877">
        <ele>1149.875</ele>
        <time>2019-06-22T14:03:42Z</time>
      </trkpt>
      <trkpt lat="59.716523978859186" lon="8.382533993571997">
        <ele>1152.23046875</ele>
        <time>2019-06-22T14:03:56Z</time>
      </trkpt>
      <trkpt lat="59.716606959700584" lon="8.38249702937901">
        <ele>1154.32421875</ele>
        <time>2019-06-22T14:04:08Z</time>
      </trkpt>
      <trkpt lat="59.716664962470531" lon="8.382371971383691">
        <ele>1155.9765625</ele>
        <time>2019-06-22T14:04:23Z</time>
      </trkpt>
      <trkpt lat="59.716755989938974" lon="8.38204700499773">
        <ele>1156.78125</ele>
        <time>2019-06-22T14:04:42Z</time>
      </trkpt>
      <trkpt lat="59.716912982985377" lon="8.381750034168363">
        <ele>1157.4453125</ele>
        <time>2019-06-22T14:05:06Z</time>
      </trkpt>
      <trkpt lat="59.717104006558657" lon="8.381453985348344">
        <ele>1158.41796875</ele>
        <time>2019-06-22T14:05:29Z</time>
      </trkpt>
      <trkpt lat="59.717256976291537" lon="8.381145028397441">
        <ele>1158.96484375</ele>
        <time>2019-06-22T14:05:53Z</time>
      </trkpt>
      <trkpt lat="59.717344986274838" lon="8.380992980673909">
        <ele>1159.7109375</ele>
        <time>2019-06-22T14:06:08Z</time>
      </trkpt>
      <trkpt lat="59.717407012358308" lon="8.380934977903962">
        <ele>1160.8984375</ele>
        <time>2019-06-22T14:06:14Z</time>
      </trkpt>
      <trkpt lat="59.717612033709884" lon="8.380878986790776">
        <ele>1163.7265625</ele>
        <time>2019-06-22T14:06:35Z</time>
      </trkpt>
      <trkpt lat="59.717699037864804" lon="8.380837999284267">
        <ele>1164.2890625</ele>
        <time>2019-06-22T14:06:52Z</time>
      </trkpt>
      <trkpt lat="59.717847984284163" lon="8.380699027329683">
        <ele>1164.3046875</ele>
        <time>2019-06-22T14:07:09Z</time>
      </trkpt>
      <trkpt lat="59.717958038672805" lon="8.380729034543037">
        <ele>1165.30078125</ele>
        <time>2019-06-22T14:07:24Z</time>
      </trkpt>
      <trkpt lat="59.718118971213698" lon="8.380774967372417">
        <ele>1166.4140625</ele>
        <time>2019-06-22T14:07:44Z</time>
      </trkpt>
      <trkpt lat="59.718168005347252" lon="8.380817966535687">
        <ele>1166.95703125</ele>
        <time>2019-06-22T14:07:56Z</time>
      </trkpt>
      <trkpt lat="59.71831301227212" lon="8.380896002054215">
        <ele>1168.22265625</ele>
        <time>2019-06-22T14:08:16Z</time>
      </trkpt>
      <trkpt lat="59.718341007828712" lon="8.380911005660892">
        <ele>1168.48828125</ele>
        <time>2019-06-22T14:08:31Z</time>
      </trkpt>
      <trkpt lat="59.718364980071783" lon="8.38099398650229">
        <ele>1169.50390625</ele>
        <time>2019-06-22T14:11:54Z</time>
      </trkpt>
      <trkpt lat="59.718494983389974" lon="8.380533987656236">
        <ele>1164.515625</ele>
        <time>2019-06-22T14:12:09Z</time>
      </trkpt>
      <trkpt lat="59.718812992796302" lon="8.38086599484086">
        <ele>1170.4609375</ele>
        <time>2019-06-22T14:18:29Z</time>
      </trkpt>
      <trkpt lat="59.718854986131191" lon="8.380922991782427">
        <ele>1171.39453125</ele>
        <time>2019-06-22T14:18:33Z</time>
      </trkpt>
      <trkpt lat="59.719054978340864" lon="8.380940007045865">
        <ele>1172.5390625</ele>
        <time>2019-06-22T14:18:50Z</time>
      </trkpt>
      <trkpt lat="59.719218006357551" lon="8.380888039246202">
        <ele>1172.71875</ele>
        <time>2019-06-22T14:19:05Z</time>
      </trkpt>
      <trkpt lat="59.719311967492104" lon="8.380847973749042">
        <ele>1172.64453125</ele>
        <time>2019-06-22T14:19:19Z</time>
      </trkpt>
      <trkpt lat="59.719313979148865" lon="8.380844034254551">
        <ele>1172.6328125</ele>
        <time>2019-06-22T14:19:46Z</time>
      </trkpt>
      <trkpt lat="59.719312973320484" lon="8.380837999284267">
        <ele>1172.61328125</ele>
        <time>2019-06-22T14:20:10Z</time>
      </trkpt>
      <trkpt lat="59.719313979148865" lon="8.380833975970745">
        <ele>1172.6015625</ele>
        <time>2019-06-22T14:20:27Z</time>
      </trkpt>
      <trkpt lat="59.719314984977245" lon="8.380837999284267">
        <ele>1172.6171875</ele>
        <time>2019-06-22T14:20:51Z</time>
      </trkpt>
      <trkpt lat="59.719359995797276" lon="8.380854008719325">
        <ele>1172.7265625</ele>
        <time>2019-06-22T14:21:54Z</time>
      </trkpt>
      <trkpt lat="59.719462003558874" lon="8.380813021212816">
        <ele>1172.87890625</ele>
        <time>2019-06-22T14:22:02Z</time>
      </trkpt>
      <trkpt lat="59.719637017697096" lon="8.380925003439188">
        <ele>1173.98046875</ele>
        <time>2019-06-22T14:22:13Z</time>
      </trkpt>
      <trkpt lat="59.719652021303773" lon="8.38092902675271">
        <ele>1174.09765625</ele>
        <time>2019-06-22T14:22:14Z</time>
      </trkpt>
      <trkpt lat="59.719771966338158" lon="8.380999015644193">
        <ele>1175.2265625</ele>
        <time>2019-06-22T14:22:21Z</time>
      </trkpt>
      <trkpt lat="59.719829969108105" lon="8.381009995937347">
        <ele>1175.359375</ele>
        <time>2019-06-22T14:22:24Z</time>
      </trkpt>
      <trkpt lat="59.719951003789902" lon="8.381018964573741">
        <ele>1175.48828125</ele>
        <time>2019-06-22T14:22:30Z</time>
      </trkpt>
      <trkpt lat="59.720020992681384" lon="8.381026005372405">
        <ele>1175.50390625</ele>
        <time>2019-06-22T14:22:34Z</time>
      </trkpt>
      <trkpt lat="59.720113025978208" lon="8.381023993715644">
        <ele>1175.06640625</ele>
        <time>2019-06-22T14:22:39Z</time>
      </trkpt>
      <trkpt lat="59.720228025689721" lon="8.38114402256906">
        <ele>1176.16015625</ele>
        <time>2019-06-22T14:22:47Z</time>
      </trkpt>
      <trkpt lat="59.720303965732455" lon="8.381241001188755">
        <ele>1177.203125</ele>
        <time>2019-06-22T14:22:56Z</time>
      </trkpt>
      <trkpt lat="59.720333972945809" lon="8.381277965381742">
        <ele>1177.7265625</ele>
        <time>2019-06-22T14:23:09Z</time>
      </trkpt>
      <trkpt lat="59.720339002087712" lon="8.3813819848001">
        <ele>1179.34765625</ele>
        <time>2019-06-22T14:23:21Z</time>
      </trkpt>
      <trkpt lat="59.720394993200898" lon="8.381419032812119">
        <ele>1180.015625</ele>
        <time>2019-06-22T14:23:30Z</time>
      </trkpt>
      <trkpt lat="59.720470011234283" lon="8.381516011431813">
        <ele>1181.703125</ele>
        <time>2019-06-22T14:23:39Z</time>
      </trkpt>
      <trkpt lat="59.720615018159151" lon="8.381577031686902">
        <ele>1183.3046875</ele>
        <time>2019-06-22T14:23:55Z</time>
      </trkpt>
      <trkpt lat="59.720674026757479" lon="8.381632016971707">
        <ele>1184.71875</ele>
        <time>2019-06-22T14:23:59Z</time>
      </trkpt>
      <trkpt lat="59.720736974850297" lon="8.381743999198079">
        <ele>1187.22265625</ele>
        <time>2019-06-22T14:24:09Z</time>
      </trkpt>
      <trkpt lat="59.720777962356806" lon="8.381946003064513">
        <ele>1191.140625</ele>
        <time>2019-06-22T14:24:19Z</time>
      </trkpt>
      <trkpt lat="59.720838982611895" lon="8.381986990571022">
        <ele>1192.44140625</ele>
        <time>2019-06-22T14:24:29Z</time>
      </trkpt>
      <trkpt lat="59.720945013687015" lon="8.382011968642473">
        <ele>1193.8671875</ele>
        <time>2019-06-22T14:24:41Z</time>
      </trkpt>
      <trkpt lat="59.721099995076656" lon="8.381975004449487">
        <ele>1194.50390625</ele>
        <time>2019-06-22T14:24:55Z</time>
      </trkpt>
      <trkpt lat="59.721205020323396" lon="8.381953965872526">
        <ele>1194.97265625</ele>
        <time>2019-06-22T14:25:06Z</time>
      </trkpt>
      <trkpt lat="59.721312979236245" lon="8.381862016394734">
        <ele>1193.83984375</ele>
        <time>2019-06-22T14:25:15Z</time>
      </trkpt>
      <trkpt lat="59.721358995884657" lon="8.381923958659172">
        <ele>1195.61328125</ele>
        <time>2019-06-22T14:25:22Z</time>
      </trkpt>
      <trkpt lat="59.721394032239914" lon="8.381942985579372">
        <ele>1196.4296875</ele>
        <time>2019-06-22T14:25:26Z</time>
      </trkpt>
      <trkpt lat="59.72149402834475" lon="8.381968969479203">
        <ele>1199.98828125</ele>
        <time>2019-06-22T14:25:40Z</time>
      </trkpt>
      <trkpt lat="59.721574997529387" lon="8.381893029436469">
        <ele>1200.5234375</ele>
        <time>2019-06-22T14:25:53Z</time>
      </trkpt>
      <trkpt lat="59.721584971994162" lon="8.381900992244482">
        <ele>1201.0078125</ele>
        <time>2019-06-22T14:25:55Z</time>
      </trkpt>
      <trkpt lat="59.721607016399503" lon="8.381871990859509">
        <ele>1200.9296875</ele>
        <time>2019-06-22T14:25:58Z</time>
      </trkpt>
      <trkpt lat="59.721627971157432" lon="8.381869979202747">
        <ele>1201.484375</ele>
        <time>2019-06-22T14:26:00Z</time>
      </trkpt>
      <trkpt lat="59.721652027219534" lon="8.381880037486553">
        <ele>1202.4296875</ele>
        <time>2019-06-22T14:26:04Z</time>
      </trkpt>
      <trkpt lat="59.721660995855927" lon="8.381885988637805">
        <ele>1202.83984375</ele>
        <time>2019-06-22T14:26:06Z</time>
      </trkpt>
      <trkpt lat="59.721682034432888" lon="8.381881965324283">
        <ele>1203.25</ele>
        <time>2019-06-22T14:26:09Z</time>
      </trkpt>
      <trkpt lat="59.721653033047915" lon="8.382038958370686">
        <ele>1206.453125</ele>
        <time>2019-06-22T14:26:16Z</time>
      </trkpt>
      <trkpt lat="59.721682034432888" lon="8.382186982780695">
        <ele>1210.97265625</ele>
        <time>2019-06-22T14:26:26Z</time>
      </trkpt>
      <trkpt lat="59.72166501916945" lon="8.38224096223712">
        <ele>1211.91796875</ele>
        <time>2019-06-22T14:26:29Z</time>
      </trkpt>
      <trkpt lat="59.72168899141252" lon="8.382312962785363">
        <ele>1214.3125</ele>
        <time>2019-06-22T14:26:36Z</time>
      </trkpt>
      <trkpt lat="59.721699971705675" lon="8.3823680318892">
        <ele>1215.94921875</ele>
        <time>2019-06-22T14:26:42Z</time>
      </trkpt>
      <trkpt lat="59.721701983362436" lon="8.382456041872501">
        <ele>1218.12109375</ele>
        <time>2019-06-22T14:26:48Z</time>
      </trkpt>
      <trkpt lat="59.72170801833272" lon="8.382587973028421">
        <ele>1221.37890625</ele>
        <time>2019-06-22T14:26:55Z</time>
      </trkpt>
      <trkpt lat="59.721823018044233" lon="8.382667014375329">
        <ele>1225.52734375</ele>
        <time>2019-06-22T14:27:05Z</time>
      </trkpt>
      <trkpt lat="59.721832992509007" lon="8.382670031860471">
        <ele>1225.79296875</ele>
        <time>2019-06-22T14:27:06Z</time>
      </trkpt>
      <trkpt lat="59.721855036914349" lon="8.382667014375329">
        <ele>1226.1640625</ele>
        <time>2019-06-22T14:27:08Z</time>
      </trkpt>
      <trkpt lat="59.72181798890233" lon="8.382912017405033">
        <ele>1229.87109375</ele>
        <time>2019-06-22T14:27:19Z</time>
      </trkpt>
      <trkpt lat="59.721936006098986" lon="8.383064987137914">
        <ele>1235.171875</ele>
        <time>2019-06-22T14:27:29Z</time>
      </trkpt>
      <trkpt lat="59.722025021910667" lon="8.383170012384653">
        <ele>1239.15625</ele>
        <time>2019-06-22T14:27:40Z</time>
      </trkpt>
      <trkpt lat="59.722106996923685" lon="8.383298004046083">
        <ele>1243.2421875</ele>
        <time>2019-06-22T14:27:53Z</time>
      </trkpt>
      <trkpt lat="59.722188971936703" lon="8.383411997929215">
        <ele>1246.69921875</ele>
        <time>2019-06-22T14:28:01Z</time>
      </trkpt>
      <trkpt lat="59.722309000790119" lon="8.383385008201003">
        <ele>1248</ele>
        <time>2019-06-22T14:28:11Z</time>
      </trkpt>
      <trkpt lat="59.722359962761402" lon="8.38333597406745">
        <ele>1248.0078125</ele>
        <time>2019-06-22T14:28:16Z</time>
      </trkpt>
      <trkpt lat="59.722400028258562" lon="8.383328011259437">
        <ele>1248.48828125</ele>
        <time>2019-06-22T14:28:18Z</time>
      </trkpt>
      <trkpt lat="59.722488038241863" lon="8.38325098156929">
        <ele>1248.8515625</ele>
        <time>2019-06-22T14:28:26Z</time>
      </trkpt>
      <trkpt lat="59.722563978284597" lon="8.383244024589658">
        <ele>1249.9140625</ele>
        <time>2019-06-22T14:28:30Z</time>
      </trkpt>
      <trkpt lat="59.72261200658977" lon="8.383290963247418">
        <ele>1251.07421875</ele>
        <time>2019-06-22T14:28:35Z</time>
      </trkpt>
      <trkpt lat="59.722714014351368" lon="8.383333962410688">
        <ele>1252.78515625</ele>
        <time>2019-06-22T14:28:46Z</time>
      </trkpt>
      <trkpt lat="59.722758019343019" lon="8.3833990059793">
        <ele>1253.73828125</ele>
        <time>2019-06-22T14:28:56Z</time>
      </trkpt>
      <trkpt lat="59.722866984084249" lon="8.383380984887481">
        <ele>1255.01171875</ele>
        <time>2019-06-22T14:29:10Z</time>
      </trkpt>
      <trkpt lat="59.722916018217802" lon="8.383394982665777">
        <ele>1255.69140625</ele>
        <time>2019-06-22T14:29:15Z</time>
      </trkpt>
      <trkpt lat="59.72297502681613" lon="8.383446028456092">
        <ele>1256.5625</ele>
        <time>2019-06-22T14:29:20Z</time>
      </trkpt>
      <trkpt lat="59.723097989335656" lon="8.383420966565609">
        <ele>1258.015625</ele>
        <time>2019-06-22T14:29:29Z</time>
      </trkpt>
      <trkpt lat="59.723155992105603" lon="8.383377967402339">
        <ele>1258.70703125</ele>
        <time>2019-06-22T14:29:35Z</time>
      </trkpt>
      <trkpt lat="59.723193040117621" lon="8.383133970201016">
        <ele>1259.03515625</ele>
        <time>2019-06-22T14:29:44Z</time>
      </trkpt>
      <trkpt lat="59.72334198653698" lon="8.382857032120228">
        <ele>1260.9453125</ele>
        <time>2019-06-22T14:30:01Z</time>
      </trkpt>
      <trkpt lat="59.723503002896905" lon="8.382593002170324">
        <ele>1260.08984375</ele>
        <time>2019-06-22T14:30:22Z</time>
      </trkpt>
      <trkpt lat="59.723722022026777" lon="8.382446989417076">
        <ele>1257.1640625</ele>
        <time>2019-06-22T14:30:43Z</time>
      </trkpt>
      <trkpt lat="59.723829980939627" lon="8.382365014404059">
        <ele>1254.18359375</ele>
        <time>2019-06-22T14:31:05Z</time>
      </trkpt>
      <trkpt lat="59.723851019516587" lon="8.38232796639204">
        <ele>1253.17578125</ele>
        <time>2019-06-22T14:31:08Z</time>
      </trkpt>
      <trkpt lat="59.723887983709574" lon="8.382311034947634">
        <ele>1252.19140625</ele>
        <time>2019-06-22T14:31:19Z</time>
      </trkpt>
      <trkpt lat="59.723939029499888" lon="8.382710013538599">
        <ele>1257.73046875</ele>
        <time>2019-06-22T14:31:28Z</time>
      </trkpt>
      <trkpt lat="59.723990997299552" lon="8.382994998246431">
        <ele>1261.08984375</ele>
        <time>2019-06-22T14:31:35Z</time>
      </trkpt>
      <trkpt lat="59.724126029759645" lon="8.383149979636073">
        <ele>1263.03125</ele>
        <time>2019-06-22T14:31:45Z</time>
      </trkpt>
      <trkpt lat="59.724140027537942" lon="8.383152997121215">
        <ele>1263.109375</ele>
        <time>2019-06-22T14:31:46Z</time>
      </trkpt>
      <trkpt lat="59.724175985902548" lon="8.383133970201016">
        <ele>1262.9453125</ele>
        <time>2019-06-22T14:31:49Z</time>
      </trkpt>
      <trkpt lat="59.724215967580676" lon="8.383160037919879">
        <ele>1263.640625</ele>
        <time>2019-06-22T14:31:57Z</time>
      </trkpt>
      <trkpt lat="59.724271036684513" lon="8.383125001564622">
        <ele>1263.4140625</ele>
        <time>2019-06-22T14:32:05Z</time>
      </trkpt>
      <trkpt lat="59.724298026412725" lon="8.383144028484821">
        <ele>1263.9375</ele>
        <time>2019-06-22T14:32:10Z</time>
      </trkpt>
      <trkpt lat="59.72443800419569" lon="8.383045960217714">
        <ele>1262.7578125</ele>
        <time>2019-06-22T14:32:24Z</time>
      </trkpt>
      <trkpt lat="59.724443033337593" lon="8.383042020723224">
        <ele>1262.6953125</ele>
        <time>2019-06-22T14:32:25Z</time>
      </trkpt>
      <trkpt lat="59.724478991702199" lon="8.383027017116547">
        <ele>1263.01953125</ele>
        <time>2019-06-22T14:32:28Z</time>
      </trkpt>
      <trkpt lat="59.724614024162292" lon="8.383005978539586">
        <ele>1265.015625</ele>
        <time>2019-06-22T14:32:38Z</time>
      </trkpt>
      <trkpt lat="59.72467496059835" lon="8.382984017953277">
        <ele>1265.5859375</ele>
        <time>2019-06-22T14:32:43Z</time>
      </trkpt>
      <trkpt lat="59.724790966138244" lon="8.382967002689838">
        <ele>1267.4375</ele>
        <time>2019-06-22T14:32:51Z</time>
      </trkpt>
      <trkpt lat="59.72484796307981" lon="8.382963985204697">
        <ele>1268.546875</ele>
        <time>2019-06-22T14:32:55Z</time>
      </trkpt>
      <trkpt lat="59.724874030798674" lon="8.382954010739923">
        <ele>1268.84375</ele>
        <time>2019-06-22T14:32:57Z</time>
      </trkpt>
      <trkpt lat="59.724941002205014" lon="8.382968008518219">
        <ele>1270.578125</ele>
        <time>2019-06-22T14:33:01Z</time>
      </trkpt>
      <trkpt lat="59.725080979987979" lon="8.382908999919891">
        <ele>1272.546875</ele>
        <time>2019-06-22T14:33:12Z</time>
      </trkpt>
      <trkpt lat="59.725134959444404" lon="8.382878992706537">
        <ele>1273.51953125</ele>
        <time>2019-06-22T14:33:19Z</time>
      </trkpt>
      <trkpt lat="59.725169995799661" lon="8.38284102268517">
        <ele>1274.12109375</ele>
        <time>2019-06-22T14:33:23Z</time>
      </trkpt>
      <trkpt lat="59.725310979411006" lon="8.382874969393015">
        <ele>1277.09765625</ele>
        <time>2019-06-22T14:33:39Z</time>
      </trkpt>
      <trkpt lat="59.725406030192971" lon="8.383128019049764">
        <ele>1280.25390625</ele>
        <time>2019-06-22T14:33:48Z</time>
      </trkpt>
      <trkpt lat="59.725467972457409" lon="8.383240001276135">
        <ele>1281.359375</ele>
        <time>2019-06-22T14:34:00Z</time>
      </trkpt>
      <trkpt lat="59.725545002147555" lon="8.383296998217702">
        <ele>1281.62890625</ele>
        <time>2019-06-22T14:34:12Z</time>
      </trkpt>
      <trkpt lat="59.725566040724516" lon="8.383362041786313">
        <ele>1282.51171875</ele>
        <time>2019-06-22T14:34:18Z</time>
      </trkpt>
      <trkpt lat="59.725718004629016" lon="8.383534960448742">
        <ele>1284.828125</ele>
        <time>2019-06-22T14:34:30Z</time>
      </trkpt>
      <trkpt lat="59.725802997127175" lon="8.38363403454423">
        <ele>1286.078125</ele>
        <time>2019-06-22T14:34:40Z</time>
      </trkpt>
      <trkpt lat="59.725935012102127" lon="8.383813994005323">
        <ele>1287.89453125</ele>
        <time>2019-06-22T14:34:53Z</time>
      </trkpt>
      <trkpt lat="59.72594004124403" lon="8.383822040632367">
        <ele>1288.05078125</ele>
        <time>2019-06-22T14:34:54Z</time>
      </trkpt>
      <trkpt lat="59.726027967408299" lon="8.3839809615165">
        <ele>1291.33203125</ele>
        <time>2019-06-22T14:35:04Z</time>
      </trkpt>
      <trkpt lat="59.726195018738508" lon="8.384124040603638">
        <ele>1294.67578125</ele>
        <time>2019-06-22T14:35:20Z</time>
      </trkpt>
      <trkpt lat="59.726417977362871" lon="8.384287990629673">
        <ele>1297.69921875</ele>
        <time>2019-06-22T14:35:41Z</time>
      </trkpt>
      <trkpt lat="59.726451002061367" lon="8.384314980357885">
        <ele>1298.078125</ele>
        <time>2019-06-22T14:35:44Z</time>
      </trkpt>
      <trkpt lat="59.726573964580894" lon="8.384320009499788">
        <ele>1298.484375</ele>
        <time>2019-06-22T14:35:56Z</time>
      </trkpt>
      <trkpt lat="59.726633979007602" lon="8.384382035583258">
        <ele>1299.45703125</ele>
        <time>2019-06-22T14:36:02Z</time>
      </trkpt>
      <trkpt lat="59.726567007601261" lon="8.38445495814085">
        <ele>1299.875</ele>
        <time>2019-06-22T14:36:08Z</time>
      </trkpt>
      <trkpt lat="59.726558960974216" lon="8.38445495814085">
        <ele>1299.82421875</ele>
        <time>2019-06-22T14:36:09Z</time>
      </trkpt>
      <trkpt lat="59.726558960974216" lon="8.384444983676076">
        <ele>1299.73046875</ele>
        <time>2019-06-22T14:36:10Z</time>
      </trkpt>
      <trkpt lat="59.726576982066035" lon="8.384503992274404">
        <ele>1300.42578125</ele>
        <time>2019-06-22T14:36:15Z</time>
      </trkpt>
      <trkpt lat="59.72658502869308" lon="8.384512038901448">
        <ele>1300.56640625</ele>
        <time>2019-06-22T14:36:16Z</time>
      </trkpt>
      <trkpt lat="59.726687036454678" lon="8.384747989475727">
        <ele>1303.296875</ele>
        <time>2019-06-22T14:36:30Z</time>
      </trkpt>
      <trkpt lat="59.726674966514111" lon="8.384881010279059">
        <ele>1304.1484375</ele>
        <time>2019-06-22T14:36:37Z</time>
      </trkpt>
      <trkpt lat="59.726547980681062" lon="8.385121989995241">
        <ele>1308.0859375</ele>
        <time>2019-06-22T14:36:51Z</time>
      </trkpt>
      <trkpt lat="59.726425018161535" lon="8.385135987773538">
        <ele>1309.19140625</ele>
        <time>2019-06-22T14:36:59Z</time>
      </trkpt>
      <trkpt lat="59.726414959877729" lon="8.385136993601918">
        <ele>1309.28125</ele>
        <time>2019-06-22T14:37:00Z</time>
      </trkpt>
      <trkpt lat="59.726396016776562" lon="8.385135987773538">
        <ele>1309.40234375</ele>
        <time>2019-06-22T14:37:03Z</time>
      </trkpt>
      <trkpt lat="59.726373972371221" lon="8.385158032178879">
        <ele>1309.98828125</ele>
        <time>2019-06-22T14:37:09Z</time>
      </trkpt>
      <trkpt lat="59.726351005956531" lon="8.385159960016608">
        <ele>1310.296875</ele>
        <time>2019-06-22T14:37:11Z</time>
      </trkpt>
      <trkpt lat="59.726160988211632" lon="8.38533497415483">
        <ele>1314.62890625</ele>
        <time>2019-06-22T14:37:21Z</time>
      </trkpt>
      <trkpt lat="59.725991003215313" lon="8.385545024648309">
        <ele>1317.765625</ele>
        <time>2019-06-22T14:37:34Z</time>
      </trkpt>
      <trkpt lat="59.725878015160561" lon="8.385795978829265">
        <ele>1319.421875</ele>
        <time>2019-06-22T14:37:43Z</time>
      </trkpt>
      <trkpt lat="59.72583401016891" lon="8.386010974645615">
        <ele>1320.36328125</ele>
        <time>2019-06-22T14:37:52Z</time>
      </trkpt>
      <trkpt lat="59.725864017382264" lon="8.386294031515718">
        <ele>1320.52734375</ele>
        <time>2019-06-22T14:38:00Z</time>
      </trkpt>
      <trkpt lat="59.725833004340529" lon="8.386367037892342">
        <ele>1320.859375</ele>
        <time>2019-06-22T14:38:05Z</time>
      </trkpt>
      <trkpt lat="59.725678022950888" lon="8.386548003181815">
        <ele>1323.6171875</ele>
        <time>2019-06-22T14:38:17Z</time>
      </trkpt>
      <trkpt lat="59.725574003532529" lon="8.386669037863612">
        <ele>1325.84375</ele>
        <time>2019-06-22T14:38:27Z</time>
      </trkpt>
      <trkpt lat="59.725505020469427" lon="8.386789988726378">
        <ele>1328.69921875</ele>
        <time>2019-06-22T14:38:35Z</time>
      </trkpt>
      <trkpt lat="59.725455986335874" lon="8.3869459759444">
        <ele>1330.80859375</ele>
        <time>2019-06-22T14:38:45Z</time>
      </trkpt>
      <trkpt lat="59.725402006879449" lon="8.387132976204157">
        <ele>1332.94921875</ele>
        <time>2019-06-22T14:38:54Z</time>
      </trkpt>
      <trkpt lat="59.725306034088135" lon="8.387363981455565">
        <ele>1336.84765625</ele>
        <time>2019-06-22T14:39:07Z</time>
      </trkpt>
      <trkpt lat="59.725231016054749" lon="8.387480992823839">
        <ele>1338.9296875</ele>
        <time>2019-06-22T14:39:17Z</time>
      </trkpt>
      <trkpt lat="59.725230010226369" lon="8.387537989765406">
        <ele>1339</ele>
        <time>2019-06-22T14:39:20Z</time>
      </trkpt>
      <trkpt lat="59.725184999406338" lon="8.387710992246866">
        <ele>1340.23828125</ele>
        <time>2019-06-22T14:39:31Z</time>
      </trkpt>
      <trkpt lat="59.725121967494488" lon="8.387905033305287">
        <ele>1342.1640625</ele>
        <time>2019-06-22T14:39:42Z</time>
      </trkpt>
      <trkpt lat="59.725040998309851" lon="8.388111982494593">
        <ele>1344.2734375</ele>
        <time>2019-06-22T14:39:51Z</time>
      </trkpt>
      <trkpt lat="59.724947959184647" lon="8.388210972771049">
        <ele>1346.30859375</ele>
        <time>2019-06-22T14:40:01Z</time>
      </trkpt>
      <trkpt lat="59.724915018305182" lon="8.388438960537314">
        <ele>1347.14453125</ele>
        <time>2019-06-22T14:40:12Z</time>
      </trkpt>
      <trkpt lat="59.724908983334899" lon="8.388689998537302">
        <ele>1347.95703125</ele>
        <time>2019-06-22T14:40:21Z</time>
      </trkpt>
      <trkpt lat="59.724857015535235" lon="8.389012031257153">
        <ele>1351.21875</ele>
        <time>2019-06-22T14:40:32Z</time>
      </trkpt>
      <trkpt lat="59.724818039685488" lon="8.389347977936268">
        <ele>1354.65625</ele>
        <time>2019-06-22T14:40:43Z</time>
      </trkpt>
      <trkpt lat="59.724832037463784" lon="8.389667998999357">
        <ele>1357.0625</ele>
        <time>2019-06-22T14:40:54Z</time>
      </trkpt>
      <trkpt lat="59.724821979179978" lon="8.3899300172925">
        <ele>1359.22265625</ele>
        <time>2019-06-22T14:41:03Z</time>
      </trkpt>
      <trkpt lat="59.724852992221713" lon="8.390178959816694">
        <ele>1361.60546875</ele>
        <time>2019-06-22T14:41:16Z</time>
      </trkpt>
      <trkpt lat="59.724946031346917" lon="8.390441983938217">
        <ele>1364.33984375</ele>
        <time>2019-06-22T14:41:27Z</time>
      </trkpt>
      <trkpt lat="59.725025994703174" lon="8.390634013339877">
        <ele>1366.96484375</ele>
        <time>2019-06-22T14:41:35Z</time>
      </trkpt>
      <trkpt lat="59.725150968879461" lon="8.391123013570905">
        <ele>1371.1171875</ele>
        <time>2019-06-22T14:41:56Z</time>
      </trkpt>
      <trkpt lat="59.725198997184634" lon="8.391285035759211">
        <ele>1372.19140625</ele>
        <time>2019-06-22T14:42:03Z</time>
      </trkpt>
      <trkpt lat="59.725273009389639" lon="8.391459966078401">
        <ele>1372.7109375</ele>
        <time>2019-06-22T14:42:11Z</time>
      </trkpt>
      <trkpt lat="59.72536101937294" lon="8.391633974388242">
        <ele>1375.8046875</ele>
        <time>2019-06-22T14:42:21Z</time>
      </trkpt>
      <trkpt lat="59.725377028807998" lon="8.391735982149839">
        <ele>1377.84375</ele>
        <time>2019-06-22T14:42:31Z</time>
      </trkpt>
      <trkpt lat="59.725423967465758" lon="8.391849976032972">
        <ele>1380.453125</ele>
        <time>2019-06-22T14:42:40Z</time>
      </trkpt>
      <trkpt lat="59.725513989105821" lon="8.392035970464349">
        <ele>1383.42578125</ele>
        <time>2019-06-22T14:42:51Z</time>
      </trkpt>
      <trkpt lat="59.72557601518929" lon="8.392245015129447">
        <ele>1385.57421875</ele>
        <time>2019-06-22T14:43:03Z</time>
      </trkpt>
      <trkpt lat="59.725592024624348" lon="8.392280973494053">
        <ele>1385.97265625</ele>
        <time>2019-06-22T14:43:07Z</time>
      </trkpt>
      <trkpt lat="59.725604010745883" lon="8.392310980707407">
        <ele>1386.296875</ele>
        <time>2019-06-22T14:43:10Z</time>
      </trkpt>
      <trkpt lat="59.725623959675431" lon="8.392325984314084">
        <ele>1386.5625</ele>
        <time>2019-06-22T14:43:13Z</time>
      </trkpt>
      <trkpt lat="59.725675005465746" lon="8.392378035932779">
        <ele>1387.3671875</ele>
        <time>2019-06-22T14:43:20Z</time>
      </trkpt>
      <trkpt lat="59.725786987692118" lon="8.392575010657311">
        <ele>1389.98046875</ele>
        <time>2019-06-22T14:43:33Z</time>
      </trkpt>
      <trkpt lat="59.725801991298795" lon="8.392597977072001">
        <ele>1390.21484375</ele>
        <time>2019-06-22T14:43:35Z</time>
      </trkpt>
      <trkpt lat="59.725892012938857" lon="8.392916992306709">
        <ele>1394.8203125</ele>
        <time>2019-06-22T14:43:54Z</time>
      </trkpt>
      <trkpt lat="59.725911039859056" lon="8.393155038356781">
        <ele>1398.15234375</ele>
        <time>2019-06-22T14:44:04Z</time>
      </trkpt>
      <trkpt lat="59.725962001830339" lon="8.393318988382816">
        <ele>1400.13671875</ele>
        <time>2019-06-22T14:44:14Z</time>
      </trkpt>
      <trkpt lat="59.726055962964892" lon="8.393532978370786">
        <ele>1402.703125</ele>
        <time>2019-06-22T14:44:28Z</time>
      </trkpt>
      <trkpt lat="59.72611497156322" lon="8.393733976408839">
        <ele>1405.69921875</ele>
        <time>2019-06-22T14:44:41Z</time>
      </trkpt>
      <trkpt lat="59.726136010140181" lon="8.393868003040552">
        <ele>1407.609375</ele>
        <time>2019-06-22T14:44:49Z</time>
      </trkpt>
      <trkpt lat="59.726171968504786" lon="8.394105965271592">
        <ele>1410.90234375</ele>
        <time>2019-06-22T14:45:06Z</time>
      </trkpt>
      <trkpt lat="59.726203987374902" lon="8.394139995798469">
        <ele>1411.453125</ele>
        <time>2019-06-22T14:45:11Z</time>
      </trkpt>
      <trkpt lat="59.726342959329486" lon="8.394295983016491">
        <ele>1413.94921875</ele>
        <time>2019-06-22T14:45:28Z</time>
      </trkpt>
      <trkpt lat="59.726437004283071" lon="8.39442296884954">
        <ele>1415.69921875</ele>
        <time>2019-06-22T14:45:40Z</time>
      </trkpt>
      <trkpt lat="59.726462988182902" lon="8.394478959962726">
        <ele>1416.41015625</ele>
        <time>2019-06-22T14:45:44Z</time>
      </trkpt>
      <trkpt lat="59.72658796235919" lon="8.39459496550262">
        <ele>1418.61328125</ele>
        <time>2019-06-22T14:45:56Z</time>
      </trkpt>
      <trkpt lat="59.726770017296076" lon="8.394732009619474">
        <ele>1421.71875</ele>
        <time>2019-06-22T14:46:11Z</time>
      </trkpt>
      <trkpt lat="59.726892979815602" lon="8.394836029037833">
        <ele>1423.8984375</ele>
        <time>2019-06-22T14:46:25Z</time>
      </trkpt>
      <trkpt lat="59.726934973150492" lon="8.394981035962701">
        <ele>1426.7578125</ele>
        <time>2019-06-22T14:46:39Z</time>
      </trkpt>
      <trkpt lat="59.726998005062342" lon="8.395048007369041">
        <ele>1427.92578125</ele>
        <time>2019-06-22T14:46:52Z</time>
      </trkpt>
      <trkpt lat="59.727004040032625" lon="8.395144985988736">
        <ele>1429.83984375</ele>
        <time>2019-06-22T14:47:04Z</time>
      </trkpt>
      <trkpt lat="59.727077968418598" lon="8.395220004022121">
        <ele>1431.33203125</ele>
        <time>2019-06-22T14:47:18Z</time>
      </trkpt>
      <trkpt lat="59.727106969803572" lon="8.395228972658515">
        <ele>1431.484375</ele>
        <time>2019-06-22T14:47:22Z</time>
      </trkpt>
      <trkpt lat="59.727170001715422" lon="8.395224027335644">
        <ele>1431.21875</ele>
        <time>2019-06-22T14:47:29Z</time>
      </trkpt>
      <trkpt lat="59.727224987000227" lon="8.395236013457179">
        <ele>1431.4140625</ele>
        <time>2019-06-22T14:47:35Z</time>
      </trkpt>
      <trkpt lat="59.727287013083696" lon="8.395298039540649">
        <ele>1432.875</ele>
        <time>2019-06-22T14:47:40Z</time>
      </trkpt>
      <trkpt lat="59.727303022518754" lon="8.395352018997073">
        <ele>1434.12890625</ele>
        <time>2019-06-22T14:47:43Z</time>
      </trkpt>
      <trkpt lat="59.727363036945462" lon="8.395427037030459">
        <ele>1435.5625</ele>
        <time>2019-06-22T14:47:52Z</time>
      </trkpt>
      <trkpt lat="59.727396983653307" lon="8.395683020353317">
        <ele>1439.38671875</ele>
        <time>2019-06-22T14:48:03Z</time>
      </trkpt>
      <trkpt lat="59.727406036108732" lon="8.396001029759646">
        <ele>1443.6796875</ele>
        <time>2019-06-22T14:48:19Z</time>
      </trkpt>
      <trkpt lat="59.72738198004663" lon="8.396192975342274">
        <ele>1446.984375</ele>
        <time>2019-06-22T14:48:34Z</time>
      </trkpt>
      <trkpt lat="59.727362031117082" lon="8.396436972543597">
        <ele>1451.99609375</ele>
        <time>2019-06-22T14:48:51Z</time>
      </trkpt>
      <trkpt lat="59.727361025288701" lon="8.396444013342261">
        <ele>1452.16015625</ele>
        <time>2019-06-22T14:49:18Z</time>
      </trkpt>
      <trkpt lat="59.72736001946032" lon="8.39646396227181">
        <ele>1452.6015625</ele>
        <time>2019-06-22T14:49:45Z</time>
      </trkpt>
      <trkpt lat="59.72735901363194" lon="8.39646203443408">
        <ele>1452.57421875</ele>
        <time>2019-06-22T14:50:02Z</time>
      </trkpt>
      <trkpt lat="59.727374017238617" lon="8.396439990028739">
        <ele>1451.890625</ele>
        <time>2019-06-22T14:50:17Z</time>
      </trkpt>
      <trkpt lat="59.727366976439953" lon="8.396413000300527">
        <ele>1451.4140625</ele>
        <time>2019-06-22T14:50:26Z</time>
      </trkpt>
      <trkpt lat="59.727361025288701" lon="8.39637796394527">
        <ele>1450.74609375</ele>
        <time>2019-06-22T14:50:39Z</time>
      </trkpt>
      <trkpt lat="59.727310985326767" lon="8.396386010572314">
        <ele>1451.58984375</ele>
        <time>2019-06-22T14:50:53Z</time>
      </trkpt>
      <trkpt lat="59.72729598172009" lon="8.396428003907204">
        <ele>1452.72265625</ele>
        <time>2019-06-22T14:51:12Z</time>
      </trkpt>
      <trkpt lat="59.727309979498386" lon="8.396468991413713">
        <ele>1453.4296875</ele>
        <time>2019-06-22T14:51:26Z</time>
      </trkpt>
      <trkpt lat="59.727311991155148" lon="8.396501010283828">
        <ele>1454.1015625</ele>
        <time>2019-06-22T14:51:28Z</time>
      </trkpt>
      <trkpt lat="59.727336969226599" lon="8.396580973640084">
        <ele>1455.01171875</ele>
        <time>2019-06-22T14:51:43Z</time>
      </trkpt>
      <trkpt lat="59.727348033338785" lon="8.396566975861788">
        <ele>1454.7578125</ele>
        <time>2019-06-22T14:51:52Z</time>
      </trkpt>
      <trkpt lat="59.727383991703391" lon="8.396541997790337">
        <ele>1453.90234375</ele>
        <time>2019-06-22T14:51:59Z</time>
      </trkpt>
      <trkpt lat="59.727384997531772" lon="8.39655096642673">
        <ele>1454.07421875</ele>
        <time>2019-06-22T14:52:12Z</time>
      </trkpt>
      <trkpt lat="59.727392960339785" lon="8.396533029153943">
        <ele>1453.578125</ele>
        <time>2019-06-22T14:52:22Z</time>
      </trkpt>
      <trkpt lat="59.727368988096714" lon="8.39654803276062">
        <ele>1454.26171875</ele>
        <time>2019-06-22T14:52:30Z</time>
      </trkpt>
      <trkpt lat="59.727363036945462" lon="8.396549038589001">
        <ele>1454.375</ele>
        <time>2019-06-22T14:52:37Z</time>
      </trkpt>
      <trkpt lat="59.727363036945462" lon="8.396518025547266">
        <ele>1453.7109375</ele>
        <time>2019-06-22T14:52:50Z</time>
      </trkpt>
      <trkpt lat="59.72736001946032" lon="8.396575022488833">
        <ele>1454.64453125</ele>
        <time>2019-06-22T14:53:03Z</time>
      </trkpt>
      <trkpt lat="59.727302016690373" lon="8.396775014698505">
        <ele>1456.47265625</ele>
        <time>2019-06-22T14:53:22Z</time>
      </trkpt>
      <trkpt lat="59.727309979498386" lon="8.396799992769957">
        <ele>1456.56640625</ele>
        <time>2019-06-22T14:53:25Z</time>
      </trkpt>
      <trkpt lat="59.727330012246966" lon="8.396857995539904">
        <ele>1456.98828125</ele>
        <time>2019-06-22T14:53:40Z</time>
      </trkpt>
      <trkpt lat="59.727333029732108" lon="8.396962014958262">
        <ele>1458.08203125</ele>
        <time>2019-06-22T14:53:58Z</time>
      </trkpt>
      <trkpt lat="59.72735901363194" lon="8.397089000791311">
        <ele>1459.4765625</ele>
        <time>2019-06-22T14:54:10Z</time>
      </trkpt>
      <trkpt lat="59.727404024451971" lon="8.397141974419355">
        <ele>1460.16796875</ele>
        <time>2019-06-22T14:54:23Z</time>
      </trkpt>
      <trkpt lat="59.727417016401887" lon="8.397184973582625">
        <ele>1460.6796875</ele>
        <time>2019-06-22T14:54:37Z</time>
      </trkpt>
      <trkpt lat="59.727410981431603" lon="8.397369962185621">
        <ele>1462.76171875</ele>
        <time>2019-06-22T14:54:49Z</time>
      </trkpt>
      <trkpt lat="59.727406036108732" lon="8.397573977708817">
        <ele>1463.7421875</ele>
        <time>2019-06-22T14:55:02Z</time>
      </trkpt>
      <trkpt lat="59.72740201279521" lon="8.397679002955556">
        <ele>1464.46875</ele>
        <time>2019-06-22T14:55:15Z</time>
      </trkpt>
      <trkpt lat="59.727390026673675" lon="8.397825015708804">
        <ele>1467.171875</ele>
        <time>2019-06-22T14:55:28Z</time>
      </trkpt>
      <trkpt lat="59.727422967553139" lon="8.397948984056711">
        <ele>1469.4140625</ele>
        <time>2019-06-22T14:55:37Z</time>
      </trkpt>
      <trkpt lat="59.727426990866661" lon="8.397954013198614">
        <ele>1469.51953125</ele>
        <time>2019-06-22T14:55:38Z</time>
      </trkpt>
      <trkpt lat="59.727455992251635" lon="8.398018972948194">
        <ele>1470.94921875</ele>
        <time>2019-06-22T14:55:47Z</time>
      </trkpt>
      <trkpt lat="59.727459009736776" lon="8.398016039282084">
        <ele>1470.88671875</ele>
        <time>2019-06-22T14:55:51Z</time>
      </trkpt>
      <trkpt lat="59.727482981979847" lon="8.398088039830327">
        <ele>1472.53125</ele>
        <time>2019-06-22T14:56:01Z</time>
      </trkpt>
      <trkpt lat="59.727485999464989" lon="8.398100025951862">
        <ele>1472.80859375</ele>
        <time>2019-06-22T14:56:02Z</time>
      </trkpt>
      <trkpt lat="59.727522963657975" lon="8.398179989308119">
        <ele>1474.74609375</ele>
        <time>2019-06-22T14:56:14Z</time>
      </trkpt>
      <trkpt lat="59.727579038590193" lon="8.398142019286752">
        <ele>1474.1171875</ele>
        <time>2019-06-22T14:56:22Z</time>
      </trkpt>
      <trkpt lat="59.727645004168153" lon="8.398203039541841">
        <ele>1475.5703125</ele>
        <time>2019-06-22T14:56:31Z</time>
      </trkpt>
      <trkpt lat="59.727675011381507" lon="8.398235980421305">
        <ele>1476.3359375</ele>
        <time>2019-06-22T14:56:36Z</time>
      </trkpt>
      <trkpt lat="59.727643998339772" lon="8.398318961262703">
        <ele>1478.13671875</ele>
        <time>2019-06-22T14:56:42Z</time>
      </trkpt>
      <trkpt lat="59.727706024423242" lon="8.398549966514111">
        <ele>1483.4296875</ele>
        <time>2019-06-22T14:56:57Z</time>
      </trkpt>
      <trkpt lat="59.727717004716396" lon="8.39861199259758">
        <ele>1484.87109375</ele>
        <time>2019-06-22T14:57:02Z</time>
      </trkpt>
      <trkpt lat="59.727760003879666" lon="8.398665972054005">
        <ele>1486.1640625</ele>
        <time>2019-06-22T14:57:08Z</time>
      </trkpt>
      <trkpt lat="59.727861005812883" lon="8.39876102283597">
        <ele>1488.84375</ele>
        <time>2019-06-22T14:57:20Z</time>
      </trkpt>
      <trkpt lat="59.727891013026237" lon="8.398812990635634">
        <ele>1490.29296875</ele>
        <time>2019-06-22T14:57:26Z</time>
      </trkpt>
      <trkpt lat="59.727957984432578" lon="8.398840986192226">
        <ele>1491.3984375</ele>
        <time>2019-06-22T14:57:34Z</time>
      </trkpt>
      <trkpt lat="59.72798204049468" lon="8.398920027539134">
        <ele>1493.58203125</ele>
        <time>2019-06-22T14:57:43Z</time>
      </trkpt>
      <trkpt lat="59.72798396833241" lon="8.398961015045643">
        <ele>1494.65234375</ele>
        <time>2019-06-22T14:57:46Z</time>
      </trkpt>
      <trkpt lat="59.727996960282326" lon="8.398969983682036">
        <ele>1494.97265625</ele>
        <time>2019-06-22T14:57:48Z</time>
      </trkpt>
      <trkpt lat="59.728015987202525" lon="8.398996973410249">
        <ele>1495.8125</ele>
        <time>2019-06-22T14:57:51Z</time>
      </trkpt>
      <trkpt lat="59.727986985817552" lon="8.39923401363194">
        <ele>1501.62890625</ele>
        <time>2019-06-22T14:58:01Z</time>
      </trkpt>
      <trkpt lat="59.727965025231242" lon="8.399284975603223">
        <ele>1502.66796875</ele>
        <time>2019-06-22T14:58:07Z</time>
      </trkpt>
      <trkpt lat="59.727955972775817" lon="8.399384971708059">
        <ele>1505.12890625</ele>
        <time>2019-06-22T14:58:13Z</time>
      </trkpt>
      <trkpt lat="59.727949015796185" lon="8.399454038590193">
        <ele>1506.8203125</ele>
        <time>2019-06-22T14:58:17Z</time>
      </trkpt>
      <trkpt lat="59.727943986654282" lon="8.399506006389856">
        <ele>1508.078125</ele>
        <time>2019-06-22T14:58:20Z</time>
      </trkpt>
      <trkpt lat="59.727945998311043" lon="8.399628968909383">
        <ele>1511.18359375</ele>
        <time>2019-06-22T14:58:31Z</time>
      </trkpt>
      <trkpt lat="59.7279810346663" lon="8.399717984721065">
        <ele>1513.91796875</ele>
        <time>2019-06-22T14:58:39Z</time>
      </trkpt>
      <trkpt lat="59.72798204049468" lon="8.399940021336079">
        <ele>1518.4765625</ele>
        <time>2019-06-22T14:58:54Z</time>
      </trkpt>
      <trkpt lat="59.72794197499752" lon="8.400029959157109">
        <ele>1518.7578125</ele>
        <time>2019-06-22T14:59:06Z</time>
      </trkpt>
      <trkpt lat="59.727901993319392" lon="8.400161974132061">
        <ele>1519.5078125</ele>
        <time>2019-06-22T14:59:13Z</time>
      </trkpt>
      <trkpt lat="59.727895958349109" lon="8.400228023529053">
        <ele>1520.01171875</ele>
        <time>2019-06-22T14:59:16Z</time>
      </trkpt>
      <trkpt lat="59.727933006361127" lon="8.400280997157097">
        <ele>1521.85546875</ele>
        <time>2019-06-22T14:59:23Z</time>
      </trkpt>
      <trkpt lat="59.727986985817552" lon="8.4002669993788">
        <ele>1523.55078125</ele>
        <time>2019-06-22T14:59:28Z</time>
      </trkpt>
      <trkpt lat="59.728088993579149" lon="8.40033003129065">
        <ele>1527.875</ele>
        <time>2019-06-22T14:59:41Z</time>
      </trkpt>
      <trkpt lat="59.728182032704353" lon="8.400389039888978">
        <ele>1531.765625</ele>
        <time>2019-06-22T14:59:54Z</time>
      </trkpt>
      <trkpt lat="59.728226037696004" lon="8.400471014901996">
        <ele>1534.046875</ele>
        <time>2019-06-22T15:00:03Z</time>
      </trkpt>
      <trkpt lat="59.728259984403849" lon="8.400568999350071">
        <ele>1535.32421875</ele>
        <time>2019-06-22T15:00:11Z</time>
      </trkpt>
      <trkpt lat="59.728331984952092" lon="8.400614010170102">
        <ele>1537.37890625</ele>
        <time>2019-06-22T15:00:21Z</time>
      </trkpt>
      <trkpt lat="59.728374984115362" lon="8.400517031550407">
        <ele>1537.296875</ele>
        <time>2019-06-22T15:00:35Z</time>
      </trkpt>
      <trkpt lat="59.728436004370451" lon="8.400490041822195">
        <ele>1537.171875</ele>
        <time>2019-06-22T15:00:47Z</time>
      </trkpt>
      <trkpt lat="59.728456037119031" lon="8.40048199519515">
        <ele>1537.12890625</ele>
        <time>2019-06-22T15:01:01Z</time>
      </trkpt>
      <trkpt lat="59.72845695912838" lon="8.400483001023531">
        <ele>1537.12890625</ele>
        <time>2019-06-22T15:01:07Z</time>
      </trkpt>
      <trkpt lat="59.728453019633889" lon="8.400472020730376">
        <ele>1537.12890625</ele>
        <time>2019-06-22T15:01:17Z</time>
      </trkpt>
      <trkpt lat="59.72845402546227" lon="8.400419969111681">
        <ele>1536.8359375</ele>
        <time>2019-06-22T15:01:34Z</time>
      </trkpt>
      <trkpt lat="59.728448996320367" lon="8.400424998253584">
        <ele>1536.92578125</ele>
        <time>2019-06-22T15:02:06Z</time>
      </trkpt>
      <trkpt lat="59.728463999927044" lon="8.400450982153416">
        <ele>1537.09765625</ele>
        <time>2019-06-22T15:02:32Z</time>
      </trkpt>
      <trkpt lat="59.728448996320367" lon="8.400510996580124">
        <ele>1537.15625</ele>
        <time>2019-06-22T15:02:36Z</time>
      </trkpt>
      <trkpt lat="59.728424018248916" lon="8.400538992136717">
        <ele>1537.21484375</ele>
        <time>2019-06-22T15:02:41Z</time>
      </trkpt>
      <trkpt lat="59.728432986885309" lon="8.400533962994814">
        <ele>1537.1953125</ele>
        <time>2019-06-22T15:03:24Z</time>
      </trkpt>
      <trkpt lat="59.72843499854207" lon="8.400531029328704">
        <ele>1537.19140625</ele>
        <time>2019-06-22T15:05:06Z</time>
      </trkpt>
      <trkpt lat="59.728436004370451" lon="8.400513008236885">
        <ele>1537.18359375</ele>
        <time>2019-06-22T15:07:17Z</time>
      </trkpt>
      <trkpt lat="59.728437010198832" lon="8.400510996580124">
        <ele>1537.1796875</ele>
        <time>2019-06-22T15:08:10Z</time>
      </trkpt>
      <trkpt lat="59.728436004370451" lon="8.400508984923363">
        <ele>1537.1796875</ele>
        <time>2019-06-22T15:08:21Z</time>
      </trkpt>
      <trkpt lat="59.728442961350083" lon="8.400515019893646">
        <ele>1537.171875</ele>
        <time>2019-06-22T15:08:32Z</time>
      </trkpt>
      <trkpt lat="59.728421000763774" lon="8.400543015450239">
        <ele>1537.22265625</ele>
        <time>2019-06-22T15:08:38Z</time>
      </trkpt>
      <trkpt lat="59.728411026299" lon="8.400576962158084">
        <ele>1537.25</ele>
        <time>2019-06-22T15:09:10Z</time>
      </trkpt>
      <trkpt lat="59.728419994935393" lon="8.40060998685658">
        <ele>1537.24609375</ele>
        <time>2019-06-22T15:09:20Z</time>
      </trkpt>
      <trkpt lat="59.728409014642239" lon="8.400722974911332">
        <ele>1537.2734375</ele>
        <time>2019-06-22T15:09:27Z</time>
      </trkpt>
      <trkpt lat="59.728397028520703" lon="8.400755999609828">
        <ele>1537.1953125</ele>
        <time>2019-06-22T15:09:29Z</time>
      </trkpt>
      <trkpt lat="59.728351011872292" lon="8.400891032069922">
        <ele>1536.80859375</ele>
        <time>2019-06-22T15:09:36Z</time>
      </trkpt>
      <trkpt lat="59.728385964408517" lon="8.401002008467913">
        <ele>1536.48046875</ele>
        <time>2019-06-22T15:09:47Z</time>
      </trkpt>
      <trkpt lat="59.728393005207181" lon="8.401011982932687">
        <ele>1536.43359375</ele>
        <time>2019-06-22T15:10:15Z</time>
      </trkpt>
      <trkpt lat="59.728451007977128" lon="8.401099992915988">
        <ele>1536.0625</ele>
        <time>2019-06-22T15:10:19Z</time>
      </trkpt>
      <trkpt lat="59.728522002696991" lon="8.40133803896606">
        <ele>1534.7734375</ele>
        <time>2019-06-22T15:10:25Z</time>
      </trkpt>
      <trkpt lat="59.728591991588473" lon="8.401669040322304">
        <ele>1533.03125</ele>
        <time>2019-06-22T15:10:34Z</time>
      </trkpt>
      <trkpt lat="59.728585034608841" lon="8.401759983971715">
        <ele>1532.734375</ele>
        <time>2019-06-22T15:10:37Z</time>
      </trkpt>
      <trkpt lat="59.72858302295208" lon="8.402085034176707">
        <ele>1530.7734375</ele>
        <time>2019-06-22T15:10:47Z</time>
      </trkpt>
      <trkpt lat="59.728596014901996" lon="8.402310004457831">
        <ele>1528.98828125</ele>
        <time>2019-06-22T15:10:59Z</time>
      </trkpt>
      <trkpt lat="59.728594003245234" lon="8.402362978085876">
        <ele>1528.484375</ele>
        <time>2019-06-22T15:11:21Z</time>
      </trkpt>
      <trkpt lat="59.728566007688642" lon="8.40241301804781">
        <ele>1527.57421875</ele>
        <time>2019-06-22T15:11:28Z</time>
      </trkpt>
      <trkpt lat="59.728558966889977" lon="8.402427015826106">
        <ele>1527.32421875</ele>
        <time>2019-06-22T15:11:44Z</time>
      </trkpt>
      <trkpt lat="59.728547986596823" lon="8.402549978345633">
        <ele>1525.91015625</ele>
        <time>2019-06-22T15:11:54Z</time>
      </trkpt>
      <trkpt lat="59.728570031002164" lon="8.402649974450469">
        <ele>1525.2578125</ele>
        <time>2019-06-22T15:12:04Z</time>
      </trkpt>
      <trkpt lat="59.728596014901996" lon="8.402786012738943">
        <ele>1523.9140625</ele>
        <time>2019-06-22T15:12:18Z</time>
      </trkpt>
      <trkpt lat="59.728596014901996" lon="8.402791041880846">
        <ele>1523.84765625</ele>
        <time>2019-06-22T15:12:33Z</time>
      </trkpt>
      <trkpt lat="59.72849803045392" lon="8.40286698192358">
        <ele>1521.1484375</ele>
        <time>2019-06-22T15:12:41Z</time>
      </trkpt>
      <trkpt lat="59.728481015190482" lon="8.402944011613727">
        <ele>1519.77734375</ele>
        <time>2019-06-22T15:12:43Z</time>
      </trkpt>
      <trkpt lat="59.728459976613522" lon="8.403053982183337">
        <ele>1517.59765625</ele>
        <time>2019-06-22T15:12:54Z</time>
      </trkpt>
      <trkpt lat="59.728460982441902" lon="8.403049036860466">
        <ele>1517.69921875</ele>
        <time>2019-06-22T15:13:04Z</time>
      </trkpt>
      <trkpt lat="59.728335002437234" lon="8.403137968853116">
        <ele>1514.01953125</ele>
        <time>2019-06-22T15:13:12Z</time>
      </trkpt>
      <trkpt lat="59.728316981345415" lon="8.403176022693515">
        <ele>1512.95703125</ele>
        <time>2019-06-22T15:13:13Z</time>
      </trkpt>
      <trkpt lat="59.728287979960442" lon="8.403245005756617">
        <ele>1510.94921875</ele>
        <time>2019-06-22T15:13:16Z</time>
      </trkpt>
      <trkpt lat="59.728280017152429" lon="8.403266966342926">
        <ele>1510.3046875</ele>
        <time>2019-06-22T15:13:17Z</time>
      </trkpt>
      <trkpt lat="59.728255961090326" lon="8.403319017961621">
        <ele>1508.6875</ele>
        <time>2019-06-22T15:13:19Z</time>
      </trkpt>
      <trkpt lat="59.72815596498549" lon="8.40344499796629">
        <ele>1504.06640625</ele>
        <time>2019-06-22T15:13:26Z</time>
      </trkpt>
      <trkpt lat="59.728100979700685" lon="8.403664017096162">
        <ele>1500.7421875</ele>
        <time>2019-06-22T15:13:35Z</time>
      </trkpt>
      <trkpt lat="59.728096034377813" lon="8.403762001544237">
        <ele>1499.92578125</ele>
        <time>2019-06-22T15:13:39Z</time>
      </trkpt>
      <trkpt lat="59.728066027164459" lon="8.403774993494153">
        <ele>1499.62109375</ele>
        <time>2019-06-22T15:13:41Z</time>
      </trkpt>
      <trkpt lat="59.72800400108099" lon="8.403822015970945">
        <ele>1498.3203125</ele>
        <time>2019-06-22T15:13:46Z</time>
      </trkpt>
      <trkpt lat="59.727846002206206" lon="8.40389896184206">
        <ele>1494.734375</ele>
        <time>2019-06-22T15:13:56Z</time>
      </trkpt>
      <trkpt lat="59.727781964465976" lon="8.403998035937548">
        <ele>1492.18359375</ele>
        <time>2019-06-22T15:14:03Z</time>
      </trkpt>
      <trkpt lat="59.727778024971485" lon="8.404009016230702">
        <ele>1491.94921875</ele>
        <time>2019-06-22T15:14:04Z</time>
      </trkpt>
      <trkpt lat="59.727774001657963" lon="8.40402401983738">
        <ele>1491.6484375</ele>
        <time>2019-06-22T15:14:05Z</time>
      </trkpt>
      <trkpt lat="59.727743994444609" lon="8.404051009565592">
        <ele>1490.49609375</ele>
        <time>2019-06-22T15:14:07Z</time>
      </trkpt>
      <trkpt lat="59.7277030069381" lon="8.404075987637043">
        <ele>1489.05078125</ele>
        <time>2019-06-22T15:14:10Z</time>
      </trkpt>
      <trkpt lat="59.727665036916733" lon="8.404074981808662">
        <ele>1488.10546875</ele>
        <time>2019-06-22T15:14:13Z</time>
      </trkpt>
      <trkpt lat="59.727604016661644" lon="8.404094008728862">
        <ele>1486.25390625</ele>
        <time>2019-06-22T15:14:17Z</time>
      </trkpt>
      <trkpt lat="59.727564034983516" lon="8.404117980971932">
        <ele>1484.84765625</ele>
        <time>2019-06-22T15:14:26Z</time>
      </trkpt>
      <trkpt lat="59.727562023326755" lon="8.404126027598977">
        <ele>1484.6640625</ele>
        <time>2019-06-22T15:14:32Z</time>
      </trkpt>
      <trkpt lat="59.727565962821245" lon="8.404145976528525">
        <ele>1484.4375</ele>
        <time>2019-06-22T15:14:34Z</time>
      </trkpt>
      <trkpt lat="59.727544002234936" lon="8.404241027310491">
        <ele>1482.31640625</ele>
        <time>2019-06-22T15:14:40Z</time>
      </trkpt>
      <trkpt lat="59.727539978921413" lon="8.404286960139871">
        <ele>1481.45703125</ele>
        <time>2019-06-22T15:14:43Z</time>
      </trkpt>
      <trkpt lat="59.727552970871329" lon="8.404492987319827">
        <ele>1477.87109375</ele>
        <time>2019-06-22T15:14:51Z</time>
      </trkpt>
      <trkpt lat="59.727558000013232" lon="8.404528023675084">
        <ele>1477.3203125</ele>
        <time>2019-06-22T15:14:53Z</time>
      </trkpt>
      <trkpt lat="59.727551965042949" lon="8.404535986483097">
        <ele>1477.00390625</ele>
        <time>2019-06-22T15:14:54Z</time>
      </trkpt>
      <trkpt lat="59.727536039426923" lon="8.404557025060058">
        <ele>1476.17578125</ele>
        <time>2019-06-22T15:14:56Z</time>
      </trkpt>
      <trkpt lat="59.727503014728427" lon="8.404596000909805">
        <ele>1474.54296875</ele>
        <time>2019-06-22T15:14:59Z</time>
      </trkpt>
      <trkpt lat="59.727493040263653" lon="8.404593989253044">
        <ele>1474.36328125</ele>
        <time>2019-06-22T15:15:00Z</time>
      </trkpt>
      <trkpt lat="59.727479964494705" lon="8.404577979817987">
        <ele>1474.4609375</ele>
        <time>2019-06-22T15:15:02Z</time>
      </trkpt>
      <trkpt lat="59.727437971159816" lon="8.404622990638018">
        <ele>1472.85546875</ele>
        <time>2019-06-22T15:15:10Z</time>
      </trkpt>
      <trkpt lat="59.727410981431603" lon="8.404668001458049">
        <ele>1471.453125</ele>
        <time>2019-06-22T15:15:26Z</time>
      </trkpt>
      <trkpt lat="59.727329006418586" lon="8.404720975086093">
        <ele>1468.94140625</ele>
        <time>2019-06-22T15:15:35Z</time>
      </trkpt>
      <trkpt lat="59.727343004196882" lon="8.404807979241014">
        <ele>1467.3125</ele>
        <time>2019-06-22T15:15:41Z</time>
      </trkpt>
      <trkpt lat="59.727258011698723" lon="8.404890038073063">
        <ele>1463.96484375</ele>
        <time>2019-06-22T15:15:46Z</time>
      </trkpt>
      <trkpt lat="59.727176036685705" lon="8.404958015307784">
        <ele>1459.73046875</ele>
        <time>2019-06-22T15:15:54Z</time>
      </trkpt>
      <trkpt lat="59.727092972025275" lon="8.405045019462705">
        <ele>1454.671875</ele>
        <time>2019-06-22T15:16:02Z</time>
      </trkpt>
      <trkpt lat="59.727063970640302" lon="8.405096987262368">
        <ele>1452.484375</ele>
        <time>2019-06-22T15:16:05Z</time>
      </trkpt>
      <trkpt lat="59.727038992568851" lon="8.405151972547174">
        <ele>1450.4375</ele>
        <time>2019-06-22T15:16:08Z</time>
      </trkpt>
      <trkpt lat="59.727031029760838" lon="8.405192038044334">
        <ele>1449.20703125</ele>
        <time>2019-06-22T15:16:11Z</time>
      </trkpt>
      <trkpt lat="59.727038992568851" lon="8.405203018337488">
        <ele>1449.09765625</ele>
        <time>2019-06-22T15:16:17Z</time>
      </trkpt>
      <trkpt lat="59.727027006447315" lon="8.405244005843997">
        <ele>1447.8046875</ele>
        <time>2019-06-22T15:16:32Z</time>
      </trkpt>
      <trkpt lat="59.726990964263678" lon="8.405270995572209">
        <ele>1446.6015625</ele>
        <time>2019-06-22T15:16:37Z</time>
      </trkpt>
      <trkpt lat="59.726962968707085" lon="8.405331009998918">
        <ele>1445.07421875</ele>
        <time>2019-06-22T15:16:40Z</time>
      </trkpt>
      <trkpt lat="59.726922987028956" lon="8.405336961150169">
        <ele>1444.4140625</ele>
        <time>2019-06-22T15:16:43Z</time>
      </trkpt>
      <trkpt lat="59.726920975372195" lon="8.405334027484059">
        <ele>1444.41796875</ele>
        <time>2019-06-22T15:16:46Z</time>
      </trkpt>
      <trkpt lat="59.726920975372195" lon="8.405333021655679">
        <ele>1444.43359375</ele>
        <time>2019-06-22T15:16:49Z</time>
      </trkpt>
      <trkpt lat="59.726903960108757" lon="8.405411979183555">
        <ele>1442.87109375</ele>
        <time>2019-06-22T15:17:03Z</time>
      </trkpt>
      <trkpt lat="59.726902032271028" lon="8.405425976961851">
        <ele>1442.62109375</ele>
        <time>2019-06-22T15:17:09Z</time>
      </trkpt>
      <trkpt lat="59.726863978430629" lon="8.405450033023953">
        <ele>1441.52734375</ele>
        <time>2019-06-22T15:17:21Z</time>
      </trkpt>
      <trkpt lat="59.726845035329461" lon="8.40544399805367">
        <ele>1441.30078125</ele>
        <time>2019-06-22T15:17:32Z</time>
      </trkpt>
      <trkpt lat="59.726835982874036" lon="8.405451038852334">
        <ele>1441</ele>
        <time>2019-06-22T15:17:41Z</time>
      </trkpt>
      <trkpt lat="59.726794995367527" lon="8.405537037178874">
        <ele>1438.44140625</ele>
        <time>2019-06-22T15:17:56Z</time>
      </trkpt>
      <trkpt lat="59.726793989539146" lon="8.405546005815268">
        <ele>1438.23046875</ele>
        <time>2019-06-22T15:17:58Z</time>
      </trkpt>
      <trkpt lat="59.726809998974204" lon="8.405592022463679">
        <ele>1437.6171875</ele>
        <time>2019-06-22T15:18:03Z</time>
      </trkpt>
      <trkpt lat="59.726743027567863" lon="8.405641978606582">
        <ele>1434.96875</ele>
        <time>2019-06-22T15:18:16Z</time>
      </trkpt>
      <trkpt lat="59.726762976497412" lon="8.405609037727118">
        <ele>1436.1796875</ele>
        <time>2019-06-22T15:18:42Z</time>
      </trkpt>
      <trkpt lat="59.726722994819283" lon="8.405638039112091">
        <ele>1434.578125</ele>
        <time>2019-06-22T15:18:55Z</time>
      </trkpt>
      <trkpt lat="59.726716037839651" lon="8.405668968334794">
        <ele>1433.6796875</ele>
        <time>2019-06-22T15:19:10Z</time>
      </trkpt>
      <trkpt lat="59.726713020354509" lon="8.405714984983206">
        <ele>1432.4921875</ele>
        <time>2019-06-22T15:19:13Z</time>
      </trkpt>
      <trkpt lat="59.726624004542828" lon="8.405994018539786">
        <ele>1420.98046875</ele>
        <time>2019-06-22T15:19:25Z</time>
      </trkpt>
      <trkpt lat="59.726601960137486" lon="8.406159980222583">
        <ele>1414.7265625</ele>
        <time>2019-06-22T15:19:30Z</time>
      </trkpt>
      <trkpt lat="59.726581005379558" lon="8.406236004084349">
        <ele>1411.5625</ele>
        <time>2019-06-22T15:19:33Z</time>
      </trkpt>
      <trkpt lat="59.726558960974216" lon="8.406375981867313">
        <ele>1406.2578125</ele>
        <time>2019-06-22T15:19:36Z</time>
      </trkpt>
      <trkpt lat="59.726546974852681" lon="8.406439013779163">
        <ele>1403.88671875</ele>
        <time>2019-06-22T15:19:39Z</time>
      </trkpt>
      <trkpt lat="59.726555021479726" lon="8.406423004344106">
        <ele>1404.609375</ele>
        <time>2019-06-22T15:19:41Z</time>
      </trkpt>
      <trkpt lat="59.726547980681062" lon="8.40666800737381">
        <ele>1396.95703125</ele>
        <time>2019-06-22T15:19:49Z</time>
      </trkpt>
      <trkpt lat="59.72652199678123" lon="8.406832041218877">
        <ele>1391.96484375</ele>
        <time>2019-06-22T15:19:55Z</time>
      </trkpt>
      <trkpt lat="59.726487966254354" lon="8.406895995140076">
        <ele>1389.734375</ele>
        <time>2019-06-22T15:19:58Z</time>
      </trkpt>
      <trkpt lat="59.726452007889748" lon="8.406910998746753">
        <ele>1388.9921875</ele>
        <time>2019-06-22T15:20:03Z</time>
      </trkpt>
      <trkpt lat="59.726425018161535" lon="8.406930025666952">
        <ele>1388.2421875</ele>
        <time>2019-06-22T15:20:05Z</time>
      </trkpt>
      <trkpt lat="59.72639299929142" lon="8.406928014010191">
        <ele>1388.0390625</ele>
        <time>2019-06-22T15:20:07Z</time>
      </trkpt>
      <trkpt lat="59.726351005956531" lon="8.406935976818204">
        <ele>1387.23828125</ele>
        <time>2019-06-22T15:20:11Z</time>
      </trkpt>
      <trkpt lat="59.726280011236668" lon="8.406979981809855">
        <ele>1385.2578125</ele>
        <time>2019-06-22T15:20:17Z</time>
      </trkpt>
      <trkpt lat="59.726258972659707" lon="8.407033961266279">
        <ele>1383.921875</ele>
        <time>2019-06-22T15:20:19Z</time>
      </trkpt>
      <trkpt lat="59.726208010688424" lon="8.40716497041285">
        <ele>1381.34375</ele>
        <time>2019-06-22T15:20:25Z</time>
      </trkpt>
      <trkpt lat="59.726162999868393" lon="8.407259015366435">
        <ele>1380.26171875</ele>
        <time>2019-06-22T15:20:28Z</time>
      </trkpt>
      <trkpt lat="59.726138021796942" lon="8.407344007864595">
        <ele>1379.66015625</ele>
        <time>2019-06-22T15:20:30Z</time>
      </trkpt>
      <trkpt lat="59.726118994876742" lon="8.407438974827528">
        <ele>1379.46484375</ele>
        <time>2019-06-22T15:20:32Z</time>
      </trkpt>
      <trkpt lat="59.726102985441685" lon="8.407664028927684">
        <ele>1378.80859375</ele>
        <time>2019-06-22T15:20:42Z</time>
      </trkpt>
      <trkpt lat="59.726102985441685" lon="8.407669980078936">
        <ele>1378.73046875</ele>
        <time>2019-06-22T15:20:43Z</time>
      </trkpt>
      <trkpt lat="59.726099967956543" lon="8.407888999208808">
        <ele>1375.90234375</ele>
        <time>2019-06-22T15:20:55Z</time>
      </trkpt>
      <trkpt lat="59.726137015968561" lon="8.408111035823822">
        <ele>1371.375</ele>
        <time>2019-06-22T15:21:06Z</time>
      </trkpt>
      <trkpt lat="59.726142967119813" lon="8.408116986975074">
        <ele>1371.18359375</ele>
        <time>2019-06-22T15:21:10Z</time>
      </trkpt>
      <trkpt lat="59.726258972659707" lon="8.408195022493601">
        <ele>1368.10546875</ele>
        <time>2019-06-22T15:21:17Z</time>
      </trkpt>
      <trkpt lat="59.726274982094765" lon="8.408297030255199">
        <ele>1365.88671875</ele>
        <time>2019-06-22T15:21:20Z</time>
      </trkpt>
      <trkpt lat="59.726270958781242" lon="8.408364001661539">
        <ele>1364.6484375</ele>
        <time>2019-06-22T15:21:28Z</time>
      </trkpt>
      <trkpt lat="59.726223014295101" lon="8.408498028293252">
        <ele>1362.734375</ele>
        <time>2019-06-22T15:21:51Z</time>
      </trkpt>
      <trkpt lat="59.726189989596605" lon="8.408613028004766">
        <ele>1360.8984375</ele>
        <time>2019-06-22T15:22:03Z</time>
      </trkpt>
      <trkpt lat="59.726198958232999" lon="8.408611016348004">
        <ele>1360.80859375</ele>
        <time>2019-06-22T15:22:22Z</time>
      </trkpt>
      <trkpt lat="59.726227959617972" lon="8.408631971105933">
        <ele>1359.95703125</ele>
        <time>2019-06-22T15:22:45Z</time>
      </trkpt>
      <trkpt lat="59.726229971274734" lon="8.408632976934314">
        <ele>1359.90625</ele>
        <time>2019-06-22T15:27:24Z</time>
      </trkpt>
      <trkpt lat="59.726213961839676" lon="8.408513031899929">
        <ele>1362.5625</ele>
        <time>2019-06-22T15:27:35Z</time>
      </trkpt>
      <trkpt lat="59.726216979324818" lon="8.408504985272884">
        <ele>1362.68359375</ele>
        <time>2019-06-22T15:27:36Z</time>
      </trkpt>
      <trkpt lat="59.726240029558539" lon="8.408360984176397">
        <ele>1365.1328125</ele>
        <time>2019-06-22T15:27:51Z</time>
      </trkpt>
      <trkpt lat="59.72624103538692" lon="8.408359978348017">
        <ele>1365.13671875</ele>
        <time>2019-06-22T15:28:23Z</time>
      </trkpt>
      <trkpt lat="59.726232988759875" lon="8.408386968076229">
        <ele>1364.73046875</ele>
        <time>2019-06-22T15:28:41Z</time>
      </trkpt>
      <trkpt lat="59.726160988211632" lon="8.408572040498257">
        <ele>1362.14453125</ele>
        <time>2019-06-22T15:28:55Z</time>
      </trkpt>
      <trkpt lat="59.725986979901791" lon="8.408743031322956">
        <ele>1362.09765625</ele>
        <time>2019-06-22T15:29:14Z</time>
      </trkpt>
      <trkpt lat="59.725853959098458" lon="8.408876974135637">
        <ele>1361.7421875</ele>
        <time>2019-06-22T15:29:26Z</time>
      </trkpt>
      <trkpt lat="59.725842978805304" lon="8.408900024369359">
        <ele>1361.40234375</ele>
        <time>2019-06-22T15:29:29Z</time>
      </trkpt>
      <trkpt lat="59.725743988528848" lon="8.409032039344311">
        <ele>1359.78515625</ele>
        <time>2019-06-22T15:29:37Z</time>
      </trkpt>
      <trkpt lat="59.725718004629016" lon="8.409041007980704">
        <ele>1359.96484375</ele>
        <time>2019-06-22T15:29:39Z</time>
      </trkpt>
      <trkpt lat="59.725543996319175" lon="8.409051988273859">
        <ele>1362.34375</ele>
        <time>2019-06-22T15:29:55Z</time>
      </trkpt>
      <trkpt lat="59.725390020757914" lon="8.409153996035457">
        <ele>1363.17578125</ele>
        <time>2019-06-22T15:30:05Z</time>
      </trkpt>
      <trkpt lat="59.725278960540891" lon="8.409214010462165">
        <ele>1365.34375</ele>
        <time>2019-06-22T15:30:20Z</time>
      </trkpt>
      <trkpt lat="59.725096989423037" lon="8.409368991851807">
        <ele>1364.37890625</ele>
        <time>2019-06-22T15:30:37Z</time>
      </trkpt>
      <trkpt lat="59.72501995973289" lon="8.409473011270165">
        <ele>1362.17578125</ele>
        <time>2019-06-22T15:30:45Z</time>
      </trkpt>
      <trkpt lat="59.724948965013027" lon="8.40971902012825">
        <ele>1356.953125</ele>
        <time>2019-06-22T15:30:59Z</time>
      </trkpt>
      <trkpt lat="59.724951982498169" lon="8.409779034554958">
        <ele>1355.49609375</ele>
        <time>2019-06-22T15:31:05Z</time>
      </trkpt>
      <trkpt lat="59.724950976669788" lon="8.409835025668144">
        <ele>1354.17578125</ele>
        <time>2019-06-22T15:31:19Z</time>
      </trkpt>
      <trkpt lat="59.724944019690156" lon="8.409825973212719">
        <ele>1354.46484375</ele>
        <time>2019-06-22T15:31:32Z</time>
      </trkpt>
      <trkpt lat="59.724903032183647" lon="8.409794960170984">
        <ele>1355.625</ele>
        <time>2019-06-22T15:31:47Z</time>
      </trkpt>
      <trkpt lat="59.724893979728222" lon="8.409749027341604">
        <ele>1356.7890625</ele>
        <time>2019-06-22T15:31:57Z</time>
      </trkpt>
      <trkpt lat="59.724908983334899" lon="8.409774005413055">
        <ele>1356.0546875</ele>
        <time>2019-06-22T15:32:16Z</time>
      </trkpt>
      <trkpt lat="59.724933039397001" lon="8.409795965999365">
        <ele>1355.2890625</ele>
        <time>2019-06-22T15:32:31Z</time>
      </trkpt>
      <trkpt lat="59.724938990548253" lon="8.40980401262641">
        <ele>1355.0390625</ele>
        <time>2019-06-22T15:32:33Z</time>
      </trkpt>
      <trkpt lat="59.724958017468452" lon="8.409840976819396">
        <ele>1353.95703125</ele>
        <time>2019-06-22T15:32:39Z</time>
      </trkpt>
      <trkpt lat="59.724979978054762" lon="8.409901997074485">
        <ele>1352.2578125</ele>
        <time>2019-06-22T15:33:02Z</time>
      </trkpt>
      <trkpt lat="59.724978972226381" lon="8.409895962104201">
        <ele>1352.4140625</ele>
        <time>2019-06-22T15:33:24Z</time>
      </trkpt>
      <trkpt lat="59.724976038560271" lon="8.409906020388007">
        <ele>1352.203125</ele>
        <time>2019-06-22T15:33:30Z</time>
      </trkpt>
      <trkpt lat="59.724880987778306" lon="8.410181030631065">
        <ele>1346.7109375</ele>
        <time>2019-06-22T15:33:46Z</time>
      </trkpt>
      <trkpt lat="59.724807981401682" lon="8.410250013694167">
        <ele>1345.953125</ele>
        <time>2019-06-22T15:33:58Z</time>
      </trkpt>
      <trkpt lat="59.724701028317213" lon="8.410453023388982">
        <ele>1342.640625</ele>
        <time>2019-06-22T15:34:12Z</time>
      </trkpt>
      <trkpt lat="59.724659034982324" lon="8.410533992573619">
        <ele>1341.22265625</ele>
        <time>2019-06-22T15:34:19Z</time>
      </trkpt>
      <trkpt lat="59.724584016948938" lon="8.410580009222031">
        <ele>1341.21484375</ele>
        <time>2019-06-22T15:34:27Z</time>
      </trkpt>
      <trkpt lat="59.724498018622398" lon="8.410639017820358">
        <ele>1341.16796875</ele>
        <time>2019-06-22T15:34:45Z</time>
      </trkpt>
      <trkpt lat="59.724498018622398" lon="8.410640023648739">
        <ele>1341.14453125</ele>
        <time>2019-06-22T15:34:48Z</time>
      </trkpt>
      <trkpt lat="59.72445703111589" lon="8.410731973126531">
        <ele>1339.94921875</ele>
        <time>2019-06-22T15:34:54Z</time>
      </trkpt>
      <trkpt lat="59.724420988932252" lon="8.410806991159916">
        <ele>1339.328125</ele>
        <time>2019-06-22T15:34:57Z</time>
      </trkpt>
      <trkpt lat="59.724380001425743" lon="8.410875974223018">
        <ele>1338.4921875</ele>
        <time>2019-06-22T15:35:00Z</time>
      </trkpt>
      <trkpt lat="59.724342031404376" lon="8.410941017791629">
        <ele>1337.49609375</ele>
        <time>2019-06-22T15:35:03Z</time>
      </trkpt>
      <trkpt lat="59.724316969513893" lon="8.411020981147885">
        <ele>1336.38671875</ele>
        <time>2019-06-22T15:35:06Z</time>
      </trkpt>
      <trkpt lat="59.724259972572327" lon="8.411193983629346">
        <ele>1334.20703125</ele>
        <time>2019-06-22T15:35:15Z</time>
      </trkpt>
      <trkpt lat="59.724214961752295" lon="8.411276964470744">
        <ele>1332.4765625</ele>
        <time>2019-06-22T15:35:19Z</time>
      </trkpt>
      <trkpt lat="59.724165005609393" lon="8.411328010261059">
        <ele>1330.87890625</ele>
        <time>2019-06-22T15:35:22Z</time>
      </trkpt>
      <trkpt lat="59.72405101172626" lon="8.411363968625665">
        <ele>1328.66015625</ele>
        <time>2019-06-22T15:35:30Z</time>
      </trkpt>
      <trkpt lat="59.72402703948319" lon="8.411435969173908">
        <ele>1327.1328125</ele>
        <time>2019-06-22T15:35:34Z</time>
      </trkpt>
      <trkpt lat="59.724059980362654" lon="8.411562032997608">
        <ele>1325.4609375</ele>
        <time>2019-06-22T15:35:40Z</time>
      </trkpt>
      <trkpt lat="59.724090993404388" lon="8.411759007722139">
        <ele>1322.01171875</ele>
        <time>2019-06-22T15:35:51Z</time>
      </trkpt>
      <trkpt lat="59.724062997847795" lon="8.411849029362202">
        <ele>1319.74609375</ele>
        <time>2019-06-22T15:35:55Z</time>
      </trkpt>
      <trkpt lat="59.724079007282853" lon="8.411924969404936">
        <ele>1318.25</ele>
        <time>2019-06-22T15:35:58Z</time>
      </trkpt>
      <trkpt lat="59.724076995626092" lon="8.411968974396586">
        <ele>1317.22265625</ele>
        <time>2019-06-22T15:36:00Z</time>
      </trkpt>
      <trkpt lat="59.724069032818079" lon="8.412008034065366">
        <ele>1316.2265625</ele>
        <time>2019-06-22T15:36:03Z</time>
      </trkpt>
      <trkpt lat="59.724006000906229" lon="8.412039969116449">
        <ele>1314.65625</ele>
        <time>2019-06-22T15:36:07Z</time>
      </trkpt>
      <trkpt lat="59.723954033106565" lon="8.412068970501423">
        <ele>1313.31640625</ele>
        <time>2019-06-22T15:36:10Z</time>
      </trkpt>
      <trkpt lat="59.723915979266167" lon="8.412110041826963">
        <ele>1311.8359375</ele>
        <time>2019-06-22T15:36:13Z</time>
      </trkpt>
      <trkpt lat="59.723849007859826" lon="8.412154968827963">
        <ele>1309.9140625</ele>
        <time>2019-06-22T15:36:17Z</time>
      </trkpt>
      <trkpt lat="59.723805002868176" lon="8.412152035161853">
        <ele>1309.62109375</ele>
        <time>2019-06-22T15:36:20Z</time>
      </trkpt>
      <trkpt lat="59.723711963742971" lon="8.412327971309423">
        <ele>1304.875</ele>
        <time>2019-06-22T15:36:29Z</time>
      </trkpt>
      <trkpt lat="59.723676005378366" lon="8.412351021543145">
        <ele>1304.25390625</ele>
        <time>2019-06-22T15:36:43Z</time>
      </trkpt>
      <trkpt lat="59.723679022863507" lon="8.412370970472693">
        <ele>1303.828125</ele>
        <time>2019-06-22T15:37:04Z</time>
      </trkpt>
      <trkpt lat="59.723673993721604" lon="8.412435008212924">
        <ele>1302.265625</ele>
        <time>2019-06-22T15:37:22Z</time>
      </trkpt>
      <trkpt lat="59.723595036193728" lon="8.412645980715752">
        <ele>1297.42578125</ele>
        <time>2019-06-22T15:37:33Z</time>
      </trkpt>
      <trkpt lat="59.723618002608418" lon="8.41272896155715">
        <ele>1295.71484375</ele>
        <time>2019-06-22T15:37:39Z</time>
      </trkpt>
      <trkpt lat="59.723618002608418" lon="8.41274899430573">
        <ele>1295.40234375</ele>
        <time>2019-06-22T15:37:40Z</time>
      </trkpt>
      <trkpt lat="59.723583972081542" lon="8.412777995690703">
        <ele>1295.546875</ele>
        <time>2019-06-22T15:37:45Z</time>
      </trkpt>
      <trkpt lat="59.723546002060175" lon="8.412800040096045">
        <ele>1296</ele>
        <time>2019-06-22T15:37:48Z</time>
      </trkpt>
      <trkpt lat="59.723489005118608" lon="8.412872040644288">
        <ele>1295.9296875</ele>
        <time>2019-06-22T15:37:54Z</time>
      </trkpt>
      <trkpt lat="59.723418010398746" lon="8.412970025092363">
        <ele>1295.53515625</ele>
        <time>2019-06-22T15:38:02Z</time>
      </trkpt>
      <trkpt lat="59.72349101677537" lon="8.413230031728745">
        <ele>1290.75390625</ele>
        <time>2019-06-22T15:38:13Z</time>
      </trkpt>
      <trkpt lat="59.723510965704918" lon="8.413294991478324">
        <ele>1289.37890625</ele>
        <time>2019-06-22T15:38:17Z</time>
      </trkpt>
      <trkpt lat="59.723529992625117" lon="8.413305971771479">
        <ele>1289.05859375</ele>
        <time>2019-06-22T15:38:27Z</time>
      </trkpt>
      <trkpt lat="59.723564023151994" lon="8.413589028641582">
        <ele>1283.421875</ele>
        <time>2019-06-22T15:38:36Z</time>
      </trkpt>
      <trkpt lat="59.723452962934971" lon="8.413904020562768">
        <ele>1279.36328125</ele>
        <time>2019-06-22T15:38:45Z</time>
      </trkpt>
      <trkpt lat="59.723412981256843" lon="8.413992030546069">
        <ele>1278.3125</ele>
        <time>2019-06-22T15:38:57Z</time>
      </trkpt>
      <trkpt lat="59.723380040377378" lon="8.414263017475605">
        <ele>1274.01171875</ele>
        <time>2019-06-22T15:39:26Z</time>
      </trkpt>
      <trkpt lat="59.723367970436811" lon="8.414350021630526">
        <ele>1272.5703125</ele>
        <time>2019-06-22T15:39:28Z</time>
      </trkpt>
      <trkpt lat="59.723343998193741" lon="8.414455968886614">
        <ele>1270.77734375</ele>
        <time>2019-06-22T15:39:31Z</time>
      </trkpt>
      <trkpt lat="59.723325977101922" lon="8.414642969146371">
        <ele>1267.3046875</ele>
        <time>2019-06-22T15:39:36Z</time>
      </trkpt>
      <trkpt lat="59.723325977101922" lon="8.414672976359725">
        <ele>1266.74609375</ele>
        <time>2019-06-22T15:39:37Z</time>
      </trkpt>
      <trkpt lat="59.723309967666864" lon="8.414741959422827">
        <ele>1265.359375</ele>
        <time>2019-06-22T15:39:40Z</time>
      </trkpt>
      <trkpt lat="59.723254982382059" lon="8.41487598605454">
        <ele>1262.58984375</ele>
        <time>2019-06-22T15:39:45Z</time>
      </trkpt>
      <trkpt lat="59.723247019574046" lon="8.414902975782752">
        <ele>1262.14453125</ele>
        <time>2019-06-22T15:39:46Z</time>
      </trkpt>
      <trkpt lat="59.723218018189073" lon="8.415019987151027">
        <ele>1260.42578125</ele>
        <time>2019-06-22T15:39:49Z</time>
      </trkpt>
      <trkpt lat="59.72321298904717" lon="8.415145967155695">
        <ele>1258.73828125</ele>
        <time>2019-06-22T15:39:52Z</time>
      </trkpt>
      <trkpt lat="59.723094971850514" lon="8.415356017649174">
        <ele>1256.90625</ele>
        <time>2019-06-22T15:40:00Z</time>
      </trkpt>
      <trkpt lat="59.723043004050851" lon="8.415441010147333">
        <ele>1255.34765625</ele>
        <time>2019-06-22T15:40:04Z</time>
      </trkpt>
      <trkpt lat="59.72299799323082" lon="8.415549974888563">
        <ele>1252.7734375</ele>
        <time>2019-06-22T15:40:07Z</time>
      </trkpt>
      <trkpt lat="59.722936972975731" lon="8.415631027892232">
        <ele>1250.58984375</ele>
        <time>2019-06-22T15:40:10Z</time>
      </trkpt>
      <trkpt lat="59.722819961607456" lon="8.415758013725281">
        <ele>1247.203125</ele>
        <time>2019-06-22T15:40:14Z</time>
      </trkpt>
      <trkpt lat="59.722617035731673" lon="8.415959011763334">
        <ele>1242.75390625</ele>
        <time>2019-06-22T15:46:21Z</time>
      </trkpt>
      <trkpt lat="59.722519973292947" lon="8.416092032566667">
        <ele>1241.4609375</ele>
        <time>2019-06-22T15:46:27Z</time>
      </trkpt>
      <trkpt lat="59.722343031316996" lon="8.416212983429432">
        <ele>1240.59765625</ele>
        <time>2019-06-22T15:48:29Z</time>
      </trkpt>
      <trkpt lat="59.7223100066185" lon="8.416408030316234">
        <ele>1237.54296875</ele>
        <time>2019-06-22T15:48:36Z</time>
      </trkpt>
      <trkpt lat="59.722301959991455" lon="8.416434014216065">
        <ele>1237.015625</ele>
        <time>2019-06-22T15:48:37Z</time>
      </trkpt>
      <trkpt lat="59.72226801328361" lon="8.416513977572322">
        <ele>1235.3515625</ele>
        <time>2019-06-22T15:48:40Z</time>
      </trkpt>
      <trkpt lat="59.722230965271592" lon="8.416574997827411">
        <ele>1234.33984375</ele>
        <time>2019-06-22T15:48:43Z</time>
      </trkpt>
      <trkpt lat="59.722157036885619" lon="8.416649010032415">
        <ele>1232.97265625</ele>
        <time>2019-06-22T15:48:47Z</time>
      </trkpt>
      <trkpt lat="59.722097022458911" lon="8.416683962568641">
        <ele>1232.0859375</ele>
        <time>2019-06-22T15:48:50Z</time>
      </trkpt>
      <trkpt lat="59.72203298471868" lon="8.41672302223742">
        <ele>1231.09765625</ele>
        <time>2019-06-22T15:48:53Z</time>
      </trkpt>
      <trkpt lat="59.721979005262256" lon="8.416755041107535">
        <ele>1230.26171875</ele>
        <time>2019-06-22T15:48:56Z</time>
      </trkpt>
      <trkpt lat="59.72194698639214" lon="8.416798962280154">
        <ele>1229.45703125</ele>
        <time>2019-06-22T15:48:59Z</time>
      </trkpt>
      <trkpt lat="59.721942963078618" lon="8.416952015832067">
        <ele>1227.69140625</ele>
        <time>2019-06-22T15:49:03Z</time>
      </trkpt>
      <trkpt lat="59.721870040521026" lon="8.417229959741235">
        <ele>1221.4296875</ele>
        <time>2019-06-22T15:49:10Z</time>
      </trkpt>
      <trkpt lat="59.721749005839229" lon="8.417597003281117">
        <ele>1212.40625</ele>
        <time>2019-06-22T15:49:18Z</time>
      </trkpt>
      <trkpt lat="59.721635011956096" lon="8.417800012975931">
        <ele>1207.44140625</ele>
        <time>2019-06-22T15:49:26Z</time>
      </trkpt>
      <trkpt lat="59.72162595950067" lon="8.417845023795962">
        <ele>1206.63671875</ele>
        <time>2019-06-22T15:49:27Z</time>
      </trkpt>
      <trkpt lat="59.721593018621206" lon="8.417902020737529">
        <ele>1205.20703125</ele>
        <time>2019-06-22T15:49:30Z</time>
      </trkpt>
      <trkpt lat="59.72158002667129" lon="8.417900009080768">
        <ele>1204.96875</ele>
        <time>2019-06-22T15:49:31Z</time>
      </trkpt>
      <trkpt lat="59.72155898809433" lon="8.417862961068749">
        <ele>1204.97265625</ele>
        <time>2019-06-22T15:49:33Z</time>
      </trkpt>
      <trkpt lat="59.721495034173131" lon="8.417910989373922">
        <ele>1203.125</ele>
        <time>2019-06-22T15:49:37Z</time>
      </trkpt>
      <trkpt lat="59.721447005867958" lon="8.417932027950883">
        <ele>1201.98828125</ele>
        <time>2019-06-22T15:49:40Z</time>
      </trkpt>
      <trkpt lat="59.721401995047927" lon="8.417964968830347">
        <ele>1200.98828125</ele>
        <time>2019-06-22T15:49:43Z</time>
      </trkpt>
      <trkpt lat="59.72134399227798" lon="8.418038981035352">
        <ele>1199.16796875</ele>
        <time>2019-06-22T15:49:47Z</time>
      </trkpt>
      <trkpt lat="59.721323037520051" lon="8.418143000453711">
        <ele>1198.2890625</ele>
        <time>2019-06-22T15:49:50Z</time>
      </trkpt>
      <trkpt lat="59.721291018649936" lon="8.418437037616968">
        <ele>1197.078125</ele>
        <time>2019-06-22T15:49:58Z</time>
      </trkpt>
      <trkpt lat="59.721249025315046" lon="8.418550025671721">
        <ele>1195.3125</ele>
        <time>2019-06-22T15:50:03Z</time>
      </trkpt>
      <trkpt lat="59.721184987574816" lon="8.418791005387902">
        <ele>1191.79296875</ele>
        <time>2019-06-22T15:50:11Z</time>
      </trkpt>
      <trkpt lat="59.721169983968139" lon="8.418811038136482">
        <ele>1191.203125</ele>
        <time>2019-06-22T15:50:12Z</time>
      </trkpt>
      <trkpt lat="59.721140982583165" lon="8.418952021747828">
        <ele>1189.1328125</ele>
        <time>2019-06-22T15:50:16Z</time>
      </trkpt>
      <trkpt lat="59.721108041703701" lon="8.419054029509425">
        <ele>1187.4296875</ele>
        <time>2019-06-22T15:50:19Z</time>
      </trkpt>
      <trkpt lat="59.721122039481997" lon="8.419118989259005">
        <ele>1186.77734375</ele>
        <time>2019-06-22T15:50:22Z</time>
      </trkpt>
      <trkpt lat="59.721132013946772" lon="8.419242035597563">
        <ele>1185.12890625</ele>
        <time>2019-06-22T15:50:25Z</time>
      </trkpt>
      <trkpt lat="59.721146011725068" lon="8.41936700977385">
        <ele>1183.38671875</ele>
        <time>2019-06-22T15:50:28Z</time>
      </trkpt>
      <trkpt lat="59.721111981198192" lon="8.419471029192209">
        <ele>1181.41015625</ele>
        <time>2019-06-22T15:50:32Z</time>
      </trkpt>
      <trkpt lat="59.721053978428245" lon="8.419526014477015">
        <ele>1179.5625</ele>
        <time>2019-06-22T15:50:35Z</time>
      </trkpt>
      <trkpt lat="59.72097996622324" lon="8.41966699808836">
        <ele>1176.21484375</ele>
        <time>2019-06-22T15:50:41Z</time>
      </trkpt>
      <trkpt lat="59.720921963453293" lon="8.419708991423249">
        <ele>1174.71875</ele>
        <time>2019-06-22T15:50:44Z</time>
      </trkpt>
      <trkpt lat="59.720896985381842" lon="8.419770011678338">
        <ele>1173.48828125</ele>
        <time>2019-06-22T15:50:47Z</time>
      </trkpt>
      <trkpt lat="59.720759019255638" lon="8.419899009168148">
        <ele>1169.515625</ele>
        <time>2019-06-22T15:50:54Z</time>
      </trkpt>
      <trkpt lat="59.72071903757751" lon="8.419953994452953">
        <ele>1167.96875</ele>
        <time>2019-06-22T15:50:56Z</time>
      </trkpt>
      <trkpt lat="59.720666985958815" lon="8.420002022758126">
        <ele>1166.40625</ele>
        <time>2019-06-22T15:50:59Z</time>
      </trkpt>
      <trkpt lat="59.720618035644293" lon="8.420085003599525">
        <ele>1164.4765625</ele>
        <time>2019-06-22T15:51:02Z</time>
      </trkpt>
      <trkpt lat="59.720518039539456" lon="8.420270998030901">
        <ele>1162.3828125</ele>
        <time>2019-06-22T15:51:08Z</time>
      </trkpt>
      <trkpt lat="59.720497000962496" lon="8.420310979709029">
        <ele>1162.1640625</ele>
        <time>2019-06-22T15:51:09Z</time>
      </trkpt>
      <trkpt lat="59.720368003472686" lon="8.420596970245242">
        <ele>1159.69140625</ele>
        <time>2019-06-22T15:51:17Z</time>
      </trkpt>
      <trkpt lat="59.720293991267681" lon="8.420938029885292">
        <ele>1156.5234375</ele>
        <time>2019-06-22T15:51:26Z</time>
      </trkpt>
      <trkpt lat="59.720242023468018" lon="8.421213962137699">
        <ele>1154.3828125</ele>
        <time>2019-06-22T15:51:33Z</time>
      </trkpt>
      <trkpt lat="59.72020598128438" lon="8.42127900570631">
        <ele>1153.609375</ele>
        <time>2019-06-22T15:51:36Z</time>
      </trkpt>
      <trkpt lat="59.720179997384548" lon="8.4214729629457">
        <ele>1151.96484375</ele>
        <time>2019-06-22T15:51:42Z</time>
      </trkpt>
      <trkpt lat="59.720199024304748" lon="8.421705979853869">
        <ele>1150.63671875</ele>
        <time>2019-06-22T15:51:46Z</time>
      </trkpt>
      <trkpt lat="59.720168011263013" lon="8.422047961503267">
        <ele>1148.265625</ele>
        <time>2019-06-22T15:51:55Z</time>
      </trkpt>
      <trkpt lat="59.720216039568186" lon="8.422340992838144">
        <ele>1147.42578125</ele>
        <time>2019-06-22T15:52:03Z</time>
      </trkpt>
      <trkpt lat="59.720283010974526" lon="8.422630000859499">
        <ele>1146.4375</ele>
        <time>2019-06-22T15:52:11Z</time>
      </trkpt>
      <trkpt lat="59.72033497877419" lon="8.422927977517247">
        <ele>1145.3515625</ele>
        <time>2019-06-22T15:52:20Z</time>
      </trkpt>
      <trkpt lat="59.720379989594221" lon="8.423080025240779">
        <ele>1145.3046875</ele>
        <time>2019-06-22T15:52:32Z</time>
      </trkpt>
      <trkpt lat="59.720406979322433" lon="8.423304995521903">
        <ele>1144.578125</ele>
        <time>2019-06-22T15:54:01Z</time>
      </trkpt>
      <trkpt lat="59.720400022342801" lon="8.423643037676811">
        <ele>1142.87109375</ele>
        <time>2019-06-22T15:54:07Z</time>
      </trkpt>
      <trkpt lat="59.720400022342801" lon="8.423704979941249">
        <ele>1142.58203125</ele>
        <time>2019-06-22T15:54:08Z</time>
      </trkpt>
      <trkpt lat="59.720376972109079" lon="8.424310991540551">
        <ele>1140.5546875</ele>
        <time>2019-06-22T15:54:19Z</time>
      </trkpt>
      <trkpt lat="59.720258032903075" lon="8.424768978729844">
        <ele>1140.140625</ele>
        <time>2019-06-22T15:54:29Z</time>
      </trkpt>
      <trkpt lat="59.720191983506083" lon="8.425075002014637">
        <ele>1139.921875</ele>
        <time>2019-06-22T15:54:37Z</time>
      </trkpt>
      <trkpt lat="59.720053011551499" lon="8.425212968140841">
        <ele>1139.5625</ele>
        <time>2019-06-22T15:54:44Z</time>
      </trkpt>
      <trkpt lat="59.719855030998588" lon="8.425318999215961">
        <ele>1138.54296875</ele>
        <time>2019-06-22T15:54:53Z</time>
      </trkpt>
      <trkpt lat="59.719614973291755" lon="8.425551010295749">
        <ele>1137.109375</ele>
        <time>2019-06-22T15:55:03Z</time>
      </trkpt>
      <trkpt lat="59.719433002173901" lon="8.425677996128798">
        <ele>1135.9921875</ele>
        <time>2019-06-22T15:55:11Z</time>
      </trkpt>
      <trkpt lat="59.719283971935511" lon="8.425839012488723">
        <ele>1135.03515625</ele>
        <time>2019-06-22T15:55:18Z</time>
      </trkpt>
      <trkpt lat="59.719071993604302" lon="8.42604998499155">
        <ele>1134.8125</ele>
        <time>2019-06-22T15:55:27Z</time>
      </trkpt>
      <trkpt lat="59.718887005001307" lon="8.426192980259657">
        <ele>1134.38671875</ele>
        <time>2019-06-22T15:55:35Z</time>
      </trkpt>
      <trkpt lat="59.718695981428027" lon="8.426419040188193">
        <ele>1133.6875</ele>
        <time>2019-06-22T15:55:44Z</time>
      </trkpt>
      <trkpt lat="59.718487020581961" lon="8.426632024347782">
        <ele>1132.2265625</ele>
        <time>2019-06-22T15:55:55Z</time>
      </trkpt>
      <trkpt lat="59.718350982293487" lon="8.4267139993608">
        <ele>1130.86328125</ele>
        <time>2019-06-22T15:56:02Z</time>
      </trkpt>
      <trkpt lat="59.71818502061069" lon="8.426687009632587">
        <ele>1128.34765625</ele>
        <time>2019-06-22T15:56:09Z</time>
      </trkpt>
      <trkpt lat="59.717982010915875" lon="8.426677035167813">
        <ele>1125.6171875</ele>
        <time>2019-06-22T15:56:18Z</time>
      </trkpt>
      <trkpt lat="59.71779702231288" lon="8.426634036004543">
        <ele>1123.1953125</ele>
        <time>2019-06-22T15:56:26Z</time>
      </trkpt>
      <trkpt lat="59.717704989016056" lon="8.426567986607552">
        <ele>1121.8359375</ele>
        <time>2019-06-22T15:56:33Z</time>
      </trkpt>
      <trkpt lat="59.717602981254458" lon="8.426567986607552">
        <ele>1120.6640625</ele>
        <time>2019-06-22T15:56:41Z</time>
      </trkpt>
      <trkpt lat="59.717574985697865" lon="8.426612997427583">
        <ele>1120.68359375</ele>
        <time>2019-06-22T15:56:52Z</time>
      </trkpt>
      <trkpt lat="59.717450011521578" lon="8.42645701020956">
        <ele>1117.9609375</ele>
        <time>2019-06-22T15:57:03Z</time>
      </trkpt>
      <trkpt lat="59.717426039278507" lon="8.426439994946122">
        <ele>1117.53125</ele>
        <time>2019-06-22T15:57:05Z</time>
      </trkpt>
      <trkpt lat="59.717225041240454" lon="8.426433959975839">
        <ele>1114.97265625</ele>
        <time>2019-06-22T15:57:22Z</time>
      </trkpt>
      <trkpt lat="59.717018008232117" lon="8.426531022414565">
        <ele>1112.64453125</ele>
        <time>2019-06-22T15:57:37Z</time>
      </trkpt>
      <trkpt lat="59.716736963018775" lon="8.426618026569486">
        <ele>1109.25</ele>
        <time>2019-06-22T15:57:53Z</time>
      </trkpt>
      <trkpt lat="59.71655398607254" lon="8.426729002967477">
        <ele>1107.1796875</ele>
        <time>2019-06-22T15:58:01Z</time>
      </trkpt>
      <trkpt lat="59.716437980532646" lon="8.426830004900694">
        <ele>1105.46875</ele>
        <time>2019-06-22T15:58:09Z</time>
      </trkpt>
      <trkpt lat="59.716325998306274" lon="8.426793040707707">
        <ele>1103.20703125</ele>
        <time>2019-06-22T15:58:16Z</time>
      </trkpt>
      <trkpt lat="59.716174034401774" lon="8.42680100351572">
        <ele>1100.19921875</ele>
        <time>2019-06-22T15:58:26Z</time>
      </trkpt>
      <trkpt lat="59.716056017205119" lon="8.426804021000862">
        <ele>1097.671875</ele>
        <time>2019-06-22T15:58:33Z</time>
      </trkpt>
      <trkpt lat="59.715875973924994" lon="8.426806032657623">
        <ele>1093.5234375</ele>
        <time>2019-06-22T15:58:42Z</time>
      </trkpt>
      <trkpt lat="59.715730967000127" lon="8.426836961880326">
        <ele>1090.25</ele>
        <time>2019-06-22T15:58:50Z</time>
      </trkpt>
      <trkpt lat="59.715685034170747" lon="8.426878033205867">
        <ele>1089.58203125</ele>
        <time>2019-06-22T15:58:53Z</time>
      </trkpt>
      <trkpt lat="59.715542960911989" lon="8.426977023482323">
        <ele>1086.734375</ele>
        <time>2019-06-22T15:59:01Z</time>
      </trkpt>
      <trkpt lat="59.715469032526016" lon="8.427123036235571">
        <ele>1085.6875</ele>
        <time>2019-06-22T15:59:11Z</time>
      </trkpt>
      <trkpt lat="59.715469032526016" lon="8.42712102457881">
        <ele>1085.66015625</ele>
        <time>2019-06-22T15:59:12Z</time>
      </trkpt>
      <trkpt lat="59.715395020321012" lon="8.427226971834898">
        <ele>1084.2109375</ele>
        <time>2019-06-22T15:59:21Z</time>
      </trkpt>
      <trkpt lat="59.715364007279277" lon="8.427261002361774">
        <ele>1083.46875</ele>
        <time>2019-06-22T15:59:24Z</time>
      </trkpt>
      <trkpt lat="59.715280020609498" lon="8.427227977663279">
        <ele>1079.83984375</ele>
        <time>2019-06-22T15:59:31Z</time>
      </trkpt>
      <trkpt lat="59.715237021446228" lon="8.427234012633562">
        <ele>1078.78515625</ele>
        <time>2019-06-22T15:59:35Z</time>
      </trkpt>
      <trkpt lat="59.715207014232874" lon="8.427282040938735">
        <ele>1078.625</ele>
        <time>2019-06-22T15:59:38Z</time>
      </trkpt>
      <trkpt lat="59.715115986764431" lon="8.427350018173456">
        <ele>1077.12109375</ele>
        <time>2019-06-22T15:59:45Z</time>
      </trkpt>
      <trkpt lat="59.714964022859931" lon="8.427641037851572">
        <ele>1074.3515625</ele>
        <time>2019-06-22T16:00:03Z</time>
      </trkpt>
      <trkpt lat="59.714878024533391" lon="8.427761988714337">
        <ele>1071.17578125</ele>
        <time>2019-06-22T16:00:16Z</time>
      </trkpt>
      <trkpt lat="59.714733017608523" lon="8.427929040044546">
        <ele>1064.71484375</ele>
        <time>2019-06-22T16:00:28Z</time>
      </trkpt>
      <trkpt lat="59.714644001796842" lon="8.428019983693957">
        <ele>1064.80859375</ele>
        <time>2019-06-22T16:00:34Z</time>
      </trkpt>
      <trkpt lat="59.714497989043593" lon="8.428149987012148">
        <ele>1064.84765625</ele>
        <time>2019-06-22T16:00:44Z</time>
      </trkpt>
      <trkpt lat="59.714363040402532" lon="8.428174965083599">
        <ele>1061.78515625</ele>
        <time>2019-06-22T16:00:57Z</time>
      </trkpt>
      <trkpt lat="59.714265977963805" lon="8.42824000865221">
        <ele>1059.97265625</ele>
        <time>2019-06-22T16:01:06Z</time>
      </trkpt>
      <trkpt lat="59.714113008230925" lon="8.428338998928666">
        <ele>1057.61328125</ele>
        <time>2019-06-22T16:01:18Z</time>
      </trkpt>
      <trkpt lat="59.713977975770831" lon="8.428338998928666">
        <ele>1053.984375</ele>
        <time>2019-06-22T16:01:25Z</time>
      </trkpt>
      <trkpt lat="59.713863981887698" lon="8.428377974778414">
        <ele>1051.94921875</ele>
        <time>2019-06-22T16:01:34Z</time>
      </trkpt>
      <trkpt lat="59.713837997987866" lon="8.428400019183755">
        <ele>1051.8515625</ele>
        <time>2019-06-22T16:01:37Z</time>
      </trkpt>
      <trkpt lat="59.713730961084366" lon="8.428486017510295">
        <ele>1051.16015625</ele>
        <time>2019-06-22T16:01:47Z</time>
      </trkpt>
      <trkpt lat="59.713648986071348" lon="8.428767984732986">
        <ele>1055.078125</ele>
        <time>2019-06-22T16:01:57Z</time>
      </trkpt>
      <trkpt lat="59.713484030216932" lon="8.428745018318296">
        <ele>1049.48046875</ele>
        <time>2019-06-22T16:02:05Z</time>
      </trkpt>
      <trkpt lat="59.713353021070361" lon="8.428691038861871">
        <ele>1044.765625</ele>
        <time>2019-06-22T16:02:11Z</time>
      </trkpt>
      <trkpt lat="59.713303986936808" lon="8.428671006113291">
        <ele>1043.45703125</ele>
        <time>2019-06-22T16:02:13Z</time>
      </trkpt>
      <trkpt lat="59.713251013308764" lon="8.428705958649516">
        <ele>1042.66015625</ele>
        <time>2019-06-22T16:02:16Z</time>
      </trkpt>
      <trkpt lat="59.713194016367197" lon="8.428792962804437">
        <ele>1042.55078125</ele>
        <time>2019-06-22T16:02:20Z</time>
      </trkpt>
      <trkpt lat="59.713068036362529" lon="8.428822970017791">
        <ele>1040.54296875</ele>
        <time>2019-06-22T16:02:27Z</time>
      </trkpt>
      <trkpt lat="59.712885981425643" lon="8.428768990561366">
        <ele>1036.91015625</ele>
        <time>2019-06-22T16:02:34Z</time>
      </trkpt>
      <trkpt lat="59.712796965613961" lon="8.42879799194634">
        <ele>1036.05859375</ele>
        <time>2019-06-22T16:02:39Z</time>
      </trkpt>
      <trkpt lat="59.712631003931165" lon="8.42886202968657">
        <ele>1034.50390625</ele>
        <time>2019-06-22T16:02:47Z</time>
      </trkpt>
      <trkpt lat="59.712524972856045" lon="8.428892036899924">
        <ele>1033.25</ele>
        <time>2019-06-22T16:02:57Z</time>
      </trkpt>
      <trkpt lat="59.712467975914478" lon="8.428902011364698">
        <ele>1032.1640625</ele>
        <time>2019-06-22T16:03:05Z</time>
      </trkpt>
      <trkpt lat="59.712480967864394" lon="8.428769996389747">
        <ele>1030.4765625</ele>
        <time>2019-06-22T16:03:19Z</time>
      </trkpt>
      <trkpt lat="59.712480967864394" lon="8.42873496003449">
        <ele>1029.921875</ele>
        <time>2019-06-22T16:03:27Z</time>
      </trkpt>
      <trkpt lat="59.712390024214983" lon="8.428788017481566">
        <ele>1028.62890625</ele>
        <time>2019-06-22T16:03:40Z</time>
      </trkpt>
      <trkpt lat="59.712363034486771" lon="8.428761027753353">
        <ele>1027.61328125</ele>
        <time>2019-06-22T16:03:46Z</time>
      </trkpt>
      <trkpt lat="59.71223495900631" lon="8.428829004988074">
        <ele>1025.5546875</ele>
        <time>2019-06-22T16:03:56Z</time>
      </trkpt>
      <trkpt lat="59.712172010913491" lon="8.428688021376729">
        <ele>1022.1171875</ele>
        <time>2019-06-22T16:04:07Z</time>
      </trkpt>
      <trkpt lat="59.712161030620337" lon="8.428586013615131">
        <ele>1020.2578125</ele>
        <time>2019-06-22T16:04:12Z</time>
      </trkpt>
      <trkpt lat="59.712089030072093" lon="8.428463973104954">
        <ele>1016.875</ele>
        <time>2019-06-22T16:04:20Z</time>
      </trkpt>
      <trkpt lat="59.712087018415332" lon="8.428457016125321">
        <ele>1016.71875</ele>
        <time>2019-06-22T16:04:35Z</time>
      </trkpt>
      <trkpt lat="59.711947962641716" lon="8.428289964795113">
        <ele>1011.0390625</ele>
        <time>2019-06-22T16:04:46Z</time>
      </trkpt>
      <trkpt lat="59.71186799928546" lon="8.42830203473568">
        <ele>1009.8984375</ele>
        <time>2019-06-22T16:04:54Z</time>
      </trkpt>
      <trkpt lat="59.711789041757584" lon="8.428203966468573">
        <ele>1006.90625</ele>
        <time>2019-06-22T16:05:01Z</time>
      </trkpt>
      <trkpt lat="59.711776971817017" lon="8.42821603640914">
        <ele>1006.91015625</ele>
        <time>2019-06-22T16:05:02Z</time>
      </trkpt>
      <trkpt lat="59.711744030937552" lon="8.42821897007525">
        <ele>1006.4140625</ele>
        <time>2019-06-22T16:05:05Z</time>
      </trkpt>
      <trkpt lat="59.71167303621769" lon="8.428236991167069">
        <ele>1005.53125</ele>
        <time>2019-06-22T16:05:11Z</time>
      </trkpt>
      <trkpt lat="59.711635988205671" lon="8.428237996995449">
        <ele>1004.62890625</ele>
        <time>2019-06-22T16:05:14Z</time>
      </trkpt>
      <trkpt lat="59.711554013192654" lon="8.428215030580759">
        <ele>1002.26171875</ele>
        <time>2019-06-22T16:05:20Z</time>
      </trkpt>
      <trkpt lat="59.711474971845746" lon="8.428299017250538">
        <ele>1001.453125</ele>
        <time>2019-06-22T16:05:27Z</time>
      </trkpt>
      <trkpt lat="59.711394002661109" lon="8.428378980606794">
        <ele>1000.328125</ele>
        <time>2019-06-22T16:05:38Z</time>
      </trkpt>
      <trkpt lat="59.711273973807693" lon="8.42845500446856">
        <ele>997.7421875</ele>
        <time>2019-06-22T16:05:49Z</time>
      </trkpt>
      <trkpt lat="59.711143970489502" lon="8.428543014451861">
        <ele>994.4765625</ele>
        <time>2019-06-22T16:06:00Z</time>
      </trkpt>
      <trkpt lat="59.710991000756621" lon="8.428591964766383">
        <ele>990.265625</ele>
        <time>2019-06-22T16:06:10Z</time>
      </trkpt>
      <trkpt lat="59.710833001881838" lon="8.428699001669884">
        <ele>986.1953125</ele>
        <time>2019-06-22T16:06:21Z</time>
      </trkpt>
      <trkpt lat="59.710749015212059" lon="8.428720962256193">
        <ele>984.3359375</ele>
        <time>2019-06-22T16:06:29Z</time>
      </trkpt>
      <trkpt lat="59.710584981366992" lon="8.428786005824804">
        <ele>981.03515625</ele>
        <time>2019-06-22T16:06:40Z</time>
      </trkpt>
      <trkpt lat="59.710440980270505" lon="8.428859012201428">
        <ele>979.05078125</ele>
        <time>2019-06-22T16:06:50Z</time>
      </trkpt>
      <trkpt lat="59.710404016077518" lon="8.428857000544667">
        <ele>978.35546875</ele>
        <time>2019-06-22T16:06:54Z</time>
      </trkpt>
      <trkpt lat="59.710282981395721" lon="8.428942998871207">
        <ele>977.37109375</ele>
        <time>2019-06-22T16:07:05Z</time>
      </trkpt>
      <trkpt lat="59.710140991955996" lon="8.429051963612437">
        <ele>974.859375</ele>
        <time>2019-06-22T16:07:13Z</time>
      </trkpt>
      <trkpt lat="59.710131017491221" lon="8.429067973047495">
        <ele>974.58203125</ele>
        <time>2019-06-22T16:07:14Z</time>
      </trkpt>
      <trkpt lat="59.710096986964345" lon="8.429139973595738">
        <ele>973.64453125</ele>
        <time>2019-06-22T16:07:17Z</time>
      </trkpt>
      <trkpt lat="59.709992967545986" lon="8.429323034361005">
        <ele>971.015625</ele>
        <time>2019-06-22T16:07:26Z</time>
      </trkpt>
      <trkpt lat="59.709950974211097" lon="8.429353963583708">
        <ele>970.015625</ele>
        <time>2019-06-22T16:07:34Z</time>
      </trkpt>
      <trkpt lat="59.709924990311265" lon="8.429388999938965">
        <ele>969.47265625</ele>
        <time>2019-06-22T16:07:37Z</time>
      </trkpt>
      <trkpt lat="59.709822982549667" lon="8.429402997717261">
        <ele>966.984375</ele>
        <time>2019-06-22T16:07:44Z</time>
      </trkpt>
      <trkpt lat="59.70972097478807" lon="8.429452031850815">
        <ele>964.62890625</ele>
        <time>2019-06-22T16:07:51Z</time>
      </trkpt>
      <trkpt lat="59.709604969248176" lon="8.42957298271358">
        <ele>960.59375</ele>
        <time>2019-06-22T16:08:02Z</time>
      </trkpt>
      <trkpt lat="59.709512013942003" lon="8.429618999361992">
        <ele>956.953125</ele>
        <time>2019-06-22T16:08:10Z</time>
      </trkpt>
      <trkpt lat="59.709502961486578" lon="8.429624028503895">
        <ele>956.60546875</ele>
        <time>2019-06-22T16:08:11Z</time>
      </trkpt>
      <trkpt lat="59.709491981193423" lon="8.429609024897218">
        <ele>956.06640625</ele>
        <time>2019-06-22T16:08:13Z</time>
      </trkpt>
      <trkpt lat="59.709339011460543" lon="8.429667027667165">
        <ele>951.09375</ele>
        <time>2019-06-22T16:08:22Z</time>
      </trkpt>
      <trkpt lat="59.709316967055202" lon="8.429665016010404">
        <ele>950.375</ele>
        <time>2019-06-22T16:08:23Z</time>
      </trkpt>
      <trkpt lat="59.709285032004118" lon="8.429668033495545">
        <ele>949.36328125</ele>
        <time>2019-06-22T16:08:26Z</time>
      </trkpt>
      <trkpt lat="59.709261981770396" lon="8.429687982425094">
        <ele>948.71875</ele>
        <time>2019-06-22T16:08:29Z</time>
      </trkpt>
      <trkpt lat="59.709127033129334" lon="8.429842963814735">
        <ele>945.4453125</ele>
        <time>2019-06-22T16:08:39Z</time>
      </trkpt>
      <trkpt lat="59.709102977067232" lon="8.430181005969644">
        <ele>946.64453125</ele>
        <time>2019-06-22T16:08:49Z</time>
      </trkpt>
      <trkpt lat="59.70898998901248" lon="8.430622983723879">
        <ele>944.015625</ele>
        <time>2019-06-22T16:08:59Z</time>
      </trkpt>
      <trkpt lat="59.708826038986444" lon="8.430555006489158">
        <ele>938.88671875</ele>
        <time>2019-06-22T16:09:07Z</time>
      </trkpt>
      <trkpt lat="59.708745991811156" lon="8.430318972095847">
        <ele>936.734375</ele>
        <time>2019-06-22T16:09:17Z</time>
      </trkpt>
      <trkpt lat="59.708649013191462" lon="8.430284019559622">
        <ele>934.078125</ele>
        <time>2019-06-22T16:09:27Z</time>
      </trkpt>
      <trkpt lat="59.70862596295774" lon="8.430248983204365">
        <ele>933.58203125</ele>
        <time>2019-06-22T16:09:32Z</time>
      </trkpt>
      <trkpt lat="59.708567038178444" lon="8.430230962112546">
        <ele>932.68359375</ele>
        <time>2019-06-22T16:09:36Z</time>
      </trkpt>
      <trkpt lat="59.708535019308329" lon="8.430221993476152">
        <ele>932.23046875</ele>
        <time>2019-06-22T16:09:39Z</time>
      </trkpt>
      <trkpt lat="59.708476010710001" lon="8.430221993476152">
        <ele>931.3203125</ele>
        <time>2019-06-22T16:09:44Z</time>
      </trkpt>
      <trkpt lat="59.708395041525364" lon="8.430175976827741">
        <ele>930.27734375</ele>
        <time>2019-06-22T16:10:01Z</time>
      </trkpt>
      <trkpt lat="59.70828196965158" lon="8.430011020973325">
        <ele>928.60546875</ele>
        <time>2019-06-22T16:10:15Z</time>
      </trkpt>
      <trkpt lat="59.7082360368222" lon="8.429954024031758">
        <ele>927.76171875</ele>
        <time>2019-06-22T16:10:28Z</time>
      </trkpt>
      <trkpt lat="59.708219021558762" lon="8.429970033466816">
        <ele>927.421875</ele>
        <time>2019-06-22T16:10:31Z</time>
      </trkpt>
      <trkpt lat="59.708192031830549" lon="8.429992999881506">
        <ele>926.890625</ele>
        <time>2019-06-22T16:10:46Z</time>
      </trkpt>
      <trkpt lat="59.708203012123704" lon="8.429986964911223">
        <ele>927.10546875</ele>
        <time>2019-06-22T16:11:16Z</time>
      </trkpt>
      <trkpt lat="59.708188008517027" lon="8.429976990446448">
        <ele>926.8203125</ele>
        <time>2019-06-22T16:12:01Z</time>
      </trkpt>
      <trkpt lat="59.708190020173788" lon="8.429966010153294">
        <ele>926.86328125</ele>
        <time>2019-06-22T16:12:30Z</time>
      </trkpt>
      <trkpt lat="59.708183985203505" lon="8.429971039295197">
        <ele>926.74609375</ele>
        <time>2019-06-22T16:14:00Z</time>
      </trkpt>
      <trkpt lat="59.708182979375124" lon="8.429968021810055">
        <ele>926.7265625</ele>
        <time>2019-06-22T16:15:21Z</time>
      </trkpt>
      <trkpt lat="59.708178034052253" lon="8.429957963526249">
        <ele>926.63671875</ele>
        <time>2019-06-22T16:16:08Z</time>
      </trkpt>
      <trkpt lat="59.708177028223872" lon="8.429826032370329">
        <ele>926.453125</ele>
        <time>2019-06-22T16:16:17Z</time>
      </trkpt>
      <trkpt lat="59.708115002140403" lon="8.429597960785031">
        <ele>923.9765625</ele>
        <time>2019-06-22T16:16:28Z</time>
      </trkpt>
      <trkpt lat="59.708025986328721" lon="8.429396962746978">
        <ele>921.10546875</ele>
        <time>2019-06-22T16:16:40Z</time>
      </trkpt>
      <trkpt lat="59.707948034629226" lon="8.429327979683876">
        <ele>919.54296875</ele>
        <time>2019-06-22T16:16:49Z</time>
      </trkpt>
      <trkpt lat="59.707875028252602" lon="8.429246004670858">
        <ele>917.96875</ele>
        <time>2019-06-22T16:17:00Z</time>
      </trkpt>
      <trkpt lat="59.707475965842605" lon="8.428879966959357">
        <ele>911.54296875</ele>
        <time>2019-06-22T16:20:19Z</time>
      </trkpt>
      <trkpt lat="59.707317966967821" lon="8.428805032745004">
        <ele>908.73046875</ele>
        <time>2019-06-22T16:20:26Z</time>
      </trkpt>
      <trkpt lat="59.707235991954803" lon="8.428762033581734">
        <ele>907.19921875</ele>
        <time>2019-06-22T16:20:29Z</time>
      </trkpt>
      <trkpt lat="59.707124009728432" lon="8.428771002218127">
        <ele>905.77734375</ele>
        <time>2019-06-22T16:20:33Z</time>
      </trkpt>
      <trkpt lat="59.707058966159821" lon="8.428720040246844">
        <ele>904.6640625</ele>
        <time>2019-06-22T16:20:36Z</time>
      </trkpt>
      <trkpt lat="59.706962993368506" lon="8.428729008883238">
        <ele>903.44140625</ele>
        <time>2019-06-22T16:20:48Z</time>
      </trkpt>
      <trkpt lat="59.706856040284038" lon="8.428836967796087">
        <ele>902.51953125</ele>
        <time>2019-06-22T16:20:55Z</time>
      </trkpt>
      <trkpt lat="59.706846987828612" lon="8.428843002766371">
        <ele>902.4140625</ele>
        <time>2019-06-22T16:20:57Z</time>
      </trkpt>
      <trkpt lat="59.706809017807245" lon="8.428906034678221">
        <ele>902.0546875</ele>
        <time>2019-06-22T16:21:04Z</time>
      </trkpt>
      <trkpt lat="59.706745985895395" lon="8.428949033841491">
        <ele>901.1640625</ele>
        <time>2019-06-22T16:21:16Z</time>
      </trkpt>
      <trkpt lat="59.706608019769192" lon="8.428974011912942">
        <ele>899.83203125</ele>
        <time>2019-06-22T16:21:23Z</time>
      </trkpt>
      <trkpt lat="59.706362010911107" lon="8.428972000256181">
        <ele>899.03125</ele>
        <time>2019-06-22T16:21:32Z</time>
      </trkpt>
      <trkpt lat="59.706199988722801" lon="8.429038971662521">
        <ele>898.4609375</ele>
        <time>2019-06-22T16:21:43Z</time>
      </trkpt>
      <trkpt lat="59.706021035090089" lon="8.428955990821123">
        <ele>897.5703125</ele>
        <time>2019-06-22T16:21:51Z</time>
      </trkpt>
      <trkpt lat="59.705812996253371" lon="8.429060010239482">
        <ele>895.45703125</ele>
        <time>2019-06-22T16:21:59Z</time>
      </trkpt>
      <trkpt lat="59.705670000985265" lon="8.429074008017778">
        <ele>893.18359375</ele>
        <time>2019-06-22T16:22:08Z</time>
      </trkpt>
      <trkpt lat="59.705565981566906" lon="8.429126981645823">
        <ele>891.296875</ele>
        <time>2019-06-22T16:22:14Z</time>
      </trkpt>
      <trkpt lat="59.705546032637358" lon="8.429137039929628">
        <ele>890.9140625</ele>
        <time>2019-06-22T16:22:15Z</time>
      </trkpt>
      <trkpt lat="59.705479983240366" lon="8.429137039929628">
        <ele>889.83984375</ele>
        <time>2019-06-22T16:22:18Z</time>
      </trkpt>
      <trkpt lat="59.705346962437034" lon="8.429219014942646">
        <ele>887.43359375</ele>
        <time>2019-06-22T16:22:26Z</time>
      </trkpt>
      <trkpt lat="59.705062983557582" lon="8.429351029917598">
        <ele>883.60546875</ele>
        <time>2019-06-22T16:22:44Z</time>
      </trkpt>
      <trkpt lat="59.704857962206006" lon="8.429207028821111">
        <ele>881.875</ele>
        <time>2019-06-22T16:22:53Z</time>
      </trkpt>
      <trkpt lat="59.704670961946249" lon="8.429203005507588">
        <ele>880.90234375</ele>
        <time>2019-06-22T16:23:00Z</time>
      </trkpt>
      <trkpt lat="59.704560991376638" lon="8.429176015779376">
        <ele>880.8125</ele>
        <time>2019-06-22T16:23:09Z</time>
      </trkpt>
      <trkpt lat="59.704377008602023" lon="8.429093034937978">
        <ele>880.52734375</ele>
        <time>2019-06-22T16:23:24Z</time>
      </trkpt>
      <trkpt lat="59.704196965321898" lon="8.428979963064194">
        <ele>880.0625</ele>
        <time>2019-06-22T16:23:41Z</time>
      </trkpt>
      <trkpt lat="59.704043995589018" lon="8.428894970566034">
        <ele>879.71875</ele>
        <time>2019-06-22T16:24:03Z</time>
      </trkpt>
      <trkpt lat="59.703888008370996" lon="8.428814001381397">
        <ele>879.48046875</ele>
        <time>2019-06-22T16:24:20Z</time>
      </trkpt>
      <trkpt lat="59.703844003379345" lon="8.428761027753353">
        <ele>879.5</ele>
        <time>2019-06-22T16:24:40Z</time>
      </trkpt>
      <trkpt lat="59.703845009207726" lon="8.428750969469547">
        <ele>879.515625</ele>
        <time>2019-06-22T16:24:52Z</time>
      </trkpt>
      <trkpt lat="59.703840985894203" lon="8.428763961419463">
        <ele>879.48828125</ele>
        <time>2019-06-22T16:25:05Z</time>
      </trkpt>
      <trkpt lat="59.703756999224424" lon="8.428801009431481">
        <ele>879.26953125</ele>
        <time>2019-06-22T16:25:26Z</time>
      </trkpt>
      <trkpt lat="59.703516019508243" lon="8.428800003603101">
        <ele>879.02734375</ele>
        <time>2019-06-22T16:25:34Z</time>
      </trkpt>
      <trkpt lat="59.703299012035131" lon="8.428820036351681">
        <ele>879.015625</ele>
        <time>2019-06-22T16:25:42Z</time>
      </trkpt>
      <trkpt lat="59.703106982633471" lon="8.428752981126308">
        <ele>879.02734375</ele>
        <time>2019-06-22T16:25:49Z</time>
      </trkpt>
      <trkpt lat="59.702869020402431" lon="8.428809978067875">
        <ele>878.484375</ele>
        <time>2019-06-22T16:25:57Z</time>
      </trkpt>
      <trkpt lat="59.702669028192759" lon="8.428795980289578">
        <ele>877.12890625</ele>
        <time>2019-06-22T16:26:05Z</time>
      </trkpt>
      <trkpt lat="59.702451014891267" lon="8.428906034678221">
        <ele>875</ele>
        <time>2019-06-22T16:26:14Z</time>
      </trkpt>
      <trkpt lat="59.702296033501625" lon="8.428963031619787">
        <ele>874.0234375</ele>
        <time>2019-06-22T16:26:21Z</time>
      </trkpt>
      <trkpt lat="59.702156977728009" lon="8.428826993331313">
        <ele>873.73046875</ele>
        <time>2019-06-22T16:26:28Z</time>
      </trkpt>
      <trkpt lat="59.701928989961743" lon="8.428786005824804">
        <ele>873.03515625</ele>
        <time>2019-06-22T16:26:37Z</time>
      </trkpt>
      <trkpt lat="59.701757999137044" lon="8.428848031908274">
        <ele>872.078125</ele>
        <time>2019-06-22T16:26:45Z</time>
      </trkpt>
      <trkpt lat="59.701639981940389" lon="8.428922966122627">
        <ele>871.23828125</ele>
        <time>2019-06-22T16:26:50Z</time>
      </trkpt>
      <trkpt lat="59.701379975304008" lon="8.428909974172711">
        <ele>869.8671875</ele>
        <time>2019-06-22T16:27:01Z</time>
      </trkpt>
      <trkpt lat="59.701225999742746" lon="8.42864703387022">
        <ele>869.83203125</ele>
        <time>2019-06-22T16:27:10Z</time>
      </trkpt>
      <trkpt lat="59.701069006696343" lon="8.428424997255206">
        <ele>869.87890625</ele>
        <time>2019-06-22T16:27:19Z</time>
      </trkpt>
      <trkpt lat="59.700937997549772" lon="8.428288036957383">
        <ele>870.0234375</ele>
        <time>2019-06-22T16:27:26Z</time>
      </trkpt>
      <trkpt lat="59.70078201033175" lon="8.428227016702294">
        <ele>869.84765625</ele>
        <time>2019-06-22T16:27:36Z</time>
      </trkpt>
      <trkpt lat="59.700712021440268" lon="8.428168008103967">
        <ele>869.82421875</ele>
        <time>2019-06-22T16:27:55Z</time>
      </trkpt>
      <trkpt lat="59.700485961511731" lon="8.428120985627174">
        <ele>869.37109375</ele>
        <time>2019-06-22T16:28:19Z</time>
      </trkpt>
      <trkpt lat="59.700306002050638" lon="8.428040016442537">
        <ele>869.37890625</ele>
        <time>2019-06-22T16:28:36Z</time>
      </trkpt>
      <trkpt lat="59.700290998443961" lon="8.428040016442537">
        <ele>869.359375</ele>
        <time>2019-06-22T16:28:38Z</time>
      </trkpt>
      <trkpt lat="59.700106009840965" lon="8.428128026425839">
        <ele>869.0234375</ele>
        <time>2019-06-22T16:28:58Z</time>
      </trkpt>
      <trkpt lat="59.700054964050651" lon="8.42819700948894">
        <ele>868.66796875</ele>
        <time>2019-06-22T16:29:03Z</time>
      </trkpt>
      <trkpt lat="59.700009031221271" lon="8.428286025300622">
        <ele>868.29296875</ele>
        <time>2019-06-22T16:29:08Z</time>
      </trkpt>
      <trkpt lat="59.699803004041314" lon="8.42843203805387">
        <ele>868.6875</ele>
        <time>2019-06-22T16:29:26Z</time>
      </trkpt>
      <trkpt lat="59.699522964656353" lon="8.428461961448193">
        <ele>869.9453125</ele>
        <time>2019-06-22T16:29:42Z</time>
      </trkpt>
      <trkpt lat="59.699277961626649" lon="8.428779970854521">
        <ele>870.91015625</ele>
        <time>2019-06-22T16:29:54Z</time>
      </trkpt>
      <trkpt lat="59.699162039905787" lon="8.429107032716274">
        <ele>870.75390625</ele>
        <time>2019-06-22T16:30:03Z</time>
      </trkpt>
      <trkpt lat="59.699032958596945" lon="8.429367961362004">
        <ele>869.46484375</ele>
        <time>2019-06-22T16:30:12Z</time>
      </trkpt>
      <trkpt lat="59.698834978044033" lon="8.429746991023421">
        <ele>867.140625</ele>
        <time>2019-06-22T16:30:24Z</time>
      </trkpt>
      <trkpt lat="59.698704974725842" lon="8.430016972124577">
        <ele>868.41015625</ele>
        <time>2019-06-22T16:30:34Z</time>
      </trkpt>
      <trkpt lat="59.698543036356568" lon="8.430220987647772">
        <ele>871.84375</ele>
        <time>2019-06-22T16:30:44Z</time>
      </trkpt>
      <trkpt lat="59.698544964194298" lon="8.43056196346879">
        <ele>870.875</ele>
        <time>2019-06-22T16:30:54Z</time>
      </trkpt>
      <trkpt lat="59.698556028306484" lon="8.430848037824035">
        <ele>869.86328125</ele>
        <time>2019-06-22T16:31:02Z</time>
      </trkpt>
      <trkpt lat="59.698503976687789" lon="8.431045012548566">
        <ele>870.578125</ele>
        <time>2019-06-22T16:31:10Z</time>
      </trkpt>
      <trkpt lat="59.698406998068094" lon="8.43114098533988">
        <ele>872.375</ele>
        <time>2019-06-22T16:31:17Z</time>
      </trkpt>
      <trkpt lat="59.698209017515182" lon="8.431265959516168">
        <ele>876.55859375</ele>
        <time>2019-06-22T16:31:28Z</time>
      </trkpt>
      <trkpt lat="59.698103992268443" lon="8.431410966441035">
        <ele>878.21875</ele>
        <time>2019-06-22T16:31:36Z</time>
      </trkpt>
      <trkpt lat="59.697994021698833" lon="8.431685976684094">
        <ele>878.91015625</ele>
        <time>2019-06-22T16:31:45Z</time>
      </trkpt>
      <trkpt lat="59.697973988950253" lon="8.431908013299108">
        <ele>878.32421875</ele>
        <time>2019-06-22T16:31:53Z</time>
      </trkpt>
      <trkpt lat="59.697868963703513" lon="8.432230968028307">
        <ele>879.6015625</ele>
        <time>2019-06-22T16:32:05Z</time>
      </trkpt>
      <trkpt lat="59.697727980092168" lon="8.432463984936476">
        <ele>880.765625</ele>
        <time>2019-06-22T16:32:15Z</time>
      </trkpt>
      <trkpt lat="59.697588002309203" lon="8.432685015723109">
        <ele>881</ele>
        <time>2019-06-22T16:32:23Z</time>
      </trkpt>
      <trkpt lat="59.697508038952947" lon="8.432848965749145">
        <ele>880.26953125</ele>
        <time>2019-06-22T16:32:29Z</time>
      </trkpt>
      <trkpt lat="59.697335036471486" lon="8.432968994602561">
        <ele>881.609375</ele>
        <time>2019-06-22T16:32:39Z</time>
      </trkpt>
      <trkpt lat="59.697137977927923" lon="8.43309598043561">
        <ele>883.15234375</ele>
        <time>2019-06-22T16:32:49Z</time>
      </trkpt>
      <trkpt lat="59.696968998759985" lon="8.433307958766818">
        <ele>883.08203125</ele>
        <time>2019-06-22T16:32:59Z</time>
      </trkpt>
      <trkpt lat="59.696768000721931" lon="8.433554973453283">
        <ele>881.5625</ele>
        <time>2019-06-22T16:33:09Z</time>
      </trkpt>
      <trkpt lat="59.696637997403741" lon="8.433796958997846">
        <ele>880.75390625</ele>
        <time>2019-06-22T16:33:16Z</time>
      </trkpt>
      <trkpt lat="59.696556022390723" lon="8.433940038084984">
        <ele>880.4375</ele>
        <time>2019-06-22T16:33:23Z</time>
      </trkpt>
      <trkpt lat="59.69642199575901" lon="8.434072975069284">
        <ele>880.05078125</ele>
        <time>2019-06-22T16:33:31Z</time>
      </trkpt>
      <trkpt lat="59.696274977177382" lon="8.434216976165772">
        <ele>879.4140625</ele>
        <time>2019-06-22T16:33:39Z</time>
      </trkpt>
      <trkpt lat="59.696084959432483" lon="8.434098036959767">
        <ele>879.94921875</ele>
        <time>2019-06-22T16:33:49Z</time>
      </trkpt>
      <trkpt lat="59.695923021063209" lon="8.43402000144124">
        <ele>880.26171875</ele>
        <time>2019-06-22T16:33:58Z</time>
      </trkpt>
      <trkpt lat="59.69571397639811" lon="8.434141958132386">
        <ele>880.23046875</ele>
        <time>2019-06-22T16:34:10Z</time>
      </trkpt>
      <trkpt lat="59.695580033585429" lon="8.434347985312343">
        <ele>880.03515625</ele>
        <time>2019-06-22T16:34:18Z</time>
      </trkpt>
      <trkpt lat="59.695437960326672" lon="8.434378998354077">
        <ele>880.1484375</ele>
        <time>2019-06-22T16:34:27Z</time>
      </trkpt>
      <trkpt lat="59.695351039990783" lon="8.434359971433878">
        <ele>880.34375</ele>
        <time>2019-06-22T16:34:36Z</time>
      </trkpt>
      <trkpt lat="59.695268981158733" lon="8.434352008625865">
        <ele>880.4765625</ele>
        <time>2019-06-22T16:34:43Z</time>
      </trkpt>
      <trkpt lat="59.695124980062246" lon="8.434195015579462">
        <ele>880.83203125</ele>
        <time>2019-06-22T16:34:52Z</time>
      </trkpt>
      <trkpt lat="59.694935968145728" lon="8.434139024466276">
        <ele>880.60546875</ele>
        <time>2019-06-22T16:35:02Z</time>
      </trkpt>
      <trkpt lat="59.694792972877622" lon="8.434397019445896">
        <ele>879.671875</ele>
        <time>2019-06-22T16:35:12Z</time>
      </trkpt>
      <trkpt lat="59.694735975936055" lon="8.434559963643551">
        <ele>878.9765625</ele>
        <time>2019-06-22T16:35:21Z</time>
      </trkpt>
      <trkpt lat="59.69481099396944" lon="8.434932036325336">
        <ele>878.171875</ele>
        <time>2019-06-22T16:35:33Z</time>
      </trkpt>
      <trkpt lat="59.694753997027874" lon="8.435267983004451">
        <ele>876.39453125</ele>
        <time>2019-06-22T16:35:42Z</time>
      </trkpt>
      <trkpt lat="59.694635979831219" lon="8.435513991862536">
        <ele>874.8515625</ele>
        <time>2019-06-22T16:35:50Z</time>
      </trkpt>
      <trkpt lat="59.694494996219873" lon="8.4356729965657">
        <ele>874.0078125</ele>
        <time>2019-06-22T16:35:58Z</time>
      </trkpt>
      <trkpt lat="59.694298021495342" lon="8.43577902764082">
        <ele>871.81640625</ele>
        <time>2019-06-22T16:36:07Z</time>
      </trkpt>
      <trkpt lat="59.694139016792178" lon="8.435950018465519">
        <ele>869.2265625</ele>
        <time>2019-06-22T16:36:16Z</time>
      </trkpt>
      <trkpt lat="59.693905999884009" lon="8.43610399402678">
        <ele>864.03515625</ele>
        <time>2019-06-22T16:36:27Z</time>
      </trkpt>
      <trkpt lat="59.693681029602885" lon="8.436254030093551">
        <ele>863.60546875</ele>
        <time>2019-06-22T16:36:39Z</time>
      </trkpt>
      <trkpt lat="59.693510038778186" lon="8.436456033959985">
        <ele>863.66015625</ele>
        <time>2019-06-22T16:36:49Z</time>
      </trkpt>
      <trkpt lat="59.693317003548145" lon="8.436539014801383">
        <ele>863.16796875</ele>
        <time>2019-06-22T16:37:00Z</time>
      </trkpt>
      <trkpt lat="59.693188006058335" lon="8.436582013964653">
        <ele>863.12109375</ele>
        <time>2019-06-22T16:37:07Z</time>
      </trkpt>
      <trkpt lat="59.693035958334804" lon="8.436684021726251">
        <ele>863.3984375</ele>
        <time>2019-06-22T16:37:15Z</time>
      </trkpt>
      <trkpt lat="59.692898998036981" lon="8.436875967308879">
        <ele>864.41796875</ele>
        <time>2019-06-22T16:37:24Z</time>
      </trkpt>
      <trkpt lat="59.692759020254016" lon="8.437066990882158">
        <ele>864.63671875</ele>
        <time>2019-06-22T16:37:32Z</time>
      </trkpt>
      <trkpt lat="59.69266296364367" lon="8.437334960326552">
        <ele>864.11328125</ele>
        <time>2019-06-22T16:37:41Z</time>
      </trkpt>
      <trkpt lat="59.692551987245679" lon="8.437616005539894">
        <ele>863.7265625</ele>
        <time>2019-06-22T16:37:50Z</time>
      </trkpt>
      <trkpt lat="59.692351995036006" lon="8.437905013561249">
        <ele>863.68359375</ele>
        <time>2019-06-22T16:38:00Z</time>
      </trkpt>
      <trkpt lat="59.692203970625997" lon="8.438134007155895">
        <ele>863.8671875</ele>
        <time>2019-06-22T16:38:08Z</time>
      </trkpt>
      <trkpt lat="59.692161977291107" lon="8.438174994662404">
        <ele>863.86328125</ele>
        <time>2019-06-22T16:38:19Z</time>
      </trkpt>
      <trkpt lat="59.692161977291107" lon="8.438174994662404">
        <ele>863.86328125</ele>
        <time>2019-06-22T16:38:37Z</time>
      </trkpt>
      <trkpt lat="59.691966008394957" lon="8.438152028247714">
        <ele>862.62109375</ele>
        <time>2019-06-22T16:38:47Z</time>
      </trkpt>
      <trkpt lat="59.691740032285452" lon="8.438369035720825">
        <ele>862.3671875</ele>
        <time>2019-06-22T16:38:58Z</time>
      </trkpt>
      <trkpt lat="59.691697033122182" lon="8.438422009348869">
        <ele>862.17578125</ele>
        <time>2019-06-22T16:39:05Z</time>
      </trkpt>
      <trkpt lat="59.691532999277115" lon="8.438565004616976">
        <ele>861.39453125</ele>
        <time>2019-06-22T16:39:14Z</time>
      </trkpt>
      <trkpt lat="59.691252959892154" lon="8.438563998788595">
        <ele>860.26171875</ele>
        <time>2019-06-22T16:39:27Z</time>
      </trkpt>
      <trkpt lat="59.691041987389326" lon="8.438824005424976">
        <ele>860.2421875</ele>
        <time>2019-06-22T16:39:37Z</time>
      </trkpt>
      <trkpt lat="59.690847024321556" lon="8.438870022073388">
        <ele>860.12890625</ele>
        <time>2019-06-22T16:39:46Z</time>
      </trkpt>
      <trkpt lat="59.690648037940264" lon="8.438882008194923">
        <ele>860.12890625</ele>
        <time>2019-06-22T16:39:54Z</time>
      </trkpt>
      <trkpt lat="59.690392976626754" lon="8.438928024843335">
        <ele>860.328125</ele>
        <time>2019-06-22T16:40:04Z</time>
      </trkpt>
      <trkpt lat="59.690245036035776" lon="8.439179984852672">
        <ele>860.55078125</ele>
        <time>2019-06-22T16:40:13Z</time>
      </trkpt>
      <trkpt lat="59.690084019675851" lon="8.439405038952828">
        <ele>860.90234375</ele>
        <time>2019-06-22T16:40:22Z</time>
      </trkpt>
      <trkpt lat="59.689900036901236" lon="8.439659010618925">
        <ele>861.04296875</ele>
        <time>2019-06-22T16:40:32Z</time>
      </trkpt>
      <trkpt lat="59.689731979742646" lon="8.439747020602226">
        <ele>861.0234375</ele>
        <time>2019-06-22T16:40:40Z</time>
      </trkpt>
      <trkpt lat="59.689514972269535" lon="8.439880041405559">
        <ele>860.54296875</ele>
        <time>2019-06-22T16:40:51Z</time>
      </trkpt>
      <trkpt lat="59.689317997545004" lon="8.440109035000205">
        <ele>860.2734375</ele>
        <time>2019-06-22T16:41:00Z</time>
      </trkpt>
      <trkpt lat="59.689195035025477" lon="8.440262004733086">
        <ele>860.13671875</ele>
        <time>2019-06-22T16:41:07Z</time>
      </trkpt>
      <trkpt lat="59.689024966210127" lon="8.440503990277648">
        <ele>860.12890625</ele>
        <time>2019-06-22T16:41:15Z</time>
      </trkpt>
      <trkpt lat="59.688868978992105" lon="8.44065897166729">
        <ele>860.12890625</ele>
        <time>2019-06-22T16:41:24Z</time>
      </trkpt>
      <trkpt lat="59.688693964853883" lon="8.440798027440906">
        <ele>860.12890625</ele>
        <time>2019-06-22T16:41:34Z</time>
      </trkpt>
      <trkpt lat="59.68845197930932" lon="8.441059961915016">
        <ele>860.12890625</ele>
        <time>2019-06-22T16:41:45Z</time>
      </trkpt>
      <trkpt lat="59.688237989321351" lon="8.441205974668264">
        <ele>860.12890625</ele>
        <time>2019-06-22T16:41:55Z</time>
      </trkpt>
      <trkpt lat="59.687996003776789" lon="8.441350981593132">
        <ele>860.01171875</ele>
        <time>2019-06-22T16:42:05Z</time>
      </trkpt>
      <trkpt lat="59.687835993245244" lon="8.441663039848208">
        <ele>859.78515625</ele>
        <time>2019-06-22T16:42:15Z</time>
      </trkpt>
      <trkpt lat="59.687778996303678" lon="8.441769992932677">
        <ele>859.84765625</ele>
        <time>2019-06-22T16:42:30Z</time>
      </trkpt>
      <trkpt lat="59.687656033784151" lon="8.442072998732328">
        <ele>859.3828125</ele>
        <time>2019-06-22T16:42:38Z</time>
      </trkpt>
      <trkpt lat="59.687456963583827" lon="8.442513970658183">
        <ele>859.62109375</ele>
        <time>2019-06-22T16:42:50Z</time>
      </trkpt>
      <trkpt lat="59.687313968315721" lon="8.442894006147981">
        <ele>859.25</ele>
        <time>2019-06-22T16:43:00Z</time>
      </trkpt>
      <trkpt lat="59.687134008854628" lon="8.443268006667495">
        <ele>858.82421875</ele>
        <time>2019-06-22T16:43:10Z</time>
      </trkpt>
      <trkpt lat="59.686990007758141" lon="8.443446038290858">
        <ele>858.62890625</ele>
        <time>2019-06-22T16:43:19Z</time>
      </trkpt>
      <trkpt lat="59.686917001381516" lon="8.443500017747283">
        <ele>858.53125</ele>
        <time>2019-06-22T16:43:24Z</time>
      </trkpt>
      <trkpt lat="59.686905015259981" lon="8.443475961685181">
        <ele>858.5859375</ele>
        <time>2019-06-22T16:43:26Z</time>
      </trkpt>
      <trkpt lat="59.686693036928773" lon="8.443555003032088">
        <ele>858.41015625</ele>
        <time>2019-06-22T16:43:36Z</time>
      </trkpt>
      <trkpt lat="59.686534032225609" lon="8.443604037165642">
        <ele>858.21875</ele>
        <time>2019-06-22T16:43:43Z</time>
      </trkpt>
      <trkpt lat="59.686376033350825" lon="8.443721970543265">
        <ele>858.015625</ele>
        <time>2019-06-22T16:43:50Z</time>
      </trkpt>
      <trkpt lat="59.686159025877714" lon="8.443767987191677">
        <ele>857.99609375</ele>
        <time>2019-06-22T16:43:59Z</time>
      </trkpt>
      <trkpt lat="59.686027010902762" lon="8.443895978853107">
        <ele>857.8671875</ele>
        <time>2019-06-22T16:44:07Z</time>
      </trkpt>
      <trkpt lat="59.685897007584572" lon="8.444085996598005">
        <ele>857.39453125</ele>
        <time>2019-06-22T16:44:24Z</time>
      </trkpt>
      <trkpt lat="59.685891978442669" lon="8.444091025739908">
        <ele>857.37890625</ele>
        <time>2019-06-22T16:44:33Z</time>
      </trkpt>
      <trkpt lat="59.685839004814625" lon="8.444196972995997">
        <ele>857.18359375</ele>
        <time>2019-06-22T16:44:41Z</time>
      </trkpt>
      <trkpt lat="59.685820983722806" lon="8.444243995472789">
        <ele>857.11328125</ele>
        <time>2019-06-22T16:44:45Z</time>
      </trkpt>
      <trkpt lat="59.685719981789589" lon="8.444305015727878">
        <ele>856.92578125</ele>
        <time>2019-06-22T16:44:57Z</time>
      </trkpt>
      <trkpt lat="59.685670025646687" lon="8.444384979084134">
        <ele>856.78515625</ele>
        <time>2019-06-22T16:45:09Z</time>
      </trkpt>
      <trkpt lat="59.685646975412965" lon="8.44439503736794">
        <ele>856.74609375</ele>
        <time>2019-06-22T16:45:22Z</time>
      </trkpt>
      <trkpt lat="59.68563498929143" lon="8.444352960214019">
        <ele>856.78125</ele>
        <time>2019-06-22T16:45:36Z</time>
      </trkpt>
      <trkpt lat="59.68563599511981" lon="8.444355977699161">
        <ele>856.77734375</ele>
        <time>2019-06-22T16:45:48Z</time>
      </trkpt>
      <trkpt lat="59.685581009835005" lon="8.444522023200989">
        <ele>856.53515625</ele>
        <time>2019-06-22T16:45:59Z</time>
      </trkpt>
      <trkpt lat="59.685552008450031" lon="8.444555969908834">
        <ele>856.44140625</ele>
        <time>2019-06-22T16:46:03Z</time>
      </trkpt>
      <trkpt lat="59.685466010123491" lon="8.444810025393963">
        <ele>856.07421875</ele>
        <time>2019-06-22T16:46:14Z</time>
      </trkpt>
      <trkpt lat="59.685287978500128" lon="8.445027032867074">
        <ele>855.86328125</ele>
        <time>2019-06-22T16:46:23Z</time>
      </trkpt>
      <trkpt lat="59.685071976855397" lon="8.445272035896778">
        <ele>855.86328125</ele>
        <time>2019-06-22T16:46:32Z</time>
      </trkpt>
      <trkpt lat="59.684931999072433" lon="8.445531036704779">
        <ele>855.77734375</ele>
        <time>2019-06-22T16:46:41Z</time>
      </trkpt>
      <trkpt lat="59.684812976047397" lon="8.445757012814283">
        <ele>855.40234375</ele>
        <time>2019-06-22T16:46:49Z</time>
      </trkpt>
      <trkpt lat="59.684696970507503" lon="8.445971002802253">
        <ele>855.20703125</ele>
        <time>2019-06-22T16:46:58Z</time>
      </trkpt>
      <trkpt lat="59.68458297662437" lon="8.446193961426616">
        <ele>855.47265625</ele>
        <time>2019-06-22T16:47:06Z</time>
      </trkpt>
      <trkpt lat="59.684446016326547" lon="8.44643603079021">
        <ele>855.76171875</ele>
        <time>2019-06-22T16:47:16Z</time>
      </trkpt>
      <trkpt lat="59.684335039928555" lon="8.446585983037949">
        <ele>855.86328125</ele>
        <time>2019-06-22T16:47:23Z</time>
      </trkpt>
      <trkpt lat="59.68415399082005" lon="8.446783041581512">
        <ele>855.78515625</ele>
        <time>2019-06-22T16:47:32Z</time>
      </trkpt>
      <trkpt lat="59.683999009430408" lon="8.447007006034255">
        <ele>855.6015625</ele>
        <time>2019-06-22T16:47:41Z</time>
      </trkpt>
      <trkpt lat="59.683860959485173" lon="8.447272963821888">
        <ele>855.9921875</ele>
        <time>2019-06-22T16:47:51Z</time>
      </trkpt>
      <trkpt lat="59.683731039986014" lon="8.447449989616871">
        <ele>856.48828125</ele>
        <time>2019-06-22T16:48:00Z</time>
      </trkpt>
      <trkpt lat="59.683715030550957" lon="8.447671020403504">
        <ele>857.171875</ele>
        <time>2019-06-22T16:48:15Z</time>
      </trkpt>
      <trkpt lat="59.683562982827425" lon="8.447894984856248">
        <ele>857.6640625</ele>
        <time>2019-06-22T16:48:27Z</time>
      </trkpt>
      <trkpt lat="59.683369025588036" lon="8.448104029521346">
        <ele>858.34375</ele>
        <time>2019-06-22T16:48:36Z</time>
      </trkpt>
      <trkpt lat="59.683296019211411" lon="8.448167983442545">
        <ele>858.41796875</ele>
        <time>2019-06-22T16:48:40Z</time>
      </trkpt>
      <trkpt lat="59.68318797647953" lon="8.448323970660567">
        <ele>858.50390625</ele>
        <time>2019-06-22T16:48:49Z</time>
      </trkpt>
      <trkpt lat="59.682973986491561" lon="8.448593029752374">
        <ele>858.2890625</ele>
        <time>2019-06-22T16:49:05Z</time>
      </trkpt>
      <trkpt lat="59.682830991223454" lon="8.448819005861878">
        <ele>858.3828125</ele>
        <time>2019-06-22T16:49:15Z</time>
      </trkpt>
      <trkpt lat="59.682678021490574" lon="8.448977004736662">
        <ele>857.890625</ele>
        <time>2019-06-22T16:49:24Z</time>
      </trkpt>
      <trkpt lat="59.682567967101932" lon="8.449133997783065">
        <ele>857.4609375</ele>
        <time>2019-06-22T16:49:31Z</time>
      </trkpt>
      <trkpt lat="59.682356994599104" lon="8.449261989444494">
        <ele>855.875</ele>
        <time>2019-06-22T16:49:40Z</time>
      </trkpt>
      <trkpt lat="59.682149039581418" lon="8.449418982490897">
        <ele>853.5234375</ele>
        <time>2019-06-22T16:49:51Z</time>
      </trkpt>
      <trkpt lat="59.682124983519316" lon="8.449430968612433">
        <ele>853.26953125</ele>
        <time>2019-06-22T16:49:52Z</time>
      </trkpt>
      <trkpt lat="59.681922979652882" lon="8.449515961110592">
        <ele>850.953125</ele>
        <time>2019-06-22T16:50:02Z</time>
      </trkpt>
      <trkpt lat="59.681761041283607" lon="8.449609000235796">
        <ele>848.32421875</ele>
        <time>2019-06-22T16:50:10Z</time>
      </trkpt>
      <trkpt lat="59.681589966639876" lon="8.449665997177362">
        <ele>846.0234375</ele>
        <time>2019-06-22T16:50:20Z</time>
      </trkpt>
      <trkpt lat="59.681388968601823" lon="8.449613023549318">
        <ele>843.47265625</ele>
        <time>2019-06-22T16:50:32Z</time>
      </trkpt>
      <trkpt lat="59.681222001090646" lon="8.4498730301857">
        <ele>842.5703125</ele>
        <time>2019-06-22T16:50:42Z</time>
      </trkpt>
      <trkpt lat="59.680989990010858" lon="8.450186010450125">
        <ele>842.26171875</ele>
        <time>2019-06-22T16:50:54Z</time>
      </trkpt>
      <trkpt lat="59.680776000022888" lon="8.45054198987782">
        <ele>841.5703125</ele>
        <time>2019-06-22T16:51:05Z</time>
      </trkpt>
      <trkpt lat="59.680582964792848" lon="8.450814988464117">
        <ele>841.07421875</ele>
        <time>2019-06-22T16:51:15Z</time>
      </trkpt>
      <trkpt lat="59.680320024490356" lon="8.450912972912192">
        <ele>840.94140625</ele>
        <time>2019-06-22T16:51:26Z</time>
      </trkpt>
      <trkpt lat="59.680124977603555" lon="8.450980028137565">
        <ele>840.92578125</ele>
        <time>2019-06-22T16:51:35Z</time>
      </trkpt>
      <trkpt lat="59.679951975122094" lon="8.451103996485472">
        <ele>840.80078125</ele>
        <time>2019-06-22T16:51:44Z</time>
      </trkpt>
      <trkpt lat="59.679794982075691" lon="8.451188988983631">
        <ele>840.46484375</ele>
        <time>2019-06-22T16:51:51Z</time>
      </trkpt>
      <trkpt lat="59.679661961272359" lon="8.451274987310171">
        <ele>840.22265625</ele>
        <time>2019-06-22T16:51:59Z</time>
      </trkpt>
      <trkpt lat="59.679506979882717" lon="8.451063008978963">
        <ele>840.24609375</ele>
        <time>2019-06-22T16:52:08Z</time>
      </trkpt>
      <trkpt lat="59.679321991279721" lon="8.451024033129215">
        <ele>840.12109375</ele>
        <time>2019-06-22T16:52:16Z</time>
      </trkpt>
      <trkpt lat="59.679182013496757" lon="8.450840972363949">
        <ele>840.01171875</ele>
        <time>2019-06-22T16:52:25Z</time>
      </trkpt>
      <trkpt lat="59.679078999906778" lon="8.450682973489165">
        <ele>840.015625</ele>
        <time>2019-06-22T16:52:32Z</time>
      </trkpt>
      <trkpt lat="59.678856041282415" lon="8.450637962669134">
        <ele>840.1171875</ele>
        <time>2019-06-22T16:52:42Z</time>
      </trkpt>
      <trkpt lat="59.678679015487432" lon="8.450554981827736">
        <ele>840.29296875</ele>
        <time>2019-06-22T16:52:51Z</time>
      </trkpt>
      <trkpt lat="59.678499978035688" lon="8.450711974874139">
        <ele>840.62109375</ele>
        <time>2019-06-22T16:53:01Z</time>
      </trkpt>
      <trkpt lat="59.678309038281441" lon="8.450846001505852">
        <ele>840.92578125</ele>
        <time>2019-06-22T16:53:11Z</time>
      </trkpt>
      <trkpt lat="59.678145004436374" lon="8.451020009815693">
        <ele>840.92578125</ele>
        <time>2019-06-22T16:53:20Z</time>
      </trkpt>
      <trkpt lat="59.678010977804661" lon="8.451233999803662">
        <ele>840.92578125</ele>
        <time>2019-06-22T16:53:29Z</time>
      </trkpt>
      <trkpt lat="59.677825989201665" lon="8.451374983415008">
        <ele>840.92578125</ele>
        <time>2019-06-22T16:53:40Z</time>
      </trkpt>
      <trkpt lat="59.677618034183979" lon="8.451599031686783">
        <ele>840.92578125</ele>
        <time>2019-06-22T16:53:53Z</time>
      </trkpt>
      <trkpt lat="59.677523989230394" lon="8.451699027791619">
        <ele>840.92578125</ele>
        <time>2019-06-22T16:53:59Z</time>
      </trkpt>
      <trkpt lat="59.67747000977397" lon="8.451818972826004">
        <ele>840.92578125</ele>
        <time>2019-06-22T16:54:03Z</time>
      </trkpt>
      <trkpt lat="59.677294995635748" lon="8.451977977529168">
        <ele>840.92578125</ele>
        <time>2019-06-22T16:54:12Z</time>
      </trkpt>
      <trkpt lat="59.677117969840765" lon="8.452170006930828">
        <ele>840.92578125</ele>
        <time>2019-06-22T16:54:22Z</time>
      </trkpt>
      <trkpt lat="59.676969023421407" lon="8.452274026349187">
        <ele>840.92578125</ele>
        <time>2019-06-22T16:54:32Z</time>
      </trkpt>
      <trkpt lat="59.67680498957634" lon="8.452190961688757">
        <ele>840.92578125</ele>
        <time>2019-06-22T16:54:41Z</time>
      </trkpt>
      <trkpt lat="59.676628969609737" lon="8.452193979173899">
        <ele>840.92578125</ele>
        <time>2019-06-22T16:54:52Z</time>
      </trkpt>
      <trkpt lat="59.676393019035459" lon="8.452083002775908">
        <ele>840.92578125</ele>
        <time>2019-06-22T16:55:11Z</time>
      </trkpt>
      <trkpt lat="59.676228985190392" lon="8.452030029147863">
        <ele>840.95703125</ele>
        <time>2019-06-22T16:55:21Z</time>
      </trkpt>
      <trkpt lat="59.676046008244157" lon="8.452118961140513">
        <ele>840.92578125</ele>
        <time>2019-06-22T16:55:32Z</time>
      </trkpt>
      <trkpt lat="59.675874011591077" lon="8.452176963910461">
        <ele>840.92578125</ele>
        <time>2019-06-22T16:55:42Z</time>
      </trkpt>
      <trkpt lat="59.675799999386072" lon="8.452210994437337">
        <ele>840.92578125</ele>
        <time>2019-06-22T16:55:54Z</time>
      </trkpt>
      <trkpt lat="59.675798993557692" lon="8.452209988608956">
        <ele>840.92578125</ele>
        <time>2019-06-22T16:56:02Z</time>
      </trkpt>
      <trkpt lat="59.675586009398103" lon="8.452265979722142">
        <ele>840.92578125</ele>
        <time>2019-06-22T16:56:15Z</time>
      </trkpt>
      <trkpt lat="59.675395991653204" lon="8.452406963333488">
        <ele>840.92578125</ele>
        <time>2019-06-22T16:56:23Z</time>
      </trkpt>
      <trkpt lat="59.675228018313646" lon="8.452579965814948">
        <ele>840.92578125</ele>
        <time>2019-06-22T16:56:31Z</time>
      </trkpt>
      <trkpt lat="59.675028026103973" lon="8.452677028253675">
        <ele>840.92578125</ele>
        <time>2019-06-22T16:56:42Z</time>
      </trkpt>
      <trkpt lat="59.674820993095636" lon="8.45284198410809">
        <ele>840.92578125</ele>
        <time>2019-06-22T16:56:55Z</time>
      </trkpt>
      <trkpt lat="59.674687972292304" lon="8.452922031283379">
        <ele>840.92578125</ele>
        <time>2019-06-22T16:57:09Z</time>
      </trkpt>
      <trkpt lat="59.674682021141052" lon="8.452917002141476">
        <ele>840.92578125</ele>
        <time>2019-06-22T16:57:56Z</time>
      </trkpt>
      <trkpt lat="59.674511030316353" lon="8.453221013769507">
        <ele>840.9375</ele>
        <time>2019-06-22T16:58:06Z</time>
      </trkpt>
      <trkpt lat="59.674461996182799" lon="8.453336013481021">
        <ele>840.8984375</ele>
        <time>2019-06-22T16:58:22Z</time>
      </trkpt>
      <trkpt lat="59.674430983141065" lon="8.453385969623923">
        <ele>840.80859375</ele>
        <time>2019-06-22T16:58:56Z</time>
      </trkpt>
      <trkpt lat="59.674372980371118" lon="8.453603982925415">
        <ele>841.09375</ele>
        <time>2019-06-22T16:59:18Z</time>
      </trkpt>
      <trkpt lat="59.674137029796839" lon="8.4538499917835">
        <ele>840.42578125</ele>
        <time>2019-06-22T16:59:30Z</time>
      </trkpt>
      <trkpt lat="59.673970984295011" lon="8.454036992043257">
        <ele>840.5234375</ele>
        <time>2019-06-22T16:59:38Z</time>
      </trkpt>
      <trkpt lat="59.673808962106705" lon="8.454208988696337">
        <ele>840.32421875</ele>
        <time>2019-06-22T16:59:47Z</time>
      </trkpt>
      <trkpt lat="59.673626990988851" lon="8.454351983964443">
        <ele>840.01171875</ele>
        <time>2019-06-22T16:59:55Z</time>
      </trkpt>
      <trkpt lat="59.673524983227253" lon="8.454565973952413">
        <ele>840.01171875</ele>
        <time>2019-06-22T17:00:03Z</time>
      </trkpt>
      <trkpt lat="59.673394979909062" lon="8.454783987253904">
        <ele>840.01171875</ele>
        <time>2019-06-22T17:00:11Z</time>
      </trkpt>
      <trkpt lat="59.673241004347801" lon="8.455061009153724">
        <ele>840.140625</ele>
        <time>2019-06-22T17:00:22Z</time>
      </trkpt>
      <trkpt lat="59.673047969117761" lon="8.455239962786436">
        <ele>840.12109375</ele>
        <time>2019-06-22T17:00:32Z</time>
      </trkpt>
      <trkpt lat="59.672846971079707" lon="8.455285979434848">
        <ele>840.03515625</ele>
        <time>2019-06-22T17:00:41Z</time>
      </trkpt>
      <trkpt lat="59.672667011618614" lon="8.455166034400463">
        <ele>839.87890625</ele>
        <time>2019-06-22T17:00:49Z</time>
      </trkpt>
      <trkpt lat="59.672497026622295" lon="8.455028990283608">
        <ele>839.66796875</ele>
        <time>2019-06-22T17:00:58Z</time>
      </trkpt>
      <trkpt lat="59.672370962798595" lon="8.454884989187121">
        <ele>839.53125</ele>
        <time>2019-06-22T17:01:07Z</time>
      </trkpt>
      <trkpt lat="59.672299968078732" lon="8.454704023897648">
        <ele>839.7421875</ele>
        <time>2019-06-22T17:01:22Z</time>
      </trkpt>
      <trkpt lat="59.672208018600941" lon="8.454443011432886">
        <ele>839.53515625</ele>
        <time>2019-06-22T17:01:35Z</time>
      </trkpt>
      <trkpt lat="59.672052031382918" lon="8.454251987859607">
        <ele>839.09765625</ele>
        <time>2019-06-22T17:01:43Z</time>
      </trkpt>
      <trkpt lat="59.671827983111143" lon="8.453917969018221">
        <ele>839.09765625</ele>
        <time>2019-06-22T17:01:55Z</time>
      </trkpt>
      <trkpt lat="59.671679958701134" lon="8.453682018443942">
        <ele>839.09765625</ele>
        <time>2019-06-22T17:02:03Z</time>
      </trkpt>
      <trkpt lat="59.67151902616024" lon="8.453543968498707">
        <ele>839.09765625</ele>
        <time>2019-06-22T17:02:12Z</time>
      </trkpt>
      <trkpt lat="59.67130302451551" lon="8.453556038439274">
        <ele>839.09765625</ele>
        <time>2019-06-22T17:02:19Z</time>
      </trkpt>
      <trkpt lat="59.67109096236527" lon="8.453602977097035">
        <ele>839.09765625</ele>
        <time>2019-06-22T17:02:28Z</time>
      </trkpt>
      <trkpt lat="59.670907985419035" lon="8.453727029263973">
        <ele>839.09765625</ele>
        <time>2019-06-22T17:02:36Z</time>
      </trkpt>
      <trkpt lat="59.670700030401349" lon="8.453961974009872">
        <ele>839.5234375</ele>
        <time>2019-06-22T17:02:46Z</time>
      </trkpt>
      <trkpt lat="59.670646972954273" lon="8.453970020636916">
        <ele>839.58984375</ele>
        <time>2019-06-22T17:02:48Z</time>
      </trkpt>
      <trkpt lat="59.670413034036756" lon="8.453989969566464">
        <ele>839.88671875</ele>
        <time>2019-06-22T17:02:58Z</time>
      </trkpt>
      <trkpt lat="59.670197032392025" lon="8.454031040892005">
        <ele>840.01171875</ele>
        <time>2019-06-22T17:03:07Z</time>
      </trkpt>
      <trkpt lat="59.669979019090533" lon="8.454333962872624">
        <ele>839.89453125</ele>
        <time>2019-06-22T17:03:18Z</time>
      </trkpt>
      <trkpt lat="59.669798975810409" lon="8.454462038353086">
        <ele>839.5</ele>
        <time>2019-06-22T17:03:28Z</time>
      </trkpt>
      <trkpt lat="59.669680958613753" lon="8.454587012529373">
        <ele>839.11328125</ele>
        <time>2019-06-22T17:03:35Z</time>
      </trkpt>
      <trkpt lat="59.669575011357665" lon="8.45477401278913">
        <ele>838.07421875</ele>
        <time>2019-06-22T17:03:43Z</time>
      </trkpt>
      <trkpt lat="59.669399997219443" lon="8.454999988898635">
        <ele>836.30859375</ele>
        <time>2019-06-22T17:03:53Z</time>
      </trkpt>
      <trkpt lat="59.66922297142446" lon="8.455122029408813">
        <ele>834.96875</ele>
        <time>2019-06-22T17:04:02Z</time>
      </trkpt>
      <trkpt lat="59.669016022235155" lon="8.455187994986773">
        <ele>832.76953125</ele>
        <time>2019-06-22T17:04:10Z</time>
      </trkpt>
      <trkpt lat="59.668831033632159" lon="8.455336019396782">
        <ele>831.1640625</ele>
        <time>2019-06-22T17:04:19Z</time>
      </trkpt>
      <trkpt lat="59.66859701089561" lon="8.455292014405131">
        <ele>829.4140625</ele>
        <time>2019-06-22T17:04:30Z</time>
      </trkpt>
      <trkpt lat="59.668467007577419" lon="8.455296037718654">
        <ele>828.82421875</ele>
        <time>2019-06-22T17:04:39Z</time>
      </trkpt>
      <trkpt lat="59.668320994824171" lon="8.45537600107491">
        <ele>828.546875</ele>
        <time>2019-06-22T17:04:48Z</time>
      </trkpt>
      <trkpt lat="59.668158972635865" lon="8.45550499856472">
        <ele>827.359375</ele>
        <time>2019-06-22T17:04:58Z</time>
      </trkpt>
      <trkpt lat="59.668010026216507" lon="8.455582028254867">
        <ele>827.71875</ele>
        <time>2019-06-22T17:05:06Z</time>
      </trkpt>
      <trkpt lat="59.667693022638559" lon="8.455573981627822">
        <ele>827.265625</ele>
        <time>2019-06-22T17:05:19Z</time>
      </trkpt>
      <trkpt lat="59.667440978810191" lon="8.455458981916308">
        <ele>825.05078125</ele>
        <time>2019-06-22T17:05:28Z</time>
      </trkpt>
      <trkpt lat="59.667205028235912" lon="8.455279022455216">
        <ele>823</ele>
        <time>2019-06-22T17:05:37Z</time>
      </trkpt>
      <trkpt lat="59.666932029649615" lon="8.455234011635184">
        <ele>823.24609375</ele>
        <time>2019-06-22T17:05:45Z</time>
      </trkpt>
      <trkpt lat="59.666703036054969" lon="8.455237029120326">
        <ele>823.1875</ele>
        <time>2019-06-22T17:05:54Z</time>
      </trkpt>
      <trkpt lat="59.666507989168167" lon="8.455330990254879">
        <ele>823.1640625</ele>
        <time>2019-06-22T17:06:02Z</time>
      </trkpt>
      <trkpt lat="59.666411010548472" lon="8.455371977761388">
        <ele>822.8671875</ele>
        <time>2019-06-22T17:06:05Z</time>
      </trkpt>
      <trkpt lat="59.666331969201565" lon="8.455475997179747">
        <ele>824.0390625</ele>
        <time>2019-06-22T17:06:08Z</time>
      </trkpt>
      <trkpt lat="59.666258962824941" lon="8.455571969971061">
        <ele>824.4921875</ele>
        <time>2019-06-22T17:06:11Z</time>
      </trkpt>
      <trkpt lat="59.666036004200578" lon="8.455818984657526">
        <ele>822.16015625</ele>
        <time>2019-06-22T17:06:22Z</time>
      </trkpt>
      <trkpt lat="59.665841963142157" lon="8.456013025715947">
        <ele>820.47265625</ele>
        <time>2019-06-22T17:06:36Z</time>
      </trkpt>
      <trkpt lat="59.665608024224639" lon="8.456417033448815">
        <ele>820.1875</ele>
        <time>2019-06-22T17:06:53Z</time>
      </trkpt>
      <trkpt lat="59.665281968191266" lon="8.456679973751307">
        <ele>817.5234375</ele>
        <time>2019-06-22T17:07:04Z</time>
      </trkpt>
      <trkpt lat="59.664914002642035" lon="8.456882983446121">
        <ele>813.03515625</ele>
        <time>2019-06-22T17:07:17Z</time>
      </trkpt>
      <trkpt lat="59.664586018770933" lon="8.457108037546277">
        <ele>808.59765625</ele>
        <time>2019-06-22T17:07:32Z</time>
      </trkpt>
      <trkpt lat="59.664398012682796" lon="8.45720199868083">
        <ele>806.5859375</ele>
        <time>2019-06-22T17:07:42Z</time>
      </trkpt>
      <trkpt lat="59.664244037121534" lon="8.457477008923888">
        <ele>806.71875</ele>
        <time>2019-06-22T17:07:50Z</time>
      </trkpt>
      <trkpt lat="59.664146974682808" lon="8.457605000585318">
        <ele>806.62890625</ele>
        <time>2019-06-22T17:07:53Z</time>
      </trkpt>
      <trkpt lat="59.664053013548255" lon="8.457680018618703">
        <ele>806.5078125</ele>
        <time>2019-06-22T17:07:55Z</time>
      </trkpt>
      <trkpt lat="59.663946982473135" lon="8.457799963653088">
        <ele>806.60546875</ele>
        <time>2019-06-22T17:07:59Z</time>
      </trkpt>
      <trkpt lat="59.663927033543587" lon="8.457831982523203">
        <ele>806.66796875</ele>
        <time>2019-06-22T17:08:00Z</time>
      </trkpt>
      <trkpt lat="59.663825025781989" lon="8.457970032468438">
        <ele>806.5234375</ele>
        <time>2019-06-22T17:08:05Z</time>
      </trkpt>
      <trkpt lat="59.66357197612524" lon="8.458230039104819">
        <ele>803.8515625</ele>
        <time>2019-06-22T17:08:15Z</time>
      </trkpt>
      <trkpt lat="59.663301995024085" lon="8.458433970808983">
        <ele>800.44921875</ele>
        <time>2019-06-22T17:08:25Z</time>
      </trkpt>
      <trkpt lat="59.662982979789376" lon="8.458551988005638">
        <ele>800.15625</ele>
        <time>2019-06-22T17:08:35Z</time>
      </trkpt>
      <trkpt lat="59.662748035043478" lon="8.458653995767236">
        <ele>800</ele>
        <time>2019-06-22T17:08:44Z</time>
      </trkpt>
      <trkpt lat="59.662557011470199" lon="8.458760026842356">
        <ele>799.91015625</ele>
        <time>2019-06-22T17:08:53Z</time>
      </trkpt>
      <trkpt lat="59.662322988733649" lon="8.458977034315467">
        <ele>800.40234375</ele>
        <time>2019-06-22T17:09:04Z</time>
      </trkpt>
      <trkpt lat="59.662154009565711" lon="8.459136039018631">
        <ele>800.578125</ele>
        <time>2019-06-22T17:09:12Z</time>
      </trkpt>
      <trkpt lat="59.661870030686259" lon="8.45943502150476">
        <ele>800.52734375</ele>
        <time>2019-06-22T17:09:27Z</time>
      </trkpt>
      <trkpt lat="59.661647994071245" lon="8.459680024534464">
        <ele>800.53515625</ele>
        <time>2019-06-22T17:09:43Z</time>
      </trkpt>
      <trkpt lat="59.661305006593466" lon="8.459843974560499">
        <ele>799.94921875</ele>
        <time>2019-06-22T17:10:12Z</time>
      </trkpt>
      <trkpt lat="59.660962019115686" lon="8.460023012012243">
        <ele>799.56640625</ele>
        <time>2019-06-22T17:10:39Z</time>
      </trkpt>
      <trkpt lat="59.66064996086061" lon="8.460159972310066">
        <ele>798.9921875</ele>
        <time>2019-06-22T17:11:04Z</time>
      </trkpt>
      <trkpt lat="59.660333963111043" lon="8.460009014233947">
        <ele>798.33984375</ele>
        <time>2019-06-22T17:11:30Z</time>
      </trkpt>
      <trkpt lat="59.660246036946774" lon="8.460011025890708">
        <ele>798.34765625</ele>
        <time>2019-06-22T17:11:47Z</time>
      </trkpt>
      <trkpt lat="59.660274032503366" lon="8.460005996748805">
        <ele>798.32421875</ele>
        <time>2019-06-22T17:12:37Z</time>
      </trkpt>
      <trkpt lat="59.660298004746437" lon="8.46001798287034">
        <ele>798.33984375</ele>
        <time>2019-06-22T17:13:05Z</time>
      </trkpt>
      <trkpt lat="59.660298004746437" lon="8.460010020062327">
        <ele>798.32421875</ele>
        <time>2019-06-22T17:13:08Z</time>
      </trkpt>
      <trkpt lat="59.660129025578499" lon="8.459748001769185">
        <ele>798.0859375</ele>
        <time>2019-06-22T17:13:14Z</time>
      </trkpt>
    </trkseg>
  </trk>

</gpx>